[[{"header":{"parameterUnit":"m.s-1","parameterCategory":1,"la1":30.6,"la2":29.2853,"lo1":-89.7004,"lo2":-87.6739,"dy":0.0162,"dx":0.0183,"nx":112,"ny":82,"refTime":"2026-04-26T00:00:00:Z","depth":0,"parameterNumber":2,"parameterNumberName":"U-component_of_WINDS"},"data":[0.0,0.0,0.0,0.0,0.0,0.0,0.0,0.0,0.0,0.0,0.0,0.0,0.0,0.0,0.0,0.0,0.0,0.0,0.0,0.0,0.0,0.0,0.0,0.0,0.0,0.0,0.0,0.0,0.0,0.0,0.0,0.0,0.0,0.0,0.0,0.0,0.0,0.0,0.0,0.0,0.0,0.0,0.0,0.0,0.0,0.0,0.0,0.0,0.0,0.0,0.0,0.0,0.0,0.0,0.0,0.0,0.0,0.0,0.0,0.0,0.0,0.0,0.0,0.0,0.0,0.0,0.0,0.0,0.0,0.0,0.0,0.0,0.0,0.0,0.0,0.0,0.0,0.0,0.0,0.0,0.0,0.0,0.0,0.0,0.0,0.0,0.0,0.0,0.0,0.0,2.7842,3.1759,3.6576,3.8905,3.7262,3.7308,3.5562,3.1069,0.0,0.0,0.0,0.0,0.0,0.0,0.0,0.0,0.0,0.0,0.0,0.0,0.0,0.0,0.0,0.0,0.0,0.0,0.0,0.0,0.0,0.0,0.0,0.0,0.0,0.0,0.0,0.0,0.0,0.0,0.0,0.0,0.0,0.0,0.0,0.0,0.0,0.0,0.0,0.0,0.0,0.0,0.0,0.0,0.0,0.0,0.0,0.0,0.0,0.0,0.0,0.0,0.0,0.0,0.0,0.0,0.0,0.0,0.0,0.0,0.0,0.0,0.0,0.0,0.0,0.0,0.0,0.0,0.0,0.0,0.0,0.0,0.0,0.0,0.0,0.0,0.0,0.0,0.0,0.0,0.0,0.0,0.0,0.0,0.0,0.0,0.0,0.0,0.0,0.0,0.0,0.0,0.0,0.0,0.0,0.0,0.0,0.0,0.0,0.0,0.0,0.0,0.0,0.0,2.9505,3.515,3.8105,3.9617,3.9467,3.8911,3.7003,3.3318,0.0,0.0,0.0,0.0,0.0,0.0,0.0,0.0,0.0,0.0,0.0,0.0,0.0,0.0,0.0,0.0,0.0,0.0,0.0,0.0,0.0,0.0,0.0,0.0,0.0,0.0,0.0,0.0,0.0,0.0,0.0,0.0,0.0,0.0,0.0,0.0,0.0,0.0,0.0,0.0,0.0,0.0,0.0,0.0,0.0,0.0,0.0,0.0,0.0,0.0,0.0,0.0,0.0,0.0,0.0,0.0,0.0,0.0,0.0,0.0,0.0,0.0,0.0,0.0,0.0,0.0,0.0,0.0,0.0,0.0,0.0,0.0,0.0,0.0,0.0,0.0,0.0,0.0,0.0,0.0,0.0,0.0,0.0,0.0,0.0,0.0,0.0,0.0,0.0,0.0,0.0,0.0,0.0,0.0,0.0,0.0,0.0,0.0,0.0,0.0,0.0,0.0,0.0,2.9104,3.2827,3.6028,3.8713,4.0049,3.9344,3.8901,3.6785,3.2458,2.8163,0.0,0.0,0.0,0.0,0.0,0.0,0.0,0.0,0.0,0.0,0.0,0.0,0.0,0.0,0.0,0.0,0.0,0.0,0.0,0.0,0.0,0.0,0.0,0.0,0.0,0.0,0.0,0.0,0.0,0.0,0.0,0.0,0.0,0.0,0.0,0.0,0.0,0.0,0.0,0.0,0.0,0.0,0.0,0.0,0.0,0.0,0.0,0.0,0.0,0.0,0.0,0.0,0.0,0.0,0.0,0.0,0.0,0.0,0.0,0.0,0.0,0.0,0.0,0.0,0.0,0.0,0.0,0.0,0.0,0.0,0.0,0.0,0.0,0.0,0.0,0.0,0.0,0.0,0.0,0.0,0.0,0.0,0.0,0.0,0.0,0.0,0.0,0.0,0.0,0.0,0.0,0.0,0.0,0.0,0.0,0.0,0.0,0.0,0.0,0.0,0.0,0.0,3.2442,3.5461,3.6337,3.9027,4.0198,3.8805,3.8216,3.5929,3.1271,2.7532,0.0,0.0,0.0,0.0,0.0,0.0,0.0,0.0,0.0,0.0,0.0,0.0,0.0,0.0,0.0,0.0,0.0,0.0,0.0,0.0,0.0,0.0,0.0,0.0,0.0,0.0,0.0,0.0,0.0,0.0,0.0,0.0,0.0,0.0,0.0,0.0,0.0,0.0,0.0,0.0,0.0,0.0,0.0,0.0,0.0,0.0,0.0,0.0,0.0,0.0,0.0,0.0,0.0,0.0,0.0,0.0,0.0,0.0,0.0,0.0,0.0,0.0,0.0,0.0,0.0,0.0,0.0,0.0,0.0,0.0,0.0,0.0,0.0,0.0,0.0,0.0,0.0,0.0,0.0,0.0,0.0,0.0,0.0,0.0,0.0,0.0,0.0,0.0,0.0,0.0,0.0,0.0,0.0,0.0,0.0,0.0,0.0,0.0,0.0,0.0,0.0,0.0,3.3157,3.5942,3.6903,3.9285,4.0198,3.8715,3.7096,3.4656,3.1046,2.6406,0.0,0.0,0.0,0.0,0.0,0.0,0.0,0.0,0.0,0.0,0.0,0.0,0.0,0.0,0.0,0.0,0.0,0.0,0.0,0.0,0.0,0.0,0.0,0.0,0.0,0.0,0.0,0.0,0.0,0.0,0.0,0.0,0.0,0.0,0.0,0.0,0.0,0.0,0.0,0.0,0.0,0.0,0.0,0.0,0.0,0.0,0.0,0.0,0.0,0.0,0.0,0.0,0.0,0.0,0.0,0.0,0.0,0.0,0.0,0.0,0.0,0.0,0.0,0.0,0.0,0.0,0.0,0.0,0.0,0.0,0.0,0.0,0.0,0.0,0.0,0.0,0.0,0.0,0.0,0.0,0.0,0.0,0.0,0.0,0.0,0.0,0.0,0.0,0.0,0.0,0.0,0.0,0.0,0.0,0.0,0.0,0.0,0.0,0.0,0.0,0.0,0.0,3.3567,3.6364,0.0,3.9074,3.9802,3.824,3.6439,3.3783,2.986,0.0,0.0,0.0,0.0,0.0,0.0,0.0,0.0,0.0,0.0,0.0,0.0,0.0,0.0,0.0,0.0,0.0,0.0,0.0,0.0,0.0,0.0,0.0,0.0,0.0,0.0,0.0,0.0,0.0,0.0,0.0,0.0,0.0,0.0,0.0,0.0,0.0,0.0,0.0,0.0,0.0,0.0,0.0,0.0,0.0,0.0,0.0,0.0,0.0,0.0,0.0,0.0,0.0,0.0,0.0,0.0,0.0,0.0,0.0,0.0,0.0,0.0,0.0,0.0,0.0,0.0,0.0,0.0,0.0,0.0,0.0,0.0,0.0,0.0,0.0,0.0,0.0,0.0,0.0,0.0,0.0,0.0,0.0,0.0,0.0,0.0,0.0,0.0,0.0,0.0,0.0,0.0,0.0,0.0,0.0,0.0,0.0,0.0,0.0,0.0,0.0,0.0,2.9853,3.3893,3.6653,0.0,3.8857,3.9243,3.7427,3.5562,3.2798,2.8958,0.0,0.0,0.0,0.0,0.0,0.0,0.0,0.0,0.0,0.0,0.0,0.0,0.0,0.0,0.0,0.0,0.0,0.0,0.0,0.0,0.0,0.0,0.0,0.0,0.0,0.0,0.0,0.0,0.0,0.0,0.0,0.0,0.0,0.0,0.0,0.0,0.0,0.0,0.0,0.0,0.0,0.0,0.0,0.0,0.0,0.0,0.0,0.0,0.0,0.0,0.0,0.0,0.0,0.0,0.0,0.0,0.0,0.0,0.0,0.0,0.0,0.0,0.0,0.0,0.0,0.0,0.0,0.0,0.0,0.0,0.0,0.0,0.0,0.0,0.0,0.0,0.0,0.0,0.0,0.0,0.0,0.0,0.0,0.0,0.0,0.0,0.0,0.0,0.0,0.0,0.0,0.0,0.0,0.0,0.0,0.0,0.0,0.0,0.0,0.0,0.0,0.0,3.0457,3.4202,3.6796,3.7625,3.8811,3.8672,3.6288,3.4287,3.1742,0.0,0.0,0.0,0.0,0.0,0.0,0.0,0.0,0.0,0.0,0.0,0.0,0.0,0.0,0.0,0.0,0.0,0.0,0.0,0.0,0.0,0.0,0.0,0.0,0.0,0.0,0.0,0.0,0.0,0.0,0.0,0.0,0.0,0.0,0.0,0.0,0.0,0.0,0.0,0.0,0.0,0.0,0.0,0.0,0.0,0.0,0.0,0.0,0.0,0.0,0.0,0.0,0.0,0.0,0.0,0.0,0.0,0.0,0.0,0.0,0.0,0.0,0.0,0.0,0.0,0.0,0.0,0.0,0.0,0.0,0.0,0.0,0.0,0.0,0.0,0.0,0.0,0.0,0.0,0.0,0.0,0.0,0.0,0.0,0.0,0.0,0.0,0.0,0.0,0.0,0.0,0.0,0.0,0.0,0.0,0.0,0.0,0.0,0.0,0.0,0.0,0.0,0.0,3.0474,3.4118,3.6653,3.7481,3.8508,3.8454,3.6684,3.5133,3.2685,2.9034,0.0,0.0,0.0,0.0,0.0,0.0,0.0,0.0,0.0,0.0,0.0,0.0,0.0,0.0,0.0,0.0,0.0,0.0,0.0,0.0,0.0,0.0,0.0,0.0,0.0,0.0,0.0,0.0,0.0,0.0,0.0,0.0,0.0,0.0,0.0,0.0,0.0,0.0,0.0,0.0,0.0,0.0,0.0,0.0,0.0,0.0,0.0,0.0,0.0,0.0,0.0,0.0,0.0,0.0,0.0,0.0,0.0,0.0,0.0,0.0,0.0,0.0,0.0,0.0,0.0,0.0,0.0,0.0,0.0,0.0,0.0,0.0,0.0,0.0,0.0,0.0,0.0,0.0,0.0,0.0,0.0,0.0,0.0,0.0,0.0,0.0,0.0,0.0,0.0,0.0,0.0,0.0,0.0,0.0,0.0,0.0,0.0,0.0,0.0,0.0,0.0,0.0,3.0862,3.4246,3.6729,3.7741,3.8394,3.8253,3.7041,3.5707,3.345,2.9973,0.0,0.0,0.0,0.0,0.0,0.0,0.0,0.0,0.0,0.0,0.0,0.0,0.0,0.0,0.0,0.0,0.0,0.0,0.0,0.0,0.0,0.0,0.0,0.0,0.0,0.0,0.0,0.0,0.0,0.0,0.0,0.0,0.0,0.0,0.0,0.0,0.0,0.0,0.0,0.0,0.0,0.0,0.0,0.0,0.0,0.0,0.0,0.0,0.0,0.0,0.0,0.0,0.0,0.0,0.0,0.0,0.0,0.0,0.0,0.0,0.0,0.0,0.0,0.0,0.0,0.0,0.0,0.0,0.0,0.0,0.0,0.0,0.0,0.0,0.0,0.0,0.0,0.0,0.0,0.0,0.0,0.0,0.0,0.0,0.0,0.0,0.0,0.0,0.0,0.0,0.0,0.0,0.0,0.0,0.0,0.0,0.0,0.0,0.0,0.0,0.0,0.0,3.1399,3.4471,3.6783,3.8189,3.8335,3.8044,3.7332,3.6071,3.4083,3.1156,0.0,0.0,0.0,0.0,0.0,0.0,0.0,0.0,0.0,0.0,0.0,0.0,0.0,0.0,0.0,0.0,0.0,0.0,0.0,0.0,0.0,0.0,0.0,0.0,0.0,0.0,0.0,0.0,0.0,0.0,0.0,0.0,0.0,0.0,0.0,0.0,0.0,0.0,0.0,0.0,0.0,0.0,0.0,0.0,0.0,0.0,0.0,0.0,0.0,0.0,0.0,0.0,0.0,0.0,0.0,0.0,0.0,0.0,0.0,0.0,2.7041,0.0,0.0,0.0,0.0,0.0,0.0,0.0,0.0,0.0,0.0,0.0,0.0,0.0,0.0,0.0,0.0,0.0,0.0,0.0,0.0,0.0,0.0,0.0,0.0,0.0,0.0,0.0,0.0,0.0,0.0,0.0,0.0,0.0,0.0,0.0,0.0,0.0,0.0,0.0,0.0,0.0,3.1149,3.4182,3.6421,3.7831,3.7992,3.7703,3.7054,3.6717,3.5096,3.1662,2.9018,0.0,0.0,0.0,0.0,0.0,0.0,0.0,0.0,0.0,0.0,0.0,0.0,0.0,0.0,0.0,0.0,0.0,0.0,0.0,0.0,0.0,0.0,0.0,0.0,0.0,0.0,0.0,0.0,0.0,0.0,0.0,0.0,0.0,0.0,0.0,0.0,0.0,0.0,0.0,0.0,0.0,0.0,0.0,0.0,0.0,0.0,0.0,0.0,0.0,0.0,0.0,0.0,0.0,0.0,0.0,0.0,0.0,0.0,0.0,0.0,2.9977,0.0,0.0,0.0,0.0,0.0,0.0,0.0,0.0,0.0,0.0,0.0,0.0,0.0,0.0,0.0,0.0,0.0,0.0,0.0,0.0,0.0,0.0,0.0,0.0,0.0,0.0,0.0,0.0,0.0,0.0,0.0,0.0,0.0,0.0,0.0,0.0,0.0,0.0,0.0,0.0,3.0959,3.3905,3.6126,3.7526,3.7669,3.7526,3.716,3.6842,3.5443,3.253,3.0069,0.0,0.0,0.0,0.0,0.0,0.0,0.0,0.0,0.0,0.0,0.0,0.0,0.0,0.0,0.0,0.0,0.0,0.0,0.0,0.0,0.0,0.0,0.0,0.0,0.0,0.0,0.0,0.0,0.0,0.0,0.0,0.0,0.0,0.0,0.0,0.0,0.0,0.0,0.0,0.0,0.0,0.0,0.0,0.0,0.0,0.0,0.0,0.0,0.0,0.0,0.0,0.0,0.0,3.5491,3.6577,3.7361,3.8057,3.8658,3.9004,3.5828,3.4093,3.3511,3.2541,0.0,0.0,0.0,0.0,0.0,0.0,0.0,0.0,0.0,0.0,0.0,0.0,0.0,0.0,0.0,0.0,0.0,0.0,0.0,0.0,0.0,0.0,0.0,0.0,3.0736,2.9476,0.0,0.0,0.0,0.0,0.0,0.0,0.0,0.0,0.0,0.0,0.0,0.0,3.0973,3.3719,3.5843,3.7156,3.7298,3.7298,3.7298,3.681,3.5628,3.3628,3.109,2.8716,0.0,0.0,0.0,0.0,0.0,0.0,0.0,0.0,0.0,0.0,0.0,0.0,0.0,0.0,0.0,0.0,0.0,0.0,0.0,0.0,0.0,0.0,0.0,0.0,0.0,0.0,0.0,0.0,0.0,0.0,0.0,0.0,2.0592,2.0702,0.0,0.0,0.0,0.0,0.0,0.0,0.0,0.0,0.0,0.0,0.0,0.0,0.0,3.3911,3.4572,3.5723,3.7137,3.873,3.958,4.0394,4.1155,4.1262,4.1343,4.1374,4.1393,0.0,3.7351,3.5756,0.0,0.0,0.0,0.0,0.0,0.0,0.0,0.0,0.0,0.0,0.0,0.0,0.0,0.0,0.0,0.0,0.0,0.0,0.0,0.0,0.0,0.0,3.4904,3.4139,3.3794,3.3467,0.0,3.072,2.8382,2.7045,2.5655,0.0,0.0,0.0,0.0,0.0,0.0,0.0,3.1463,3.3693,3.5498,3.6904,3.706,3.706,3.706,3.6982,3.6294,3.4779,3.3068,3.1161,2.9133,2.681,0.0,0.0,0.0,0.0,0.0,0.0,0.0,0.0,0.0,0.0,0.0,0.0,0.0,0.0,0.0,0.0,0.0,0.0,0.0,0.0,0.0,0.0,0.0,0.0,0.0,0.0,0.0,0.0,0.0,1.989,2.2078,2.2502,2.3591,2.4134,0.0,0.0,0.0,0.0,0.0,0.0,0.0,0.0,0.0,3.448,3.6071,3.7345,3.8391,3.9635,4.0654,4.1358,4.2537,4.355,4.4342,4.4747,4.511,4.5422,4.5201,4.4087,4.2126,3.9347,3.7474,3.6162,0.0,0.0,0.0,0.0,3.165,3.205,3.2114,3.2308,0.0,3.2789,0.0,0.0,0.0,0.0,0.0,0.0,0.0,0.0,0.0,0.0,3.6663,3.6627,3.6169,3.5587,3.5269,3.4054,3.2447,0.0,2.8928,2.7363,2.5535,0.0,0.0,0.0,0.0,2.9387,3.2017,3.4053,3.5639,3.6631,3.6693,3.6693,3.6693,3.6693,3.626,3.512,3.39,3.2292,3.016,2.8201,2.586,0.0,0.0,0.0,0.0,0.0,0.0,0.0,0.0,0.0,0.0,0.0,0.0,0.0,0.0,0.0,0.0,0.0,0.0,0.0,0.0,0.0,0.0,0.0,0.0,0.0,0.0,0.0,0.0,2.1979,2.3982,2.4704,2.5709,2.6301,0.0,0.0,0.0,0.0,0.0,0.0,3.188,3.4062,3.609,3.7809,3.9117,4.0392,4.1566,4.2868,4.3605,4.3815,4.5145,4.609,4.6685,4.7227,4.7771,4.8207,4.7526,4.6847,4.5927,4.2354,4.0394,3.943,3.7059,3.6454,3.6763,3.5542,3.5363,3.5677,3.5738,3.6007,3.6335,3.6691,3.6076,3.4975,3.3695,0.0,0.0,0.0,0.0,3.502,3.6616,3.7389,3.7899,3.8247,3.7795,3.7142,3.6645,3.6457,3.5583,0.0,3.164,3.0223,2.8466,0.0,0.0,0.0,0.0,3.1052,3.2872,3.4488,3.5753,3.6415,3.6492,3.6492,3.6492,3.6492,3.6199,3.5492,3.4288,3.2856,3.1063,2.9263,2.7088,2.4394,0.0,0.0,0.0,0.0,0.0,0.0,0.0,0.0,0.0,0.0,0.0,0.0,0.0,0.0,0.0,0.0,0.0,0.0,0.0,0.0,0.0,0.0,0.0,0.0,0.0,0.0,0.0,0.0,0.0,2.7979,2.9494,0.0,0.0,0.0,0.0,3.2612,3.3478,3.4587,3.6021,3.8151,3.9577,4.0131,4.1861,4.3084,4.3746,4.4998,4.6012,4.6726,4.7561,4.7979,4.8031,4.8066,4.81,4.8082,4.7939,4.785,4.7519,4.437,4.2477,4.1469,3.9637,3.9208,3.9445,3.8091,3.804,3.8668,3.9089,3.9233,3.9476,4.082,3.9849,3.8051,3.7125,3.5722,0.0,0.0,3.6611,3.7251,3.7948,3.8529,3.8918,3.8803,3.8577,3.84,3.8369,3.7846,3.6724,0.0,3.3209,3.2407,3.1675,0.0,3.0709,3.1441,3.2082,3.2934,3.4326,3.5074,3.5753,3.6415,3.6492,3.6492,3.6492,3.6492,3.6399,3.615,3.4483,3.314,3.2258,3.05,2.8206,2.5354,2.4026,0.0,0.0,0.0,0.0,0.0,0.0,0.0,0.0,0.0,0.0,0.0,0.0,0.0,0.0,0.0,0.0,0.0,0.0,0.0,0.0,0.0,0.0,0.0,0.0,0.0,0.0,0.0,0.0,3.0206,3.2312,0.0,3.3672,3.4148,3.4927,3.604,3.7757,3.9158,4.006,4.1522,4.2745,4.3751,4.3948,4.4593,4.5768,4.6118,4.6669,4.7395,4.7689,4.8069,4.8536,4.8536,4.8812,4.9262,4.8687,4.8424,4.8191,4.6353,4.4804,4.3539,4.2236,4.1214,4.0496,4.0369,4.0248,4.0289,4.0968,4.1451,4.1804,4.1916,4.0823,3.9285,3.8371,3.7319,3.6606,3.7405,3.7665,3.8013,3.9075,3.9445,3.961,3.9993,3.9951,3.9693,3.9262,3.897,3.8385,3.711,3.5581,3.4342,3.3676,3.3352,3.3203,3.3522,3.4083,3.4627,3.5105,3.5767,3.623,3.6461,3.6492,3.6492,3.6492,3.6492,3.6367,3.6085,3.4655,3.341,3.2463,3.0984,2.893,2.6368,2.5491,2.3787,0.0,0.0,0.0,0.0,0.0,0.0,0.0,0.0,0.0,0.0,0.0,0.0,0.0,0.0,0.0,0.0,0.0,0.0,0.0,0.0,0.0,0.0,0.0,0.0,0.0,0.0,3.132,3.2692,3.466,3.6141,3.674,3.7321,3.8124,3.9213,4.1009,4.2331,4.29,4.3969,4.4899,4.5641,4.5439,4.591,4.7174,4.7272,4.7734,4.8493,4.8493,4.8734,4.9217,4.9217,4.951,4.9976,4.9459,4.9103,4.8819,4.792,4.6659,4.5228,4.4307,4.3271,4.2293,4.2456,4.2302,4.206,4.2473,4.2884,4.317,4.276,4.1995,4.1103,4.0499,3.9692,3.9047,3.9358,3.915,3.9066,3.9951,4.0065,4.0137,4.0554,4.0593,4.0401,3.9955,3.9862,3.9662,3.8985,3.7584,3.6292,3.5614,3.5491,3.5414,3.5183,3.5537,3.583,3.583,3.6215,3.6492,3.6492,3.6492,3.6492,3.6492,3.6414,3.6119,3.5513,3.4297,3.3123,3.1974,3.0786,2.9212,2.7307,2.605,2.4207,2.1736,0.0,0.0,0.0,0.0,0.0,0.0,0.0,0.0,0.0,0.0,0.0,0.0,0.0,0.0,0.0,0.0,0.0,0.0,0.0,0.0,0.0,0.0,0.0,2.7301,3.0161,3.3033,3.5444,3.6604,3.7895,3.9564,3.9845,4.0569,4.2145,4.3146,4.3921,4.4453,4.5454,4.5917,4.5676,4.6407,4.7121,4.7899,4.8515,4.916,4.9993,4.9993,4.9993,4.9993,4.9993,4.9993,4.9993,4.9993,4.9801,4.9428,4.8889,4.7888,4.6535,4.5779,4.5308,4.4886,4.4372,4.4134,4.3929,4.3722,4.3636,4.3621,4.3621,4.3605,4.352,4.3427,4.2817,4.2046,4.1922,4.1218,4.0555,4.0555,4.0539,4.0524,4.0524,4.0524,4.0524,4.0524,4.0524,4.0339,3.9677,3.9031,3.8354,3.7646,3.7507,3.7277,3.6615,3.6507,0.0,3.6492,3.6492,3.6492,3.6492,3.6492,3.6492,3.6492,3.6274,3.5717,3.4598,3.3376,3.2164,3.0821,2.9897,2.8969,2.8174,2.577,2.3372,2.0988,0.0,0.0,0.0,0.0,0.0,0.0,0.0,0.0,0.0,0.0,0.0,0.0,0.0,0.0,0.0,0.0,0.0,0.0,0.0,0.0,0.0,0.0,2.824,2.9237,3.2466,3.5225,3.6556,3.852,4.0014,4.0574,4.1767,4.2747,4.3391,4.4792,4.5721,4.5914,4.6378,4.6809,4.7115,4.6673,4.7072,4.8397,4.8506,4.8871,4.9624,4.9624,4.9624,4.9624,4.9624,4.9624,4.9624,4.9624,4.9428,4.9046,4.8208,4.7507,4.6878,4.6059,4.5158,4.4317,4.4452,4.4693,4.4846,4.4773,4.4429,4.3991,4.3991,4.3646,4.3255,4.3185,4.2918,4.2621,4.255,4.1944,4.1309,4.1309,4.0924,4.0524,4.0524,4.0524,4.0524,4.0524,4.0524,4.0478,4.0293,4.0108,3.9601,3.8431,3.7831,3.7446,3.7246,3.6799,0.0,3.6492,3.6492,3.6492,3.6492,3.6492,3.6414,3.6274,3.6022,3.5416,3.4405,3.2713,3.1435,3.0807,2.9366,2.8098,2.7223,2.6013,2.4449,0.0,0.0,0.0,0.0,0.0,0.0,0.0,0.0,0.0,0.0,0.0,0.0,0.0,0.0,0.0,0.0,0.0,0.0,0.0,0.0,0.0,0.0,2.8496,3.068,3.2439,3.4693,3.6589,3.7812,3.9523,4.0819,4.1239,4.2501,4.35,4.4068,4.542,4.6326,4.6679,4.7043,4.7293,4.741,4.7348,4.766,4.8494,4.8761,4.9214,4.9966,4.9966,5.012,5.041,5.041,5.041,5.0393,5.0086,4.9722,4.927,4.8001,4.7272,0.0,0.0,0.0,0.0,0.0,4.483,4.498,4.498,4.4701,4.427,4.427,4.408,4.3754,4.3754,4.3422,4.3117,4.3117,4.2381,4.1601,4.1601,4.1063,4.0524,4.0524,4.0524,4.0524,4.0524,4.047,4.0401,4.0401,4.0331,0.0,3.9237,3.8668,3.8246,3.7969,3.7584,3.7338,3.7338,3.7338,3.723,3.6953,3.6923,3.6721,3.6178,3.5752,0.0,0.0,0.0,3.1027,3.0243,2.8931,0.0,0.0,0.0,0.0,0.0,0.0,0.0,0.0,2.0385,2.046,0.0,0.0,0.0,0.0,0.0,0.0,0.0,0.0,0.0,0.0,0.0,0.0,0.0,0.0,0.0,0.0,3.0837,3.3041,3.5904,3.6606,3.7433,3.8963,3.9905,4.0753,4.1508,4.2423,4.3305,4.4192,4.5267,4.623,4.6977,0.0,0.0,0.0,0.0,4.8528,4.8514,4.9104,4.9803,5.0554,5.0554,5.0946,5.1646,5.1646,5.1646,5.1612,5.0878,5.0323,4.9701,4.7985,4.6932,4.6301,4.5905,4.5614,4.5395,4.5024,4.4799,4.4572,4.4572,0.0,0.0,4.4572,4.4572,4.4572,4.4572,4.4156,4.3679,4.3679,4.2786,4.1817,4.1817,4.1232,4.0647,4.0647,4.0586,4.0539,4.0455,4.0401,4.0277,4.0277,4.0137,4.0011,4.0011,3.9711,3.9256,3.8657,3.8504,3.8442,3.8442,3.8442,3.8212,3.7612,0.0,0.0,3.614,3.5474,3.4545,3.3244,3.2033,3.0699,2.9376,2.8758,2.8331,2.808,2.7589,2.6707,2.5341,2.5384,2.5264,2.4953,2.2805,2.2284,0.0,0.0,0.0,0.0,0.0,0.0,0.0,0.0,0.0,0.0,0.0,0.0,0.0,0.0,0.0,3.0284,3.2366,3.4266,3.6042,3.7396,3.8563,3.9461,4.0227,4.0716,4.0901,4.2029,4.2923,4.3308,4.4806,4.614,4.7031,4.7001,4.7474,4.8546,4.8305,4.8473,4.9008,4.9118,4.9497,5.0227,0.0,0.0,5.1282,5.1282,5.1282,5.1248,5.0549,4.9974,4.9538,4.7667,4.6111,4.5024,4.5188,4.5188,4.5024,4.4949,4.4799,4.4572,4.4572,4.4572,4.4572,4.4572,4.4572,4.4572,4.4572,4.4495,0.0,4.4387,4.3802,4.3187,4.3187,4.2294,4.1401,4.1401,4.094,4.0455,4.0331,4.0347,4.0277,4.0066,3.9996,4.0011,4.0011,3.9519,3.9032,3.8895,3.8394,3.8029,3.8029,3.8029,3.7968,3.7846,3.7375,3.6879,3.6385,3.5052,3.3879,3.2762,3.1212,2.9888,2.9039,2.9154,2.8976,2.8365,2.8525,2.8092,2.7041,2.7168,2.6857,2.6152,2.4542,2.4238,0.0,0.0,0.0,0.0,0.0,0.0,0.0,0.0,0.0,0.0,0.0,2.5647,2.7417,0.0,3.055,3.237,3.3995,3.5582,3.7058,3.8259,3.9164,3.9571,4.0264,4.0648,4.06,4.1885,4.2809,4.2995,4.4578,4.5771,4.6239,4.6845,4.7482,4.8053,4.8455,4.8812,4.9107,4.9063,4.956,5.0659,5.0659,5.1169,5.2201,5.2068,5.2001,5.185,5.0642,4.9909,4.944,4.7195,4.5624,4.4663,4.4814,4.4814,4.4723,4.4723,4.4723,4.4572,4.4572,4.4572,4.4572,4.4572,4.4572,4.4572,4.4572,4.4496,4.4435,4.4435,4.3868,4.3273,4.3273,4.2294,4.1301,4.1301,4.0766,4.0191,4.0137,4.0051,3.998,3.9839,3.9783,3.9711,3.9711,3.944,3.9285,3.944,3.9206,3.891,3.8825,3.8825,3.8635,3.8166,3.785,3.7315,3.6379,3.4695,3.31,3.1764,3.0821,3.013,2.9697,2.9557,2.9403,2.9106,2.8833,2.8333,2.761,2.7544,2.7208,2.6747,2.6089,2.592,0.0,0.0,0.0,0.0,0.0,0.0,0.0,0.0,2.4185,2.6002,2.7682,2.9089,3.0,3.1421,3.2852,3.4125,3.5376,3.6693,3.8025,3.8879,3.9474,3.9641,4.0223,4.06,4.0485,4.1784,4.2654,4.2809,4.4318,4.5299,4.5453,4.6742,4.7381,4.7323,4.8515,4.9107,4.9001,4.894,4.97,5.1153,5.1088,5.1814,5.3025,5.2667,5.2304,5.1993,5.0294,4.9169,4.8567,4.6373,4.5126,4.4511,4.4511,4.4511,4.4496,4.4572,4.4572,4.4572,4.4572,4.4572,4.4572,4.4572,4.4511,4.4511,4.4511,4.4343,4.4189,4.4205,4.3747,4.3183,4.3183,4.2288,4.1392,4.1392,4.0785,4.0193,4.0122,3.993,3.9696,3.9625,3.9481,3.9424,3.9337,3.9337,3.9481,3.9854,3.9854,3.9783,3.961,3.9466,3.9113,3.8391,3.8056,3.7329,3.587,3.4265,3.2705,3.1189,3.105,3.0937,3.0684,3.0151,2.9842,2.9812,2.9007,2.8263,2.7815,2.7555,2.7301,2.7009,2.7302,2.7105,2.2585,2.3503,2.5153,2.504,2.5516,2.6213,0.0,0.0,2.6822,2.9611,3.0227,3.0813,3.2633,3.3504,3.4159,3.4799,3.6053,3.7274,3.8094,3.8879,3.9583,4.015,4.0286,4.0355,4.0337,4.1528,4.2339,4.2339,4.3817,4.497,4.5648,4.6445,4.7149,4.7827,4.8578,4.9001,4.9001,4.8894,4.9573,5.1039,5.0843,5.1328,5.2362,5.1383,5.0713,5.027,4.82,4.6659,4.5551,4.5098,4.4541,4.4065,4.4065,4.4065,4.4127,4.4435,4.4572,4.4572,4.4572,4.4572,4.4572,4.4358,4.4205,4.4065,4.4065,4.3895,4.3723,4.3972,4.3927,4.3881,4.3881,4.332,4.2773,4.2773,4.1802,4.0804,4.0643,4.0103,3.9625,3.9481,3.9424,3.9337,3.9177,3.9104,3.9192,3.9424,3.9496,3.9409,3.9177,3.8723,3.8248,3.8026,3.6849,3.5577,3.4162,3.3788,3.3245,3.2489,3.2476,3.2254,3.1679,3.1408,3.0855,3.0025,2.9501,2.8922,2.816,2.7912,2.7637,2.7151,2.7667,2.7621,2.5931,2.6206,0.0,0.0,2.8819,2.9527,3.0163,3.0296,3.0671,3.2237,3.2979,3.358,3.4352,3.4835,3.5206,0.0,3.6661,3.7674,3.798,3.8659,3.9406,4.0103,3.9815,3.9713,4.0137,4.1086,4.183,4.2252,4.3284,4.4231,4.501,4.616,4.6862,4.7106,4.813,4.8673,4.8547,4.8308,4.8678,4.9709,4.9922,5.0373,5.1017,5.0733,4.9807,4.8346,4.7366,4.6124,4.4768,4.4617,4.4343,4.3988,4.3988,4.3988,4.3988,4.4205,4.4281,4.4281,4.4281,4.4281,4.4205,4.3957,4.3536,4.319,4.3394,4.314,4.2951,4.3314,4.3488,4.3581,4.3581,4.3085,4.268,4.268,4.1671,4.0618,4.0529,4.0019,3.9481,3.9424,3.9424,3.9337,3.9104,3.8797,3.8575,3.8501,3.8797,3.887,3.8501,3.8113,3.7644,3.7014,3.6244,3.5374,3.4305,3.3913,3.3384,3.2566,3.254,3.2201,3.1461,3.1123,3.0529,2.9664,2.9028,2.8498,2.8042,2.8023,2.7833,2.7679,2.8172,2.8287,2.8387,0.0,0.0,3.0766,3.1539,3.2092,3.2893,3.3109,3.3318,3.3899,3.4539,3.5013,3.4887,3.5215,3.5467,3.5467,3.6818,3.7905,3.7905,3.87,3.9478,4.002,3.9614,3.9495,3.9986,4.0713,4.1456,4.2182,4.2888,4.3647,4.4423,4.5857,4.6531,4.6317,4.7475,4.8048,4.7803,4.7404,4.7596,4.8315,4.8806,4.9176,4.9604,4.9564,4.842,4.6374,4.6232,4.5415,4.4266,4.4112,4.3972,4.3817,4.3817,4.3817,4.3847,4.395,4.4089,4.4198,4.4301,4.4361,4.4252,4.3723,4.3138,4.2591,4.2526,4.2304,4.2126,4.2563,4.2915,4.317,4.317,4.2827,4.247,4.247,4.1605,4.0785,4.0785,4.0129,3.9548,3.9548,3.9384,3.9104,3.8797,3.8352,3.7962,3.7582,3.7872,3.7933,3.7567,3.7183,3.6702,3.583,3.5535,3.513,3.4513,3.4109,3.3626,3.271,3.2603,3.2107,3.1128,3.0703,3.0059,2.9118,2.8419,2.795,2.7731,2.7902,2.7977,2.8,2.8632,2.8919,0.0,0.0,3.0748,3.2958,3.3429,3.3665,3.4924,3.4372,3.3741,3.4331,3.4258,3.4019,3.3887,3.432,3.4669,3.4566,3.6434,3.7905,3.7905,3.914,4.0054,4.007,4.0054,4.0003,0.0,4.0557,4.1281,4.2038,4.2668,4.331,4.4064,4.5487,4.6135,4.5732,4.6766,4.7188,4.6811,4.6221,4.6343,4.7028,4.7521,4.7946,4.8262,4.7456,4.61,4.4428,4.4347,4.3958,4.3329,4.3329,4.3329,4.3329,4.3329,4.3329,4.3419,4.3819,4.4287,4.4685,4.5005,4.5147,4.4959,4.3725,4.2989,4.2437,4.1566,4.138,4.1463,4.1908,4.2333,4.2688,4.2688,4.2673,4.2659,4.2659,4.2158,4.1671,4.1671,4.0669,3.977,3.977,3.9239,3.8634,3.8037,3.7734,3.7414,3.6822,3.6559,3.6452,3.6624,3.5924,3.5223,3.4564,3.4481,3.4397,3.4371,3.4204,3.3882,3.3433,3.3164,3.2322,3.0799,3.0526,2.9709,2.8271,2.803,2.7719,2.7231,2.7736,2.7977,2.8,2.901,2.9481,2.9978,0.0,3.21,3.3789,3.479,3.5444,3.567,3.5489,3.514,3.4713,3.398,3.3389,3.3322,3.3119,3.3229,3.4135,3.5765,3.7076,3.758,3.8488,3.9295,3.9765,3.9396,0.0,0.0,0.0,0.0,4.1858,4.2138,4.2752,4.3839,4.5153,4.5669,4.5193,4.6134,4.6464,4.604,4.5447,4.5262,4.5587,4.6392,4.6991,4.7359,4.7418,4.6725,4.5618,4.517,4.4586,4.3943,4.3334,4.3343,4.376,4.3612,4.3782,4.4211,4.4266,4.4298,4.4254,4.4151,4.3705,4.3197,4.2661,4.1793,4.0886,4.0794,4.0346,3.9986,4.0504,4.0944,4.1296,4.1296,4.1296,4.1296,4.1296,4.081,4.0271,4.0271,3.9382,3.8496,3.8496,3.7967,3.7448,3.7092,3.6624,3.6056,3.5291,3.5615,3.5857,3.5777,3.5304,3.4839,3.4481,3.4397,3.4314,3.4243,3.3823,3.3318,3.2503,3.2054,3.1222,2.9803,2.9438,2.888,2.8054,2.7638,2.7394,2.7231,2.7546,2.7787,2.8042,2.8532,2.8835,3.1561,3.2657,3.3528,3.4893,3.5749,3.6167,3.5814,3.5648,3.5173,3.3718,3.2824,3.2152,3.1633,3.1566,3.2001,3.3242,3.5119,3.6678,3.7384,3.8355,3.9158,3.9575,3.9156,3.8935,0.0,0.0,0.0,4.1727,4.1738,4.2242,4.3512,4.4459,4.482,4.4425,4.4999,4.5227,4.5126,4.4526,4.4419,4.4664,4.5251,4.6001,4.6743,4.6996,4.6796,4.6307,4.5858,4.514,4.4302,4.3864,4.3649,4.3593,4.3591,4.3658,4.3777,4.391,4.3687,4.328,4.3579,4.3328,4.2711,4.215,4.1374,4.0572,4.0475,4.011,3.9717,3.9946,4.0332,4.0639,4.043,4.0374,4.0374,4.0374,4.0067,3.9702,3.9702,3.8992,3.8184,3.8184,3.7596,3.693,3.664,3.5899,3.5127,3.4397,3.4729,3.5141,3.5059,3.4825,3.4577,3.4397,3.4314,3.4069,3.3611,3.3166,3.2334,3.1185,3.0822,3.0013,2.8893,2.8621,2.8222,2.765,2.7313,2.7231,2.7231,2.7379,2.7509,2.75,2.7809,2.7995,3.3277,3.4211,3.5023,3.6299,3.6292,3.5872,3.5461,3.4964,3.3863,3.1516,3.0834,3.0269,0.0,0.0,3.0989,3.1842,3.4387,3.6547,3.7367,3.8723,3.9592,0.0,0.0,0.0,0.0,0.0,0.0,4.1531,0.0,4.1915,4.297,4.3441,4.3634,4.3573,4.3552,4.3669,4.3972,4.3503,4.3643,4.4272,4.4302,4.5005,4.6192,4.6222,4.6252,4.6282,4.6252,4.552,4.4385,4.4733,4.4097,4.2924,4.3286,4.2988,4.2418,4.2892,4.2543,4.2032,4.3393,4.3695,4.3313,4.2277,4.1788,4.1381,4.0547,4.0428,4.0442,4.0167,4.0341,4.055,4.0101,3.9936,3.9908,3.9908,3.9908,3.9908,3.9908,3.9326,3.8886,3.8886,3.7909,3.7003,3.6564,3.5528,3.459,3.416,3.4076,3.416,3.4314,3.4397,3.4397,3.4397,3.4134,3.3637,3.2644,3.2068,3.116,2.9809,2.9435,2.8873,2.7966,2.7859,2.763,2.7161,2.7149,2.7149,2.7149,2.7178,2.6978,2.6519,2.6997,2.6978,3.4594,3.5679,3.6366,3.6987,3.6368,3.5545,3.5115,3.3744,3.2043,3.0346,2.9048,2.8106,0.0,0.0,0.0,3.1323,3.325,0.0,3.6937,3.8,0.0,3.8974,0.0,3.8602,3.8792,3.8738,0.0,0.0,4.118,4.1723,4.2301,4.3195,4.34,4.3027,4.3545,4.3883,4.3754,4.3423,4.3419,4.3584,4.393,4.4519,4.5337,4.5643,4.6046,4.6504,4.6016,4.5602,4.5191,4.4239,4.3834,4.377,4.3314,4.3194,4.3225,4.2931,4.2602,4.2339,4.2306,4.2079,4.1868,4.1525,4.1169,4.0676,4.0434,4.0106,3.9846,3.9783,3.9507,3.9217,3.9071,3.8726,3.8434,3.8434,3.8434,3.8434,3.8434,3.7944,3.752,3.752,3.6578,3.5637,3.502,3.4585,3.416,3.3654,3.3386,3.3471,3.3797,3.3894,3.3894,3.3894,3.3173,3.2604,3.2118,3.0785,2.9581,2.8498,2.7895,2.7256,2.644,2.6417,2.6362,2.6229,2.6229,2.6229,2.6229,2.591,2.5626,2.5553,2.5601,2.5583,3.5403,3.6449,3.6934,3.6673,3.5915,3.4927,3.3584,3.1991,3.0285,2.845,2.6813,0.0,0.0,0.0,0.0,0.0,0.0,0.0,3.6057,3.7206,3.7948,0.0,3.8084,0.0,3.8349,3.8419,3.8855,0.0,4.0626,4.1326,4.2018,4.2401,4.2683,4.2809,4.3138,4.3374,4.3503,4.3344,4.3329,4.3344,4.3462,4.3737,4.4122,4.4513,4.488,4.5208,0.0,4.4859,4.451,4.3963,4.342,4.3046,4.2885,4.274,4.2555,4.2262,4.2079,4.1881,4.1597,4.1411,4.1311,4.1311,4.1089,4.0814,4.0814,4.0592,4.0305,4.0043,3.9547,3.9037,3.8776,3.8305,3.79,3.79,3.79,3.79,3.79,3.7639,3.7246,3.6622,3.5921,3.5219,3.4289,3.381,3.3471,3.3142,3.2785,3.2599,3.2772,3.3018,3.3016,3.2777,3.2222,3.1499,3.0685,2.9522,2.8295,2.711,2.6521,2.5903,2.5295,2.5285,2.5285,2.5285,2.5285,2.5285,2.5285,2.484,2.445,2.428,2.4384,2.4355,3.5882,3.671,3.6932,3.5832,3.5111,3.4007,3.1574,2.99,2.8274,2.6079,0.0,2.3275,2.339,2.3962,2.5118,2.7473,0.0,3.2544,3.4688,3.6173,3.7166,3.753,3.7413,3.7416,3.784,3.8219,3.8698,3.9465,3.9987,4.0716,4.1821,4.1595,4.1928,4.294,4.2632,4.2682,4.325,4.317,4.317,4.317,4.2915,4.2834,4.2878,4.3185,4.3347,4.3385,4.3953,4.3924,4.337,4.3621,4.3052,4.1896,4.2242,4.198,4.1311,4.1311,4.1311,4.1311,4.1311,4.1311,4.1211,4.1311,4.1311,4.1311,4.1311,4.1311,4.1206,4.0684,4.0082,3.9494,3.8972,3.837,3.79,3.79,3.79,3.79,3.79,3.79,3.7456,3.6004,3.5683,3.5221,3.3734,3.3116,3.2785,3.2537,3.2176,3.1725,3.1572,3.1889,3.1944,3.1504,3.1028,3.0253,2.8858,2.8041,2.7049,2.5684,2.5263,2.4765,2.4327,2.4327,2.4241,2.4231,2.4145,2.4145,2.4145,2.3764,2.3359,2.294,2.3249,2.3194,3.6112,3.6556,3.629,3.5201,3.384,3.2286,3.0381,2.7773,0.0,0.0,2.1842,2.0876,2.1408,2.2133,2.3522,2.6165,0.0,0.0,0.0,0.0,3.5628,0.0,0.0,0.0,0.0,0.0,0.0,0.0,0.0,4.0117,4.1306,4.1672,4.2213,4.3184,4.2991,4.2892,4.2769,4.2622,4.2555,4.2555,4.1966,4.1949,4.2382,4.2382,4.2538,4.2861,4.3499,0.0,4.3543,4.3163,4.2751,4.2269,4.1927,4.1597,4.1311,4.1311,4.1311,4.1311,4.1311,4.1097,4.0997,4.1211,4.1311,4.1311,4.1311,4.1311,4.1298,4.1193,4.0409,3.9586,3.9481,3.8684,3.79,3.79,3.79,3.79,3.79,3.7703,3.7077,3.5545,3.5047,3.4413,3.2847,3.2326,3.1989,3.1649,3.1294,3.0937,3.0487,3.1026,3.1168,3.0533,2.9491,2.8563,2.7702,2.6444,2.5444,2.4754,2.4337,2.3831,2.3396,2.3135,2.295,2.2746,2.2561,2.2385,2.2217,2.2215,2.2117,2.176,2.2283,2.2364,3.5246,3.5685,3.5574,3.415,3.2883,3.1282,2.8843,0.0,0.0,0.0,2.0096,1.8896,1.9577,0.0,0.0,0.0,0.0,0.0,0.0,0.0,0.0,0.0,0.0,0.0,0.0,0.0,0.0,0.0,0.0,3.9989,4.1276,4.2138,4.2827,4.314,4.282,4.2415,4.199,4.1757,4.1506,4.1296,4.0986,4.0728,4.0498,4.0973,4.0991,4.0733,4.1555,4.1954,4.1954,4.1868,4.1756,4.1657,4.1498,4.1411,4.1311,4.1311,4.1311,4.1311,4.1097,4.0795,4.0478,4.0465,4.0681,4.0909,4.0909,4.0702,4.0469,4.0469,3.9654,3.8774,3.8774,3.8139,3.7505,3.7505,3.7505,3.7505,3.7505,3.7201,3.6485,3.4992,3.4313,3.3411,3.187,3.1158,3.0722,3.0385,3.0023,2.9646,2.9474,2.9463,2.9353,2.8763,2.7943,2.6977,2.5979,2.5186,2.46,2.4152,2.3841,2.3422,2.2674,2.2404,2.1933,2.1329,2.1075,2.0807,2.044,2.0636,2.0727,2.0554,2.0997,2.1156,3.3886,3.441,3.4375,3.2929,3.1785,3.0311,2.7339,2.472,0.0,0.0,1.8607,1.7235,1.7974,0.0,0.0,0.0,0.0,0.0,0.0,0.0,0.0,0.0,0.0,0.0,0.0,0.0,0.0,0.0,0.0,0.0,4.1158,4.2321,4.2862,4.2739,4.2252,4.1645,4.1029,4.0717,4.0446,4.0045,3.9927,3.9516,3.8845,3.9535,3.9364,3.8672,3.9697,4.0132,4.0145,4.0462,4.0601,4.0601,4.0945,4.101,4.0909,4.0909,4.0909,4.0909,4.0681,4.016,3.9647,3.9299,3.9634,4.016,4.0045,3.9702,3.9321,3.9206,3.8456,3.7693,3.7693,3.726,3.6828,3.6828,3.6828,3.6828,3.6828,3.6339,3.5575,3.4329,3.3312,3.2272,3.0694,2.9897,2.936,2.9002,2.862,2.8341,2.8341,2.7977,2.7471,2.6986,2.6542,2.5757,2.4405,2.4148,2.3896,2.3353,2.3288,2.2861,2.2086,2.1622,2.1009,2.0222,1.9956,1.9526,1.8946,1.9287,1.9458,1.9465,1.9906,2.0062,3.2403,3.276,3.2475,3.167,3.0379,2.8674,2.6183,0.0,0.0,1.8921,1.712,1.6038,1.6652,1.6908,0.0,0.0,0.0,0.0,0.0,0.0,0.0,0.0,0.0,0.0,0.0,0.0,0.0,0.0,0.0,0.0,4.0728,4.1263,4.1668,4.184,4.1339,4.0802,4.0073,3.9678,3.9428,3.9326,3.8729,3.8445,3.8535,3.8462,3.8316,3.8095,3.8684,3.8941,0.0,3.9616,3.961,3.9435,3.9969,4.0083,3.9903,3.9903,3.9903,3.9788,3.944,3.9013,3.8465,3.8161,3.8477,3.8914,3.8419,3.8234,3.8086,3.7592,3.7023,3.6578,3.6578,3.617,3.5763,3.5763,3.5763,3.5763,3.5763,3.5083,3.4287,3.3251,3.2008,3.0754,2.9183,2.8445,2.7977,2.7474,2.7379,2.7379,2.7379,2.6924,2.6265,2.5397,2.5451,2.4972,2.3734,2.3187,2.2738,2.2173,2.1933,2.1752,2.1432,2.0971,2.0385,1.9846,1.931,1.8837,1.824,1.867,1.8831,1.8831,1.917,1.9435,3.0707,3.1531,3.1876,3.0616,2.9211,2.7397,2.4585,0.0,1.9514,1.7792,1.6473,1.564,1.5846,1.62,1.6998,0.0,2.0406,2.2497,2.4927,0.0,0.0,0.0,0.0,0.0,0.0,0.0,0.0,0.0,0.0,0.0,3.8601,3.9729,4.0219,3.9943,3.9806,3.9387,3.8689,3.8368,3.8004,3.7717,3.7559,3.7466,3.7453,3.7767,3.7763,3.7526,3.8057,3.8298,0.0,3.8662,3.8329,3.7791,3.8026,3.7796,3.7248,3.7248,3.7248,3.7146,3.6848,3.6434,3.5911,3.5619,3.5525,3.5548,3.6716,3.6609,3.6045,3.5829,3.5497,3.5198,3.5198,3.5041,3.4872,3.4678,3.4483,3.429,3.3788,3.3262,3.2491,3.1515,3.0454,2.9314,2.7967,2.7231,2.6648,2.5945,2.5654,2.5548,2.5344,2.5061,2.4622,2.4073,2.4131,2.3718,2.2262,2.197,2.151,2.1014,2.1139,2.1065,2.0737,2.0253,1.9574,1.8875,1.8474,1.8074,1.7576,1.7881,1.8026,1.8033,1.8157,1.8325,2.8618,2.9766,3.0445,2.9311,2.7865,2.6078,0.0,2.0876,1.8694,1.7105,1.6054,1.5403,1.5299,1.5601,1.6261,1.751,1.9031,2.0979,2.3636,0.0,0.0,0.0,0.0,0.0,0.0,0.0,0.0,0.0,0.0,0.0,3.6348,3.7494,3.8205,3.8288,3.8282,3.8066,3.7638,3.7294,3.7028,3.6628,3.664,3.664,3.6546,3.6867,3.696,3.678,3.7167,3.733,0.0,3.7307,3.6948,3.6211,3.6278,3.5805,3.5154,3.5154,3.5154,3.505,3.4774,3.4368,3.396,3.3676,3.3057,3.2801,3.4408,3.4532,3.4026,3.3977,3.3977,3.4017,3.4017,3.3906,3.3685,3.3388,3.2864,3.225,3.1593,3.091,3.0231,2.9565,2.8668,2.772,2.69,2.6081,2.5206,2.4304,2.3899,2.3592,2.3185,2.2994,2.2793,2.261,2.2559,2.2094,2.1251,2.0974,2.062,2.0008,2.024,2.0271,2.0016,1.9502,1.8992,1.8275,1.7981,1.7585,1.7178,1.7272,1.7371,1.7483,1.7371,1.7417,2.6046,2.7082,2.7696,2.7474,2.6238,2.4586,0.0,2.0528,1.8365,1.684,1.5857,1.5238,1.5043,1.4904,1.5216,1.6417,1.7177,1.8708,2.1897,0.0,0.0,0.0,0.0,0.0,0.0,0.0,0.0,0.0,0.0,0.0,3.4494,3.4547,3.5473,3.7404,3.7151,3.7066,3.7108,3.664,3.6452,3.6358,3.5895,3.58,3.5966,3.5716,3.562,3.562,3.5633,3.5633,0.0,3.5672,3.5282,3.4816,3.4819,3.4496,3.3982,3.3982,3.3982,3.3982,3.3676,3.3369,3.3071,3.2749,3.2009,3.1105,3.1105,3.172,3.2334,3.2057,3.2454,3.2992,3.3281,3.2846,3.2308,3.1779,3.0697,2.9625,2.9095,2.8005,2.7296,2.759,2.6845,2.6061,2.579,2.4815,2.3728,2.2728,2.2106,2.1591,2.0987,2.0885,2.0885,2.0885,2.0483,2.038,2.0877,2.0372,1.9872,1.9368,1.9272,1.9272,1.9272,1.9042,1.8722,1.8415,1.7891,1.7477,1.7173,1.6842,1.6842,1.7179,1.6842,1.6889,2.3967,2.5021,2.5527,2.4773,2.3406,2.175,2.0044,1.8214,1.6594,1.5593,1.5153,1.4887,1.4704,1.456,1.4845,1.6052,1.6812,0.0,0.0,0.0,0.0,0.0,0.0,0.0,0.0,0.0,0.0,0.0,0.0,0.0,3.3979,3.3734,3.402,3.5008,3.5685,3.5986,3.5991,3.61,3.5883,3.5271,3.4981,3.4495,3.4091,3.4005,3.4005,3.4005,3.4005,3.4005,3.3918,3.3772,3.3229,3.2633,3.238,3.1951,3.1242,3.1242,3.1242,3.1242,3.1148,3.1043,3.0948,3.062,3.0083,2.9439,2.9236,2.9874,3.0789,3.1137,3.1311,3.1516,3.2037,3.1618,3.0803,2.994,2.8931,2.7732,2.641,2.567,2.5205,2.5013,2.4557,2.4187,2.4115,2.3203,2.2198,2.1497,2.079,2.0181,1.9879,1.9783,1.9783,1.9783,1.9257,1.9138,1.9642,1.9242,1.8736,1.822,1.8115,1.8115,1.8115,1.8003,1.7891,1.7898,1.7483,1.6955,1.6299,1.6418,1.6631,1.6819,1.647,1.6496,0.0,2.2247,2.2762,2.2018,2.0775,1.9368,1.8019,1.6655,1.5497,1.4826,1.4651,1.4543,1.4342,1.4163,1.448,1.5694,1.6416,0.0,0.0,0.0,0.0,0.0,0.0,0.0,0.0,0.0,0.0,0.0,0.0,0.0,3.3471,3.3154,3.2959,3.3032,3.4289,3.5064,3.5264,3.5338,3.5114,3.4483,3.3993,3.3499,3.2912,3.2912,3.2912,3.2912,3.2912,3.2912,0.0,3.251,3.1902,3.1278,3.0888,3.0276,2.9669,2.9669,2.9669,2.9669,2.9669,2.9669,2.9564,2.9237,2.8591,2.8057,2.7745,2.8378,2.9227,2.9733,2.9922,3.0026,3.0535,3.0005,2.9197,2.8271,2.7023,2.5515,2.3976,2.3245,2.2664,2.2215,2.2064,2.1971,2.2089,2.1371,2.0562,2.0048,1.9346,1.8736,1.8318,1.8318,1.8318,1.8318,1.7898,1.7674,1.7759,1.7891,1.7793,1.7259,1.7259,1.7259,1.7259,1.7259,1.7259,1.7259,1.6844,1.6359,1.5689,1.5916,1.6053,1.5993,1.6075,1.6072,0.0,1.8946,1.9672,1.9265,1.8433,1.7419,1.6543,1.5703,0.0,1.4363,1.4222,1.4189,1.4,1.3841,1.4111,1.5319,1.6036,0.0,0.0,0.0,0.0,0.0,0.0,0.0,0.0,0.0,0.0,0.0,0.0,0.0,3.3081,3.2723,3.2264,3.1536,3.3022,3.401,3.4548,3.4341,3.4115,3.3796,3.3101,3.2488,3.2162,3.2196,3.2196,0.0,3.2196,3.2207,3.2218,3.1721,3.1105,3.0578,3.0088,2.9564,2.9016,2.9016,2.9016,2.9016,2.9016,2.9016,2.891,2.8242,2.759,2.6825,2.6472,2.7032,2.7716,2.8019,2.8193,2.8463,2.8655,2.8032,2.7311,2.6655,2.4923,2.3152,2.198,2.0804,1.9864,1.9531,1.9524,1.9524,1.9826,1.9428,1.8916,1.8394,1.7884,1.7265,1.673,1.6624,1.6624,1.6624,1.6318,1.5891,1.5339,1.6418,1.6849,1.6518,1.6518,1.6518,1.6518,1.6537,1.6543,1.6543,1.5958,1.5435,1.5209,1.5434,1.5219,1.4794,1.5576,1.5462,1.411,0.0,1.7949,1.7155,1.6569,1.5982,0.0,1.4419,1.3872,0.0,0.0,1.3648,1.3547,1.3734,1.4322,1.5488,1.6135,0.0,0.0,0.0,0.0,0.0,0.0,0.0,0.0,0.0,0.0,0.0,0.0,3.2562,3.2562,3.1925,3.1472,3.108,3.1274,3.1763,3.244,3.2961,3.2801,3.2185,3.179,3.0992,3.0071,3.044,3.0409,3.0081,3.0451,3.0599,3.0495,3.0183,2.9743,2.9112,2.8814,2.8378,2.7824,2.7824,2.7824,2.7824,2.7824,2.7824,2.7659,2.6491,2.5863,2.538,2.4569,2.5416,2.6518,2.6626,2.627,2.5907,2.5986,2.5376,2.4499,2.3904,2.2674,2.1338,2.0119,1.9294,1.8729,1.8401,1.8401,1.8506,1.8722,1.8304,1.7891,1.7786,1.716,1.653,1.6099,1.5879,1.5666,1.5441,1.5024,1.46,1.4487,1.5125,1.5334,1.4781,1.4674,1.4674,1.4674,1.4864,1.4965,1.4965,1.409,1.3768,1.3891,1.37,1.3814,1.3993,1.3917,1.3795,1.2589,1.4206,1.5665,1.5074,1.48,1.4486,1.3772,0.0,0.0,0.0,0.0,0.0,1.3059,0.0,0.0,0.0,1.6286,0.0,0.0,0.0,0.0,0.0,0.0,0.0,0.0,0.0,0.0,0.0,0.0,3.1101,3.1101,3.0796,3.0362,2.9897,2.984,3.0231,3.1069,3.1454,3.1351,3.0741,3.0338,2.9705,2.8777,2.9034,2.9127,2.8911,2.9156,2.938,2.9564,2.9132,2.8698,2.8262,2.7853,2.7413,2.707,2.707,2.707,2.6961,2.6844,2.64,2.5791,2.4867,2.4205,2.382,2.3153,2.3402,2.3905,2.4122,2.3753,2.327,2.3029,2.2437,2.1917,2.1522,2.0647,1.9552,1.8653,1.7989,1.747,1.7147,1.7047,1.7047,1.7259,1.7047,1.6842,1.6842,1.6211,1.5571,1.5137,1.4696,1.4369,1.3819,1.3398,1.3073,1.2748,1.296,1.3285,1.3712,1.3712,1.3764,1.3873,1.3999,1.3943,1.3922,1.3241,1.3003,1.311,1.3101,1.3161,1.3272,1.3272,1.3095,1.1983,1.2771,1.3459,1.3424,1.3471,1.3418,1.2768,0.0,0.0,0.0,0.0,0.0,0.0,0.0,0.0,0.0,0.0,0.0,0.0,0.0,0.0,0.0,0.0,0.0,0.0,0.0,0.0,0.0,0.0,2.9297,2.9297,2.9421,2.9248,2.8522,2.8696,2.904,2.9725,2.9915,2.9894,2.9599,2.9094,2.8556,2.7994,2.8066,2.8066,2.8071,0.0,0.0,2.8714,2.8262,2.7843,2.7501,2.698,2.6663,2.6336,2.6336,2.6336,2.6209,2.5691,2.4786,2.3834,2.3075,2.2517,2.2033,2.1687,2.1248,2.081,2.1232,2.1056,2.0677,2.0236,1.9772,1.9411,1.9411,1.8787,1.7975,1.7477,1.6842,1.6311,1.5779,1.5678,1.5678,1.5678,1.5678,1.5678,1.5678,1.5143,1.4498,1.3954,1.3403,1.2856,1.22,1.1878,1.1559,1.1042,1.0729,1.1287,1.2736,1.2816,1.2913,1.3165,1.3175,1.3131,1.3053,1.2822,1.2671,1.2603,1.2844,1.2844,1.2603,1.2844,1.2724,1.0747,1.1591,1.2531,1.3227,1.3655,1.3776,0.0,0.0,0.0,0.0,0.0,0.0,0.0,0.0,0.0,0.0,0.0,0.0,0.0,0.0,0.0,0.0,0.0,0.0,0.0,0.0,0.0,0.0,0.0,2.8271,2.8271,2.831,2.8123,2.7575,2.7578,2.745,2.7068,2.8292,2.8817,2.8807,2.8497,2.7893,2.7063,2.7231,2.6816,2.6059,0.0,2.7132,2.7122,2.7163,2.6871,2.63,2.5999,2.5578,2.5034,2.5034,2.5034,2.4872,2.3533,2.2648,2.1883,2.0687,2.027,2.0111,1.9792,1.9269,1.8745,1.8337,1.8751,1.917,1.8631,1.8183,1.7959,1.7959,1.7391,1.6836,1.6311,1.5678,1.5143,1.46,1.4487,1.4487,1.4487,1.4487,1.4487,1.4487,1.3959,1.331,1.2762,1.2219,1.1673,1.1017,1.0688,1.0532,1.0571,1.025,1.0307,1.0788,1.0549,1.0725,1.1399,1.1411,1.163,1.1964,1.1972,1.1985,1.1893,1.2014,1.2014,1.1893,1.2014,1.2014,1.0094,1.1012,1.1964,1.2777,1.3422,1.3741,1.3442,0.0,0.0,0.0,0.0,0.0,0.0,0.0,0.0,0.0,0.0,0.0,0.0,0.0,0.0,0.0,0.0,0.0,0.0,0.0,0.0,0.0,0.0,0.0,2.6573,2.6679,2.6585,2.6259,2.6202,2.5948,2.5596,2.6271,2.6873,2.7492,2.708,2.6576,2.5996,2.5804,2.5509,2.5153,0.0,2.5503,2.561,2.5156,2.4799,2.4386,2.4073,2.3836,2.3538,2.3735,2.3576,2.3191,2.2038,2.1256,2.0485,1.9283,1.8863,1.8807,1.8499,1.7982,1.7351,1.6836,1.7145,1.7569,1.7034,1.6832,1.663,1.663,1.6205,1.5672,1.5137,1.4487,1.3948,1.329,1.3181,1.3181,1.3181,1.3181,1.3181,1.3181,1.2753,1.2209,1.1555,1.1017,1.0363,0.9816,0.9672,0.9752,0.9829,0.9688,0.9882,1.0297,1.0319,1.0398,1.0665,1.0994,1.1319,1.1522,1.1651,1.1776,1.1776,1.1776,1.1776,1.1776,1.1776,1.1825,0.9478,1.0337,1.1227,1.2079,0.0,1.3573,1.3573,0.0,0.0,0.0,0.0,0.0,0.0,0.0,0.0,0.0,0.0,0.0,0.0,0.0,0.0,0.0,0.0,0.0,0.0,0.0,0.0,0.0,0.0,0.0,2.4892,2.5056,2.5087,2.4933,2.4857,2.4737,2.4557,2.4651,2.5099,2.61,2.5606,2.5206,2.4903,2.4421,2.4199,2.4298,2.3981,2.3876,2.3835,2.3068,2.256,2.2272,2.2134,2.2025,2.2057,2.2323,2.1976,2.1361,2.047,1.9807,1.9063,1.7981,1.76,1.7554,1.7225,1.673,1.6205,1.5672,1.5666,1.5873,1.5565,1.5458,1.5458,1.5458,1.5035,1.4498,1.3954,1.3295,1.2753,1.2096,1.1987,1.1987,1.1987,1.1987,1.1987,1.1987,1.1551,1.1114,1.0566,1.0059,0.9539,0.8988,0.912,0.9222,0.9256,0.9398,0.9717,1.0182,1.0266,1.0332,1.0487,1.0846,1.1152,1.1152,1.1402,1.1651,1.1651,1.1651,1.1772,1.1776,1.1817,1.1906,0.8646,0.9175,0.982,1.1027,0.0,0.0,1.3906,0.0,0.0,0.0,0.0,0.0,0.0,0.0,0.0,0.0,0.0,0.0,0.0,0.0,0.0,0.0,0.0,0.0,0.0,0.0,0.0,0.0,0.0,0.0,2.3891,2.3959,2.3848,2.3505,2.389,2.3923,2.3662,2.3735,2.4214,2.4992,2.4716,2.4332,2.3827,2.3529,2.3155,2.2705,2.2551,2.219,2.1699,2.1485,2.107,2.0629,2.055,2.0557,2.0557,2.0587,2.0157,1.9449,1.8598,1.7853,1.7271,1.6334,1.6022,1.6022,1.5998,1.5571,1.5035,1.4493,1.3943,1.3614,1.4164,1.4272,1.4272,1.4272,1.3851,1.3315,1.2659,1.211,1.1564,1.0911,1.0798,1.0798,1.0798,1.0798,1.0798,1.0798,1.0582,1.0257,0.9923,0.972,0.9472,0.925,0.9273,0.9422,0.9564,0.9707,0.9788,0.9788,0.9676,0.9905,1.0283,1.0301,1.0547,1.0789,1.091,1.1031,1.1394,1.1394,1.1522,1.178,1.1939,1.2016,0.8394,0.9041,0.9783,1.0652,0.0,0.0,0.0,0.0,0.0,0.0,0.0,0.0,0.0,0.0,0.0,0.0,0.0,0.0,0.0,0.0,0.0,0.0,0.0,0.0,0.0,0.0,0.0,0.0,0.0,0.0,2.294,2.283,2.2692,2.2492,2.2528,2.2434,2.2188,2.1959,2.1824,2.1782,2.2585,2.282,2.24,2.2021,2.1725,2.1538,2.1155,2.0581,2.0053,1.9663,1.9184,1.8673,1.8867,1.9055,1.9222,1.9222,1.8892,1.8189,1.7354,1.6605,1.6023,1.511,1.4815,1.4815,1.4815,1.4385,1.3851,1.3197,1.2654,1.2323,1.2965,1.3073,1.3073,1.3073,1.2639,1.21,1.1442,1.0903,1.0253,0.9706,0.9596,0.9596,0.9596,0.9596,0.9596,0.9596,0.9485,0.9379,0.9268,0.9286,0.9264,0.9267,0.9374,0.9581,0.973,0.9791,0.9822,0.9822,0.9771,0.9764,0.994,1.0183,1.0304,1.0547,1.0668,1.091,1.1031,1.1152,1.1453,1.1567,1.1876,1.215,0.8317,0.8864,0.9502,0.0,0.0,0.0,0.0,0.0,0.0,0.0,0.0,0.0,0.0,0.0,0.0,0.0,0.0,0.0,0.0,0.0,0.0,0.0,0.0,0.0,0.0,0.0,0.0,0.0,0.0,0.0,0.0,2.1418,2.1284,2.1103,2.0965,2.0874,2.0749,2.0401,1.9957,1.9455,2.034,2.0828,2.0812,2.0538,2.0388,2.0285,1.9761,1.9235,1.861,1.8101,1.7582,1.7073,1.7274,1.7469,1.7637,1.7637,1.7308,1.6735,1.6005,1.5287,1.4713,1.3888,1.3619,1.3619,1.3619,1.3192,1.2654,1.1996,1.1455,1.1017,1.1223,1.1551,1.1878,1.1878,1.1551,1.1008,1.057,1.0029,0.9485,0.9047,0.894,0.8954,0.8998,0.9008,0.9008,0.9008,0.9045,0.9062,0.9011,0.9178,0.9313,0.9357,0.9551,0.9717,0.969,0.97,0.9579,0.9579,0.9457,0.9579,0.9822,1.0065,1.0183,1.0183,1.0425,1.0572,1.0745,1.0989,1.1199,1.1619,1.192,1.2202,0.8385,0.8488,0.0,0.0,0.0,0.0,0.0,0.0,0.0,0.0,0.0,0.0,0.0,0.0,0.0,0.0,0.0,0.0,0.0,0.0,0.0,0.0,0.0,0.0,0.0,0.0,0.0,0.0,0.0,0.0,0.0,1.9704,1.9438,1.9438,1.9418,1.9423,1.9423,1.9291,1.8867,1.8375,1.811,1.8259,1.8767,1.9081,1.9228,1.9124,1.8596,1.8087,1.7582,1.6942,1.6418,1.5891,1.5885,1.5885,1.5885,1.5885,1.5464,1.4928,1.4385,1.3835,1.3181,1.2635,1.2413,1.2413,1.2413,1.1982,1.1437,1.0891,1.0245,0.9706,0.9047,0.9816,1.0692,1.0692,1.0472,1.0147,0.9816,0.9596,0.9268,0.894,0.894,0.8984,0.9127,0.9154,0.9154,0.9154,0.9286,0.9327,0.9174,0.9422,0.9663,0.9805,0.9822,0.97,0.9335,0.9335,0.9217,0.8854,0.8854,0.9095,0.9822,0.9822,0.9822,0.9822,0.9822,1.0019,1.0543,1.0546,1.0878,1.1806,1.1966,1.2173,0.7617,0.0,0.0,0.0,0.0,0.0,0.0,0.0,0.0,0.0,0.0,0.0,0.0,0.0,0.0,0.0,0.0,0.0,0.0,0.0,0.0,0.0,0.0,0.0,0.0,0.0,0.0,0.0,0.0,0.0,0.0,1.8033,1.7948,1.7948,1.7953,1.7912,1.7912,1.756,1.7127,1.6546,1.6587,1.6947,1.7661,1.7963,1.8094,1.8101,1.7687,1.7371,1.6836,1.5885,1.5351,1.4928,1.4815,1.4708,1.4708,1.4708,1.4277,1.3743,1.3093,1.2545,1.1996,1.145,1.1232,1.1232,1.1232,1.1013,1.0578,1.0139,0.9812,0.9379,0.9047,0.9158,0.9485,0.9485,0.9379,0.9268,0.9158,0.9158,0.9051,0.894,0.9022,0.9103,0.9147,0.9242,0.9313,0.9313,0.9351,0.9405,0.9466,0.9554,0.9663,0.9805,0.9822,0.97,0.9335,0.8717,0.823,0.7867,0.7126,0.7495,0.9095,0.9217,0.9217,0.9217,0.9192,0.9262,0.943,0.9774,1.0149,1.0558,1.0729,1.1069,0.7371,0.0,0.0,0.0,0.0,0.0,0.0,0.0,0.0,0.0,0.0,0.0,0.0,0.0,0.0,0.0,0.0,0.0,0.0,0.0,0.0,0.0,0.0,0.0,0.0,0.0,0.0,0.0,0.0,0.0,1.6749,1.6749,1.6749,1.6749,1.6749,1.6749,1.6749,1.6285,1.5913,1.554,1.5522,1.5827,1.6214,1.6716,1.6948,1.6948,1.6743,1.6424,1.5992,1.503,1.4493,1.4056,1.3619,1.3511,1.3511,1.3511,1.3078,1.254,1.1882,1.1341,1.0802,1.0147,1.0036,1.0036,1.0036,0.9926,0.9706,0.9485,0.9379,0.9158,0.8937,0.894,0.894,0.894,0.894,0.894,0.894,0.8984,0.9025,0.9025,0.9144,0.9262,0.9323,0.9412,0.9473,0.9473,0.9352,0.9284,0.9317,0.9336,0.9369,0.9451,0.946,0.9217,0.8604,0.7867,0.725,0.6641,0.5902,0.6025,0.7255,0.7622,0.7742,0.7742,0.7735,0.7817,0.7867,0.8233,0.848,0.8861,0.899,0.9162,0.0,0.0,0.0,0.0,0.0,0.0,0.0,0.0,0.0,0.0,0.0,0.0,0.0,0.0,0.0,0.0,0.0,0.0,0.0,0.0,0.0,0.0,0.0,0.0,0.0,0.0,0.0,0.0,0.0,1.6122,1.5657,1.5563,1.5563,1.5563,1.5582,1.5602,1.5602,1.5425,1.5255,1.4987,1.5064,1.49,1.4745,1.5505,1.5761,1.5785,1.5779,1.5357,1.4821,1.4277,1.3727,1.3073,1.2526,1.22,1.22,1.22,1.1873,1.1437,1.0781,1.0245,0.9706,0.9047,0.894,0.894,0.894,0.894,0.894,0.894,0.894,0.894,0.894,0.894,0.894,0.894,0.894,0.894,0.894,0.9052,0.9154,0.9154,0.9289,0.9445,0.9585,0.9618,0.9629,0.9629,0.9261,0.8948,0.8836,0.8729,0.8607,0.8607,0.8607,0.8241,0.7263,0.6888,0.6276,0.5297,0.4803,0.4681,0.4681,0.541,0.578,0.5788,0.5874,0.5964,0.6054,0.6143,0.6355,0.6829,0.6829,0.696,0.0,0.0,0.0,0.0,0.0,0.0,0.0,0.0,0.0,0.0,0.0,0.0,0.0,0.0,0.0,0.0,0.0,0.0,0.0,0.0,0.0,0.0,0.0,0.0,0.0,0.0,0.0,0.0,1.504,1.4591,1.4049,1.3958,1.3958,1.3958,1.4161,1.4272,1.4272,1.4475,1.449,1.4496,1.468,1.4714,1.4739,1.5106,1.5164,1.4821,1.4708,1.4169,1.364,1.2985,1.2436,1.1891,1.1345,1.1122,1.1122,1.1122,1.0907,1.0472,1.0143,0.9816,0.9379,0.9047,0.894,0.894,0.894,0.894,0.894,0.894,0.894,0.894,0.894,0.894,0.894,0.894,0.894,0.894,0.894,0.9052,0.9154,0.9154,0.9374,0.9571,0.9605,0.97,0.9654,0.9415,0.8678,0.8074,0.7739,0.7004,0.6512,0.6512,0.6512,0.639,0.5904,0.5044,0.4307,0.3819,0.3083,0.2592,0.2592,0.4189,0.5199,0.5136,0.5213,0.529,0.5363,0.5574,0.5622,0.577,0.577,0.577,0.0,0.0,0.0,0.0,0.0,0.0,0.0,0.0,0.0,0.0,0.0,0.0,0.0,0.0,0.0,0.0,0.0,0.0,0.0,0.0,0.0,0.0,0.0,0.0,0.0,0.0,0.0,1.4661,1.4321,1.3966,1.3513,1.3513,1.3513,1.3513,1.3555,1.3588,1.352,1.3561,1.3593,1.3624,1.3768,1.3698,1.3524,1.4207,1.419,1.3795,1.3465,1.297,1.2432,1.1882,1.1232,1.0692,1.0033,0.9816,0.9816,0.9816,0.9706,0.9596,0.9375,0.9268,0.9158,0.894,0.894,0.894,0.894,0.894,0.894,0.894,0.894,0.894,0.894,0.894,0.894,0.894,0.894,0.894,0.894,0.911,0.9262,0.9262,0.9503,0.971,0.971,0.9771,0.97,0.9217,0.823,0.7495,0.7008,0.6025,0.5412,0.5412,0.5412,0.5167,0.4677,0.4063,0.3448,0.2958,0.2345,0.1982,0.1996,0.2991,0.3501,0.3528,0.3606,0.3659,0.3686,0.3871,0.3899,0.3899,0.3899,0.3899,0.0,0.0,0.0,0.0,0.0,0.0,0.0,0.0,0.0,0.0,0.0,0.0,0.0,0.0,0.0,0.0,0.0,0.0,0.0,0.0,0.0,0.0,0.0,0.0,0.0,0.0,1.3924,1.3976,1.3823,1.356,1.3375,1.3375,1.3375,1.3375,1.3152,1.2997,1.2822,1.2725,1.259,1.2501,1.2543,1.2361,1.1954,1.2756,1.299,1.2659,1.2295,1.1842,1.1332,1.0785,1.0245,0.9706,0.9158,0.894,0.894,0.894,0.894,0.894,0.894,0.894,0.894,0.894,0.894,0.894,0.894,0.894,0.894,0.894,0.894,0.894,0.894,0.894,0.894,0.894,0.8826,0.8826,0.8937,0.9171,0.9381,0.9381,0.9618,0.9822,0.9822,0.9822,0.9579,0.8976,0.7867,0.6884,0.6278,0.5172,0.4435,0.4435,0.4435,0.4189,0.3575,0.3328,0.2959,0.2467,0.2104,0.1994,0.2018,0.2029,0.2034,0.2034,0.2084,0.2112,0.2117,0.2142,0.2155,0.2155,0.2155,0.2155,0.0,0.0,0.0,0.0,0.0,0.0,0.0,0.0,0.0,0.0,0.0,0.0,0.0,0.0,0.0,0.0,0.0,0.0,0.0,0.0,0.0,0.0,0.0,0.0,0.0,0.0,1.2857,1.2893,1.2899,1.2813,1.2813,1.2813,1.2813,1.2813,1.261,1.2288,1.1858,1.1905,1.1642,1.1182,1.1376,1.1189,1.0636,1.0457,1.0742,1.1482,1.0975,1.065,1.0472,1.0033,0.9706,0.9379,0.9047,0.894,0.894,0.894,0.894,0.894,0.894,0.894,0.894,0.894,0.894,0.894,0.894,0.894,0.894,0.894,0.894,0.894,0.894,0.894,0.894,0.894,0.8712,0.8598,0.8826,0.9171,0.9381,0.9381,0.9618,0.9822,0.9822,0.9822,0.9579,0.8976,0.725,0.59,0.517,0.3453,0.2346,0.2346,0.2346,0.2346,0.2223,0.2223,0.2223,0.2099,0.1999,0.2015,0.2018,0.2069,0.2097,0.2097,0.2105,0.2122,0.2148,0.2153,0.2155,0.2155,0.2155,0.2155,0.6258,0.7357,0.0,0.0,0.0,0.0,0.0,0.0,0.0,0.0,0.0,0.0,0.0,0.0,0.0,0.0,0.0,0.0,0.0,0.0,0.0,0.0,0.0,0.0,0.0,0.0,1.21,1.1929,1.1929,1.1929,1.1929,1.1929,1.1929,1.1929,1.1609,1.1196,1.0959,1.0615,1.0361,1.0105,1.021,1.0109,0.9719,0.9398,0.9568,1.0028,0.9697,0.95,0.9359,0.934,0.9268,0.9158,0.894,0.894,0.894,0.894,0.894,0.894,0.894,0.894,0.894,0.894,0.894,0.894,0.894,0.894,0.894,0.894,0.894,0.894,0.894,0.894,0.894,0.894,0.8775,0.8492,0.8039,0.8419,0.8842,0.9123,0.9255,0.9339,0.9339,0.9339,0.8973,0.8241,0.6639,0.5287,0.4435,0.2961,0.1977,0.1977,0.1977,0.1977,0.1977,0.1977,0.1983,0.1999,0.2011,0.2034,0.2068,0.2095,0.2117,0.2134,0.2135,0.2142,0.2155,0.2155,0.2155,0.2155,0.2155,0.2163,0.6289,0.7092,0.7782,0.0,0.0,0.0,0.0,0.0,0.0,0.0,0.0,0.0,0.0,0.0,0.0,0.0,0.0,0.0,0.0,0.0,0.0,0.0,0.0,0.0,0.0,1.1552,1.1322,1.0971,1.0971,1.0971,1.0971,1.0971,1.0971,1.0971,1.0458,1.01,0.9812,0.9332,0.8974,0.8909,0.9081,0.9068,0.8875,0.8711,0.8696,0.8831,0.8692,0.8642,0.872,0.8832,0.8903,0.894,0.894,0.894,0.894,0.894,0.894,0.894,0.894,0.894,0.894,0.894,0.8826,0.8826,0.8826,0.8716,0.8716,0.8716,0.8716,0.8716,0.8716,0.8716,0.8725,0.8762,0.8514,0.8031,0.7399,0.7486,0.785,0.8071,0.8113,0.8113,0.8113,0.8113,0.7869,0.7013,0.5782,0.4676,0.3943,0.2715,0.1977,0.1977,0.1983,0.1987,0.1987,0.1994,0.2007,0.2029,0.2037,0.2062,0.2108,0.2116,0.2131,0.2155,0.2155,0.2155,0.2155,0.2155,0.2155,0.2155,0.2155,0.2171,0.5179,0.5924,0.0,0.0,0.0,0.0,0.0,0.0,0.0,0.0,0.0,0.0,0.0,0.0,0.0,0.0,0.0,0.0,0.0,0.0,0.0,0.0,0.0,0.0,0.0,1.0771,1.0458,1.0009,1.0009,1.0009,1.0009,1.0009,1.0009,1.0009,0.9492,0.9065,0.8556,0.7836,0.7543,0.7708,0.7852,0.7918,0.7828,0.7974,0.8041,0.8062,0.8221,0.8452,0.871,0.872,0.8808,0.894,0.894,0.894,0.894,0.894,0.894,0.894,0.894,0.894,0.894,0.894,0.8712,0.8484,0.8484,0.8263,0.8045,0.8045,0.8045,0.8045,0.8045,0.8045,0.8078,0.821,0.7556,0.6929,0.7138,0.6474,0.591,0.6002,0.6018,0.6018,0.6018,0.6018,0.5898,0.5533,0.4674,0.3815,0.3573,0.2591,0.1977,0.1977,0.2001,0.2016,0.2016,0.2043,0.206,0.2061,0.2089,0.2106,0.2109,0.2137,0.2153,0.2155,0.2155,0.2155,0.2155,0.2155,0.2155,0.2155,0.2155,0.2171,0.4732,0.0,0.0,0.0,0.0,0.0,0.0,0.0,0.0,0.0,0.0,0.0,0.0,0.0,0.0,0.0,0.0,0.0,0.0,0.0,0.0,0.0,0.0,0.0,0.0,0.9781,0.9452,0.9056,0.9065,0.9065,0.9065,0.9065,0.9065,0.9065,0.8719,0.8372,0.7852,0.7566,0.74,0.7455,0.7695,0.7811,0.7818,0.797,0.8038,0.8041,0.8099,0.8238,0.8435,0.8526,0.8598,0.8645,0.8645,0.8645,0.8645,0.8645,0.8645,0.8645,0.8645,0.871,0.8794,0.8794,0.8633,0.8374,0.7817,0.7374,0.7035,0.6478,0.6366,0.6366,0.6366,0.6305,0.6287,0.6228,0.5558,0.4758,0.4858,0.5004,0.5256,0.5284,0.5291,0.5291,0.5291,0.5291,0.5046,0.4556,0.394,0.3449,0.2959,0.2345,0.1984,0.2002,0.2012,0.2026,0.2046,0.2058,0.2072,0.2092,0.2104,0.2118,0.2138,0.2148,0.2155,0.2155,0.2155,0.2155,0.2155,0.2155,0.2155,0.2155,0.2155,0.2181,0.42,0.0,0.0,0.0,0.0,0.0,0.0,0.0,0.0,0.0,0.0,0.0,0.0,0.0,0.0,0.0,0.0,0.0,0.0,0.0,0.0,0.0,0.0,0.0,0.0,0.8651,0.8324,0.8018,0.7939,0.0,0.7939,0.7997,0.8051,0.8105,0.7933,0.7672,0.7326,0.7334,0.7292,0.7295,0.7546,0.7689,0.7746,0.7896,0.7991,0.8038,0.8038,0.8126,0.8279,0.8374,0.8438,0.8377,0.8377,0.8276,0.8276,0.8276,0.8276,0.8276,0.8276,0.8372,0.8383,0.8383,0.8153,0.7709,0.7041,0.6485,0.5924,0.5254,0.5142,0.5148,0.5065,0.5155,0.5037,0.4788,0.4109,0.3529,0.3197,0.3574,0.3944,0.3944,0.3944,0.3944,0.3944,0.3944,0.3828,0.3351,0.3105,0.2862,0.2378,0.213,0.2013,0.2032,0.2043,0.2057,0.2078,0.2089,0.2103,0.2123,0.2125,0.2133,0.2154,0.2155,0.2155,0.2155,0.2155,0.2155,0.2155,0.2155,0.2155,0.2155,0.2155,0.2187,0.0,0.0,0.0,0.0,0.0,0.0,0.0,0.0,0.0,0.0,0.0,0.0,0.0,0.0,0.0,0.0,0.0,0.0,0.0,0.0,0.0,0.0,0.0,0.0,0.0,0.7489,0.7184,0.6698,0.6702,0.6702,0.6702,0.6848,0.6993,0.7129,0.7139,0.7139,0.7139,0.7139,0.7139,0.7054,0.7299,0.7451,0.7597,0.774,0.7889,0.7932,0.7932,0.8119,0.8262,0.8262,0.8243,0.8056,0.8056,0.7846,0.7638,0.7638,0.7638,0.7638,0.7638,0.7724,0.7834,0.7834,0.7276,0.6601,0.6265,0.5596,0.4817,0.448,0.4369,0.4389,0.4465,0.447,0.4452,0.3854,0.3534,0.3203,0.259,0.2222,0.1977,0.1977,0.1977,0.1978,0.1978,0.1979,0.1988,0.2016,0.202,0.2031,0.206,0.2064,0.2064,0.2065,0.2092,0.211,0.211,0.2138,0.2155,0.2155,0.2155,0.2155,0.2155,0.2155,0.2155,0.2155,0.2155,0.2155,0.2155,0.2155,0.2155,0.2155,0.2157,0.2189,0.3216,0.0,0.0,0.0,0.0,0.0,0.0,0.0,0.0,0.0,0.0,0.0,0.0,0.0,0.0,0.0,0.0,0.0,0.0,0.0,0.0,0.0,0.0,0.0,0.0,0.7075,0.6909,0.0,0.6702,0.6702,0.6702,0.6848,0.6946,0.6987,0.7088,0.7139,0.7139,0.7139,0.7054,0.6881,0.7031,0.7031,0.6977,0.7117,0.7254,0.7384,0.7384,0.7368,0.7497,0.7902,0.7928,0.7661,0.7149,0.6737,0.643,0.5819,0.5613,0.5613,0.5613,0.5733,0.5882,0.5882,0.5676,0.5256,0.4585,0.4029,0.3473,0.269,0.2601,0.2528,0.26,0.2636,0.266,0.2569,0.2461,0.2346,0.2223,0.2099,0.1977,0.1977,0.1993,0.2007,0.2007,0.2025,0.2042,0.205,0.2051,0.2054,0.2063,0.2064,0.2072,0.2094,0.2104,0.2119,0.214,0.215,0.2155,0.2155,0.2155,0.2155,0.2155,0.2155,0.2155,0.2155,0.2155,0.2155,0.2155,0.2155,0.2155,0.2156,0.22,0.223,0.3259,0.0,0.0,0.0,0.0,0.0,0.0,0.5289,0.0,0.0,0.0,0.0,0.0,0.0,0.0,0.0,0.0,0.0,0.0,0.0,0.0,0.0,0.0,0.0,0.677,0.6627,0.6583,0.6512,0.6519,0.6542,0.6603,0.6692,0.6766,0.6831,0.6912,0.6987,0.7051,0.7051,0.691,0.6795,0.6607,0.64,0.627,0.5975,0.5976,0.6085,0.6133,0.6192,0.6262,0.6509,0.6736,0.6845,0.6339,0.5734,0.5229,0.4728,0.4427,0.4427,0.4427,0.4639,0.478,0.478,0.457,0.4254,0.3582,0.3025,0.2578,0.2019,0.1826,0.187,0.1919,0.1941,0.1954,0.1973,0.1977,0.1977,0.1977,0.1977,0.198,0.1992,0.2007,0.2022,0.2035,0.2052,0.2068,0.2081,0.2082,0.2087,0.21,0.2101,0.2108,0.2126,0.2128,0.2136,0.2153,0.2155,0.2155,0.2155,0.2155,0.2155,0.2155,0.2155,0.2155,0.2155,0.2155,0.2155,0.2155,0.2155,0.2155,0.2156,0.2217,0.2245,0.355,0.3417,0.0,0.0,0.3731,0.0,0.4345,0.4445,0.4605,0.0,0.0,0.0,0.0,0.0,0.0,0.0,0.0,0.0,0.0,0.0,0.0,0.0,0.0,0.0,0.621,0.6227,0.6237,0.6237,0.6251,0.6315,0.6361,0.6384,0.6455,0.6589,0.6609,0.6689,0.684,0.6843,0.6743,0.6615,0.5988,0.5505,0.542,0.4686,0.4461,0.4647,0.4638,0.4681,0.4698,0.4688,0.5131,0.5839,0.5436,0.483,0.4228,0.3831,0.3731,0.3731,0.3731,0.3821,0.404,0.404,0.3704,0.3363,0.3026,0.2578,0.2133,0.1912,0.1841,0.1893,0.1923,0.1954,0.1977,0.1977,0.1977,0.1977,0.1977,0.1977,0.1985,0.2013,0.2021,0.2032,0.2059,0.2069,0.2083,0.211,0.2114,0.2124,0.2151,0.2155,0.2155,0.2155,0.2155,0.2155,0.2155,0.2155,0.2155,0.2155,0.2155,0.2155,0.2155,0.2155,0.2155,0.2155,0.2155,0.2155,0.2155,0.2155,0.2155,0.2156,0.2217,0.2245,0.3808,0.3576,0.3427,0.3583,0.0,0.0,0.3391,0.3616,0.3784,0.0,0.0,0.0,0.0,0.0,0.0,0.0,0.0,0.0,0.0,0.0,0.0,0.0,0.0,0.0,0.5891,0.6003,0.6074,0.6074,0.603,0.5954,0.5752,0.5934,0.6003,0.6031,0.6141,0.627,0.6411,0.6414,0.6135,0.5638,0.5277,0.4842,0.423,0.387,0.3824,0.3996,0.3982,0.4053,0.4119,0.4198,0.4331,0.4632,0.3927,0.3426,0.3026,0.2322,0.202,0.202,0.202,0.2171,0.2235,0.2235,0.2181,0.2131,0.2019,0.2019,0.1913,0.1825,0.1857,0.1893,0.1923,0.1954,0.1977,0.1977,0.1977,0.1977,0.1977,0.1977,0.1985,0.2013,0.2038,0.2057,0.2063,0.2104,0.2139,0.2145,0.2146,0.2148,0.2154,0.2155,0.2155,0.2155,0.2155,0.2155,0.2155,0.2155,0.2155,0.2155,0.2155,0.2155,0.2155,0.2155,0.2155,0.2155,0.2155,0.2155,0.2155,0.2155,0.2155,0.2156,0.2217,0.2245,0.3979,0.3799,0.3687,0.3687,0.0,0.0,0.0,0.347,0.3558,0.348,0.0,0.0,0.0,0.0,0.0,0.0,0.0,0.0,0.0,0.0,0.0,0.0,0.0,0.0,0.58,0.5871,0.5872,0.5871,0.5563,0.5325,0.5157,0.498,0.4854,0.4854,0.4911,0.5025,0.5114,0.5117,0.5026,0.4654,0.4206,0.3671,0.3223,0.2686,0.2522,0.2643,0.2632,0.2682,0.2713,0.2792,0.2925,0.3025,0.3025,0.2724,0.2323,0.1819,0.1617,0.1617,0.1617,0.1655,0.1704,0.1704,0.1746,0.1795,0.1795,0.1795,0.1802,0.1832,0.1862,0.1893,0.1923,0.1954,0.1977,0.1977,0.1977,0.1977,0.1977,0.1977,0.1981,0.1994,0.2021,0.2046,0.2061,0.2089,0.2114,0.213,0.2132,0.2138,0.2153,0.2155,0.2155,0.2155,0.2155,0.2155,0.2155,0.2155,0.2155,0.2155,0.2155,0.2155,0.2155,0.2155,0.2155,0.2155,0.2155,0.2155,0.2155,0.217,0.2177,0.2178,0.224,0.2268,0.0,0.4128,0.407,0.0,0.0,0.3748,0.0,0.0,0.0,0.3497,0.0,0.0,0.0,0.0,0.0,0.0,0.0,0.0,0.0,0.0,0.0,0.0,0.0,0.557,0.5601,0.5627,0.5561,0.5408,0.4902,0.459,0.4493,0.396,0.3659,0.3675,0.3675,0.3754,0.3831,0.3851,0.3852,0.3648,0.3129,0.2688,0.233,0.1704,0.1436,0.1439,0.15,0.1526,0.1531,0.1592,0.1617,0.1617,0.2322,0.2323,0.1921,0.1718,0.1617,0.1617,0.1617,0.1655,0.1704,0.1704,0.1746,0.1795,0.1795,0.1795,0.18,0.1825,0.1853,0.1884,0.1914,0.1945,0.1969,0.1975,0.1977,0.1977,0.1977,0.1977,0.1977,0.1977,0.1994,0.202,0.205,0.206,0.2074,0.2105,0.2109,0.212,0.2151,0.2155,0.2155,0.2155,0.2155,0.2155,0.2155,0.2155,0.2155,0.2155,0.2155,0.2155,0.2155,0.2155,0.2155,0.2155,0.216,0.2163,0.2163,0.22,0.2211,0.2202,0.2262,0.2291,0.0,0.0,0.0,0.0,0.3992,0.0,0.0,0.0,0.3379,0.3202,0.0,0.0,0.0,0.0,0.0,0.0,0.0,0.0,0.0,0.0,0.0,0.0,0.0,0.475,0.5009,0.5134,0.4922,0.4426,0.4229,0.3965,0.3555,0.3334,0.3215,0.3207,0.321,0.325,0.3339,0.3409,0.3316,0.2961,0.2663,0.233,0.1884,0.1525,0.1436,0.1439,0.15,0.1526,0.1531,0.1592,0.1617,0.1617,0.1718,0.1718,0.1617,0.1617,0.1617,0.1617,0.1617,0.1655,0.1704,0.1704,0.1746,0.1795,0.1795,0.1795,0.1795,0.1799,0.1822,0.1853,0.1883,0.1913,0.1943,0.197,0.1977,0.1977,0.1977,0.1977,0.1977,0.1977,0.1979,0.199,0.2019,0.2046,0.2074,0.2105,0.2109,0.212,0.2151,0.2155,0.2155,0.2155,0.2155,0.2155,0.2155,0.2155,0.2155,0.2155,0.2155,0.2155,0.2155,0.2155,0.2155,0.2155,0.2181,0.2195,0.2195,0.2252,0.2253,0.2202,0.2262,0.2291,0.0,0.0,0.0,0.0,0.0,0.0,0.3595,0.0,0.3533,0.0,0.0,0.0,0.0,0.0,0.0,0.0,0.3071,0.0,0.0,0.0,0.0,0.0,0.0,0.0,0.4391,0.4442,0.4278,0.3823,0.3234,0.28,0.2671,0.2233,0.1975,0.1996,0.2024,0.2063,0.2113,0.2134,0.2099,0.1996,0.1928,0.1772,0.1525,0.1436,0.1436,0.1438,0.1481,0.151,0.153,0.1573,0.16,0.1617,0.1617,0.1617,0.1617,0.1617,0.1617,0.1617,0.1617,0.1644,0.1685,0.172,0.176,0.1795,0.1795,0.1795,0.1795,0.1795,0.1817,0.1847,0.1878,0.1909,0.1939,0.1969,0.1977,0.1977,0.1977,0.1977,0.1977,0.1977,0.1977,0.198,0.1992,0.2005,0.2029,0.2076,0.2083,0.21,0.2148,0.2155,0.2155,0.2155,0.2155,0.2155,0.2155,0.2155,0.2155,0.2155,0.2155,0.2155,0.2155,0.2155,0.2155,0.2155,0.2185,0.22,0.22,0.2261,0.2277,0.2253,0.2296,0.2315,0.4975,0.0,0.0,0.0,0.0,0.0,0.0,0.0,0.0,0.0,0.0,0.0,0.0,0.0,0.0,0.0,0.0,0.2263,0.0,0.0,0.0,0.0,0.0,0.0,0.0,0.3727,0.3624,0.3109,0.2405,0.194,0.1866,0.1459,0.1203,0.1211,0.1241,0.1268,0.129,0.1299,0.1328,0.1378,0.1386,0.1406,0.1436,0.1436,0.1436,0.1437,0.1468,0.1498,0.1528,0.1559,0.159,0.1617,0.1617,0.1617,0.1617,0.1617,0.1617,0.1617,0.1617,0.1637,0.1672,0.1731,0.1765,0.1784,0.1793,0.1795,0.1795,0.1795,0.1811,0.1837,0.1876,0.1902,0.1928,0.1967,0.1977,0.1977,0.1977,0.1977,0.1977,0.1977,0.1977,0.1977,0.1977,0.1977,0.1996,0.2055,0.2064,0.2086,0.2147,0.2155,0.2155,0.2155,0.2155,0.2155,0.2155,0.2155,0.2155,0.2155,0.2155,0.2155,0.2155,0.2155,0.2155,0.2155,0.2193,0.2213,0.2213,0.2273,0.2303,0.2303,0.2323,0.2333,0.0,0.0,0.0,0.4531,0.0,0.0,0.0,0.0,0.3785,0.0,0.0,0.0,0.0,0.0,0.0,0.0,0.0,0.0,0.0,0.0,0.0,0.0,0.0,0.0,0.0,0.3018,0.297,0.0,0.1794,0.1534,0.134,0.1277,0.1181,0.1211,0.1241,0.1336,0.1337,0.1288,0.1318,0.1265,0.1377,0.1406,0.1436,0.1436,0.1436,0.1437,0.1468,0.1498,0.1528,0.1559,0.159,0.1617,0.1617,0.1617,0.1617,0.1617,0.1617,0.1617,0.1617,0.1637,0.1672,0.1731,0.175,0.1757,0.1786,0.1795,0.1795,0.1795,0.1795,0.181,0.187,0.1887,0.1902,0.1962,0.1977,0.1977,0.1977,0.1977,0.1977,0.1977,0.1977,0.1977,0.1977,0.1977,0.1996,0.2055,0.2064,0.2086,0.2147,0.2155,0.2155,0.2155,0.2155,0.2155,0.2155,0.2155,0.2155,0.2155,0.2155,0.2155,0.2155,0.2155,0.2155,0.2155,0.2213,0.2244,0.2244,0.2303,0.2331,0.2331,0.2333,0.2333,0.0,0.0,0.4989,0.4687,0.0,0.0,0.0,0.0,0.0,0.0,0.0,0.0,0.0,0.0,0.0,0.0,0.0,0.0,0.0,0.0,0.0,0.0,0.0,0.0,0.0,0.0,0.0,0.0,0.1297,0.0,0.1076,0.1141,0.1129,0.118,0.1211,0.1237,0.1335,0.1267,0.1298,0.1263,0.1358,0.1388,0.1436,0.1436,0.1436,0.1436,0.1446,0.1479,0.1527,0.1537,0.1571,0.1617,0.1617,0.1617,0.1617,0.1617,0.1617,0.1617,0.1617,0.1649,0.1693,0.1713,0.1747,0.1782,0.1792,0.1795,0.1795,0.1795,0.1795,0.1809,0.187,0.1886,0.1901,0.1962,0.1977,0.1977,0.1977,0.1977,0.1977,0.1977,0.1977,0.1977,0.1977,0.1977,0.1996,0.2055,0.2064,0.2086,0.2147,0.2155,0.2155,0.2155,0.2155,0.2155,0.2155,0.2155,0.2155,0.2155,0.2155,0.2155,0.2155,0.2155,0.2155,0.2155,0.2215,0.2245,0.2245,0.2304,0.2333,0.2333,0.2333,0.2333,0.5241,0.5169,0.0,0.4742,0.4539,0.0,0.4141,0.0,0.388,0.0,0.0,0.0,0.0,0.0,0.0,0.0,0.0,0.0,0.0,0.0726,0.0,0.0,0.0,0.0,0.0,0.0,0.1492,0.1185,0.0984,0.0,0.0,0.1032,0.1099,0.1149,0.119,0.1226,0.1335,0.1335,0.1288,0.1263,0.1263,0.1293,0.1436,0.1436,0.1436,0.1436,0.1436,0.147,0.1526,0.1526,0.1562,0.1617,0.1617,0.1617,0.1617,0.1617,0.1617,0.1618,0.1629,0.1658,0.1692,0.1714,0.1747,0.1781,0.1792,0.1795,0.1795,0.1795,0.1795,0.1809,0.187,0.1886,0.1901,0.1962,0.1977,0.1977,0.1977,0.1977,0.1977,0.1977,0.1977,0.1977,0.1977,0.1977,0.1996,0.2055,0.2064,0.2086,0.2147,0.2155,0.2155,0.2155,0.2155,0.2155,0.2155,0.2155,0.2155,0.2155,0.2155,0.2155,0.2155,0.2155,0.2155,0.2155,0.2215,0.2245,0.2245,0.2304,0.2333,0.2333,0.2333,0.2333]},{"header":{"parameterUnit":"m.s-1","parameterCategory":1,"la1":30.6,"la2":29.2853,"lo1":-89.7004,"lo2":-87.6739,"dy":0.0162,"dx":0.0183,"nx":112,"ny":82,"refTime":"2026-04-26T00:00:00:Z","depth":0,"parameterNumber":3,"parameterNumberName":"V-component_of_WINDS"},"data":[0.0,0.0,0.0,0.0,0.0,0.0,0.0,0.0,0.0,0.0,0.0,0.0,0.0,0.0,0.0,0.0,0.0,0.0,0.0,0.0,0.0,0.0,0.0,0.0,0.0,0.0,0.0,0.0,0.0,0.0,0.0,0.0,0.0,0.0,0.0,0.0,0.0,0.0,0.0,0.0,0.0,0.0,0.0,0.0,0.0,0.0,0.0,0.0,0.0,0.0,0.0,0.0,0.0,0.0,0.0,0.0,0.0,0.0,0.0,0.0,0.0,0.0,0.0,0.0,0.0,0.0,0.0,0.0,0.0,0.0,0.0,0.0,0.0,0.0,0.0,0.0,0.0,0.0,0.0,0.0,0.0,0.0,0.0,0.0,0.0,0.0,0.0,0.0,0.0,0.0,-1.5196,-1.7877,-2.0066,-2.0686,-1.9191,-1.8096,-1.6583,-1.4571,0.0,0.0,0.0,0.0,0.0,0.0,0.0,0.0,0.0,0.0,0.0,0.0,0.0,0.0,0.0,0.0,0.0,0.0,0.0,0.0,0.0,0.0,0.0,0.0,0.0,0.0,0.0,0.0,0.0,0.0,0.0,0.0,0.0,0.0,0.0,0.0,0.0,0.0,0.0,0.0,0.0,0.0,0.0,0.0,0.0,0.0,0.0,0.0,0.0,0.0,0.0,0.0,0.0,0.0,0.0,0.0,0.0,0.0,0.0,0.0,0.0,0.0,0.0,0.0,0.0,0.0,0.0,0.0,0.0,0.0,0.0,0.0,0.0,0.0,0.0,0.0,0.0,0.0,0.0,0.0,0.0,0.0,0.0,0.0,0.0,0.0,0.0,0.0,0.0,0.0,0.0,0.0,0.0,0.0,0.0,0.0,0.0,0.0,0.0,0.0,0.0,0.0,0.0,0.0,-1.7293,-2.0602,-2.1014,-2.0843,-2.0327,-1.8456,-1.6863,-1.5892,0.0,0.0,0.0,0.0,0.0,0.0,0.0,0.0,0.0,0.0,0.0,0.0,0.0,0.0,0.0,0.0,0.0,0.0,0.0,0.0,0.0,0.0,0.0,0.0,0.0,0.0,0.0,0.0,0.0,0.0,0.0,0.0,0.0,0.0,0.0,0.0,0.0,0.0,0.0,0.0,0.0,0.0,0.0,0.0,0.0,0.0,0.0,0.0,0.0,0.0,0.0,0.0,0.0,0.0,0.0,0.0,0.0,0.0,0.0,0.0,0.0,0.0,0.0,0.0,0.0,0.0,0.0,0.0,0.0,0.0,0.0,0.0,0.0,0.0,0.0,0.0,0.0,0.0,0.0,0.0,0.0,0.0,0.0,0.0,0.0,0.0,0.0,0.0,0.0,0.0,0.0,0.0,0.0,0.0,0.0,0.0,0.0,0.0,0.0,0.0,0.0,0.0,0.0,-1.7661,-1.992,-2.1648,-2.1569,-2.1071,-2.0481,-1.8659,-1.7056,-1.5831,-1.4118,0.0,0.0,0.0,0.0,0.0,0.0,0.0,0.0,0.0,0.0,0.0,0.0,0.0,0.0,0.0,0.0,0.0,0.0,0.0,0.0,0.0,0.0,0.0,0.0,0.0,0.0,0.0,0.0,0.0,0.0,0.0,0.0,0.0,0.0,0.0,0.0,0.0,0.0,0.0,0.0,0.0,0.0,0.0,0.0,0.0,0.0,0.0,0.0,0.0,0.0,0.0,0.0,0.0,0.0,0.0,0.0,0.0,0.0,0.0,0.0,0.0,0.0,0.0,0.0,0.0,0.0,0.0,0.0,0.0,0.0,0.0,0.0,0.0,0.0,0.0,0.0,0.0,0.0,0.0,0.0,0.0,0.0,0.0,0.0,0.0,0.0,0.0,0.0,0.0,0.0,0.0,0.0,0.0,0.0,0.0,0.0,0.0,0.0,0.0,0.0,0.0,0.0,-2.0469,-2.2051,-2.2267,-2.1968,-2.1374,-2.0416,-1.8639,-1.7041,-1.5676,-1.4409,0.0,0.0,0.0,0.0,0.0,0.0,0.0,0.0,0.0,0.0,0.0,0.0,0.0,0.0,0.0,0.0,0.0,0.0,0.0,0.0,0.0,0.0,0.0,0.0,0.0,0.0,0.0,0.0,0.0,0.0,0.0,0.0,0.0,0.0,0.0,0.0,0.0,0.0,0.0,0.0,0.0,0.0,0.0,0.0,0.0,0.0,0.0,0.0,0.0,0.0,0.0,0.0,0.0,0.0,0.0,0.0,0.0,0.0,0.0,0.0,0.0,0.0,0.0,0.0,0.0,0.0,0.0,0.0,0.0,0.0,0.0,0.0,0.0,0.0,0.0,0.0,0.0,0.0,0.0,0.0,0.0,0.0,0.0,0.0,0.0,0.0,0.0,0.0,0.0,0.0,0.0,0.0,0.0,0.0,0.0,0.0,0.0,0.0,0.0,0.0,0.0,0.0,-2.1739,-2.3008,-2.306,-2.2226,-2.1374,-2.0585,-1.8394,-1.6716,-1.599,-1.4114,0.0,0.0,0.0,0.0,0.0,0.0,0.0,0.0,0.0,0.0,0.0,0.0,0.0,0.0,0.0,0.0,0.0,0.0,0.0,0.0,0.0,0.0,0.0,0.0,0.0,0.0,0.0,0.0,0.0,0.0,0.0,0.0,0.0,0.0,0.0,0.0,0.0,0.0,0.0,0.0,0.0,0.0,0.0,0.0,0.0,0.0,0.0,0.0,0.0,0.0,0.0,0.0,0.0,0.0,0.0,0.0,0.0,0.0,0.0,0.0,0.0,0.0,0.0,0.0,0.0,0.0,0.0,0.0,0.0,0.0,0.0,0.0,0.0,0.0,0.0,0.0,0.0,0.0,0.0,0.0,0.0,0.0,0.0,0.0,0.0,0.0,0.0,0.0,0.0,0.0,0.0,0.0,0.0,0.0,0.0,0.0,0.0,0.0,0.0,0.0,0.0,0.0,-2.2218,-2.3615,0.0,-2.2673,-2.2063,-2.1415,-1.9375,-1.7586,-1.6552,0.0,0.0,0.0,0.0,0.0,0.0,0.0,0.0,0.0,0.0,0.0,0.0,0.0,0.0,0.0,0.0,0.0,0.0,0.0,0.0,0.0,0.0,0.0,0.0,0.0,0.0,0.0,0.0,0.0,0.0,0.0,0.0,0.0,0.0,0.0,0.0,0.0,0.0,0.0,0.0,0.0,0.0,0.0,0.0,0.0,0.0,0.0,0.0,0.0,0.0,0.0,0.0,0.0,0.0,0.0,0.0,0.0,0.0,0.0,0.0,0.0,0.0,0.0,0.0,0.0,0.0,0.0,0.0,0.0,0.0,0.0,0.0,0.0,0.0,0.0,0.0,0.0,0.0,0.0,0.0,0.0,0.0,0.0,0.0,0.0,0.0,0.0,0.0,0.0,0.0,0.0,0.0,0.0,0.0,0.0,0.0,0.0,0.0,0.0,0.0,0.0,0.0,-2.0042,-2.254,-2.4031,0.0,-2.3348,-2.2771,-2.2046,-2.012,-1.8462,-1.7143,0.0,0.0,0.0,0.0,0.0,0.0,0.0,0.0,0.0,0.0,0.0,0.0,0.0,0.0,0.0,0.0,0.0,0.0,0.0,0.0,0.0,0.0,0.0,0.0,0.0,0.0,0.0,0.0,0.0,0.0,0.0,0.0,0.0,0.0,0.0,0.0,0.0,0.0,0.0,0.0,0.0,0.0,0.0,0.0,0.0,0.0,0.0,0.0,0.0,0.0,0.0,0.0,0.0,0.0,0.0,0.0,0.0,0.0,0.0,0.0,0.0,0.0,0.0,0.0,0.0,0.0,0.0,0.0,0.0,0.0,0.0,0.0,0.0,0.0,0.0,0.0,0.0,0.0,0.0,0.0,0.0,0.0,0.0,0.0,0.0,0.0,0.0,0.0,0.0,0.0,0.0,0.0,0.0,0.0,0.0,0.0,0.0,0.0,0.0,0.0,0.0,0.0,-2.0544,-2.2745,-2.4239,-2.4434,-2.4134,-2.3352,-2.2347,-2.0601,-1.9072,0.0,0.0,0.0,0.0,0.0,0.0,0.0,0.0,0.0,0.0,0.0,0.0,0.0,0.0,0.0,0.0,0.0,0.0,0.0,0.0,0.0,0.0,0.0,0.0,0.0,0.0,0.0,0.0,0.0,0.0,0.0,0.0,0.0,0.0,0.0,0.0,0.0,0.0,0.0,0.0,0.0,0.0,0.0,0.0,0.0,0.0,0.0,0.0,0.0,0.0,0.0,0.0,0.0,0.0,0.0,0.0,0.0,0.0,0.0,0.0,0.0,0.0,0.0,0.0,0.0,0.0,0.0,0.0,0.0,0.0,0.0,0.0,0.0,0.0,0.0,0.0,0.0,0.0,0.0,0.0,0.0,0.0,0.0,0.0,0.0,0.0,0.0,0.0,0.0,0.0,0.0,0.0,0.0,0.0,0.0,0.0,0.0,0.0,0.0,0.0,0.0,0.0,0.0,-2.0555,-2.2905,-2.4491,-2.4691,-2.4651,-2.4263,-2.337,-2.206,-2.0523,-1.8765,0.0,0.0,0.0,0.0,0.0,0.0,0.0,0.0,0.0,0.0,0.0,0.0,0.0,0.0,0.0,0.0,0.0,0.0,0.0,0.0,0.0,0.0,0.0,0.0,0.0,0.0,0.0,0.0,0.0,0.0,0.0,0.0,0.0,0.0,0.0,0.0,0.0,0.0,0.0,0.0,0.0,0.0,0.0,0.0,0.0,0.0,0.0,0.0,0.0,0.0,0.0,0.0,0.0,0.0,0.0,0.0,0.0,0.0,0.0,0.0,0.0,0.0,0.0,0.0,0.0,0.0,0.0,0.0,0.0,0.0,0.0,0.0,0.0,0.0,0.0,0.0,0.0,0.0,0.0,0.0,0.0,0.0,0.0,0.0,0.0,0.0,0.0,0.0,0.0,0.0,0.0,0.0,0.0,0.0,0.0,0.0,0.0,0.0,0.0,0.0,0.0,0.0,-2.0817,-2.3099,-2.4658,-2.5218,-2.5292,-2.508,-2.4401,-2.33,-2.1827,-1.9933,0.0,0.0,0.0,0.0,0.0,0.0,0.0,0.0,0.0,0.0,0.0,0.0,0.0,0.0,0.0,0.0,0.0,0.0,0.0,0.0,0.0,0.0,0.0,0.0,0.0,0.0,0.0,0.0,0.0,0.0,0.0,0.0,0.0,0.0,0.0,0.0,0.0,0.0,0.0,0.0,0.0,0.0,0.0,0.0,0.0,0.0,0.0,0.0,0.0,0.0,0.0,0.0,0.0,0.0,0.0,0.0,0.0,0.0,0.0,0.0,0.0,0.0,0.0,0.0,0.0,0.0,0.0,0.0,0.0,0.0,0.0,0.0,0.0,0.0,0.0,0.0,0.0,0.0,0.0,0.0,0.0,0.0,0.0,0.0,0.0,0.0,0.0,0.0,0.0,0.0,0.0,0.0,0.0,0.0,0.0,0.0,0.0,0.0,0.0,0.0,0.0,0.0,-2.1279,-2.336,-2.4927,-2.588,-2.5979,-2.5782,-2.53,-2.4445,-2.3097,-2.1114,0.0,0.0,0.0,0.0,0.0,0.0,0.0,0.0,0.0,0.0,0.0,0.0,0.0,0.0,0.0,0.0,0.0,0.0,0.0,0.0,0.0,0.0,0.0,0.0,0.0,0.0,0.0,0.0,0.0,0.0,0.0,0.0,0.0,0.0,0.0,0.0,0.0,0.0,0.0,0.0,0.0,0.0,0.0,0.0,0.0,0.0,0.0,0.0,0.0,0.0,0.0,0.0,0.0,0.0,0.0,0.0,0.0,0.0,0.0,0.0,-1.211,0.0,0.0,0.0,0.0,0.0,0.0,0.0,0.0,0.0,0.0,0.0,0.0,0.0,0.0,0.0,0.0,0.0,0.0,0.0,0.0,0.0,0.0,0.0,0.0,0.0,0.0,0.0,0.0,0.0,0.0,0.0,0.0,0.0,0.0,0.0,0.0,0.0,0.0,0.0,0.0,0.0,-2.1609,-2.3713,-2.5384,-2.6367,-2.6479,-2.6278,-2.5705,-2.5472,-2.4347,-2.2067,-2.0225,0.0,0.0,0.0,0.0,0.0,0.0,0.0,0.0,0.0,0.0,0.0,0.0,0.0,0.0,0.0,0.0,0.0,0.0,0.0,0.0,0.0,0.0,0.0,0.0,0.0,0.0,0.0,0.0,0.0,0.0,0.0,0.0,0.0,0.0,0.0,0.0,0.0,0.0,0.0,0.0,0.0,0.0,0.0,0.0,0.0,0.0,0.0,0.0,0.0,0.0,0.0,0.0,0.0,0.0,0.0,0.0,0.0,0.0,0.0,0.0,-1.3582,0.0,0.0,0.0,0.0,0.0,0.0,0.0,0.0,0.0,0.0,0.0,0.0,0.0,0.0,0.0,0.0,0.0,0.0,0.0,0.0,0.0,0.0,0.0,0.0,0.0,0.0,0.0,0.0,0.0,0.0,0.0,0.0,0.0,0.0,0.0,0.0,0.0,0.0,0.0,0.0,-2.188,-2.4073,-2.5769,-2.6767,-2.6869,-2.6767,-2.6506,-2.6279,-2.5281,-2.331,-2.1547,0.0,0.0,0.0,0.0,0.0,0.0,0.0,0.0,0.0,0.0,0.0,0.0,0.0,0.0,0.0,0.0,0.0,0.0,0.0,0.0,0.0,0.0,0.0,0.0,0.0,0.0,0.0,0.0,0.0,0.0,0.0,0.0,0.0,0.0,0.0,0.0,0.0,0.0,0.0,0.0,0.0,0.0,0.0,0.0,0.0,0.0,0.0,0.0,0.0,0.0,0.0,0.0,0.0,-1.5988,-1.6477,-1.683,-1.7044,-1.7516,-1.7981,-1.6612,-1.5989,-1.5805,-1.5434,0.0,0.0,0.0,0.0,0.0,0.0,0.0,0.0,0.0,0.0,0.0,0.0,0.0,0.0,0.0,0.0,0.0,0.0,0.0,0.0,0.0,0.0,0.0,0.0,-2.1722,-2.0831,0.0,0.0,0.0,0.0,0.0,0.0,0.0,0.0,0.0,0.0,0.0,0.0,-2.2297,-2.4499,-2.6161,-2.7244,-2.7348,-2.7348,-2.7348,-2.699,-2.6124,-2.4657,-2.29,-2.1249,0.0,0.0,0.0,0.0,0.0,0.0,0.0,0.0,0.0,0.0,0.0,0.0,0.0,0.0,0.0,0.0,0.0,0.0,0.0,0.0,0.0,0.0,0.0,0.0,0.0,0.0,0.0,0.0,0.0,0.0,0.0,0.0,-0.5086,-0.521,0.0,0.0,0.0,0.0,0.0,0.0,0.0,0.0,0.0,0.0,0.0,0.0,0.0,-1.4133,-1.5122,-1.6374,-1.7317,-1.806,-1.8456,-1.8836,-1.9191,-1.9241,-1.9389,-1.9735,-1.9966,0.0,-1.7916,-1.7536,0.0,0.0,0.0,0.0,0.0,0.0,0.0,0.0,0.0,0.0,0.0,0.0,0.0,0.0,0.0,0.0,0.0,0.0,0.0,0.0,0.0,0.0,-2.4554,-2.4351,-2.4328,-2.4315,0.0,-2.1912,-1.9873,-1.9025,-1.8047,0.0,0.0,0.0,0.0,0.0,0.0,0.0,-2.3282,-2.516,-2.6628,-2.7683,-2.78,-2.78,-2.78,-2.7742,-2.7226,-2.6089,-2.5146,-2.391,-2.2254,-2.0852,0.0,0.0,0.0,0.0,0.0,0.0,0.0,0.0,0.0,0.0,0.0,0.0,0.0,0.0,0.0,0.0,0.0,0.0,0.0,0.0,0.0,0.0,0.0,0.0,0.0,0.0,0.0,0.0,0.0,-0.4913,-0.5505,-0.5819,-0.6211,-0.6523,0.0,0.0,0.0,0.0,0.0,0.0,0.0,0.0,0.0,-1.3236,-1.4941,-1.6432,-1.7395,-1.8799,-1.9609,-1.9949,-2.0517,-2.0889,-2.1269,-2.1463,-2.188,-2.2399,-2.2536,-2.2101,-2.1349,-1.9832,-1.8991,-1.8426,0.0,0.0,0.0,0.0,-1.9111,-2.0027,-2.0656,-2.1182,0.0,-2.2012,0.0,0.0,0.0,0.0,0.0,0.0,0.0,0.0,0.0,0.0,-2.6394,-2.6611,-2.6642,-2.6574,-2.6217,-2.5199,-2.3791,0.0,-2.0825,-1.979,-1.8552,0.0,0.0,0.0,0.0,-2.2145,-2.4236,-2.6012,-2.7347,-2.8108,-2.8283,-2.8283,-2.8283,-2.8283,-2.7949,-2.7316,-2.6845,-2.5917,-2.4423,-2.3454,-2.1989,0.0,0.0,0.0,0.0,0.0,0.0,0.0,0.0,0.0,0.0,0.0,0.0,0.0,0.0,0.0,0.0,0.0,0.0,0.0,0.0,0.0,0.0,0.0,0.0,0.0,0.0,0.0,0.0,-0.5735,-0.6258,-0.6735,-0.713,-0.748,0.0,0.0,0.0,0.0,0.0,0.0,-1.0899,-1.223,-1.3673,-1.518,-1.711,-1.8514,-1.9604,-2.0908,-2.1622,-2.1726,-2.2386,-2.2854,-2.3149,-2.3418,-2.3817,-2.4298,-2.4216,-2.4128,-2.3908,-2.1931,-2.0916,-2.0526,-1.9913,-2.0207,-2.1012,-2.1356,-2.2097,-2.3059,-2.3431,-2.3946,-2.4508,-2.4749,-2.4334,-2.3591,-2.2834,0.0,0.0,0.0,0.0,-2.4864,-2.636,-2.729,-2.7916,-2.8561,-2.861,-2.8371,-2.7992,-2.7723,-2.6936,0.0,-2.3306,-2.2364,-2.116,0.0,0.0,0.0,0.0,-2.3827,-2.5338,-2.6824,-2.7933,-2.845,-2.851,-2.851,-2.851,-2.851,-2.8409,-2.8232,-2.8014,-2.7326,-2.6181,-2.555,-2.4177,-2.2061,0.0,0.0,0.0,0.0,0.0,0.0,0.0,0.0,0.0,0.0,0.0,0.0,0.0,0.0,0.0,0.0,0.0,0.0,0.0,0.0,0.0,0.0,0.0,0.0,0.0,0.0,0.0,0.0,0.0,-0.8354,-0.8807,0.0,0.0,0.0,0.0,-1.0361,-1.0797,-1.1489,-1.2491,-1.4074,-1.549,-1.6725,-1.8967,-2.055,-2.1336,-2.2681,-2.3444,-2.3808,-2.4233,-2.4446,-2.4473,-2.4491,-2.4508,-2.4631,-2.4823,-2.4909,-2.4869,-2.3344,-2.2704,-2.2516,-2.2198,-2.2637,-2.3467,-2.4033,-2.4585,-2.5231,-2.6118,-2.6463,-2.6627,-2.7534,-2.6878,-2.5666,-2.5396,-2.4781,0.0,0.0,-2.66,-2.7313,-2.808,-2.8771,-2.9327,-2.964,-2.9869,-3.0001,-2.9977,-2.9569,-2.8435,0.0,-2.5025,-2.4531,-2.3977,0.0,-2.3246,-2.38,-2.4506,-2.5385,-2.6459,-2.728,-2.7933,-2.845,-2.851,-2.851,-2.851,-2.851,-2.8566,-2.8755,-2.83,-2.7808,-2.743,-2.6865,-2.5621,-2.3643,-2.2405,0.0,0.0,0.0,0.0,0.0,0.0,0.0,0.0,0.0,0.0,0.0,0.0,0.0,0.0,0.0,0.0,0.0,0.0,0.0,0.0,0.0,0.0,0.0,0.0,0.0,0.0,0.0,0.0,-1.018,-1.0655,0.0,-1.1022,-1.126,-1.1517,-1.1884,-1.2725,-1.3579,-1.4482,-1.6147,-1.7815,-1.9137,-2.0962,-2.2355,-2.332,-2.4007,-2.4554,-2.4936,-2.509,-2.529,-2.5536,-2.5536,-2.5681,-2.5918,-2.5751,-2.5748,-2.5894,-2.543,-2.4963,-2.4383,-2.4385,-2.4886,-2.5675,-2.6341,-2.702,-2.769,-2.8288,-2.8756,-2.9001,-2.8943,-2.8188,-2.7253,-2.6993,-2.6619,-2.6474,-2.7301,-2.7871,-2.8385,-2.9312,-2.9859,-3.0257,-3.0688,-3.0934,-3.1011,-3.0675,-3.0446,-2.9989,-2.8733,-2.755,-2.647,-2.5958,-2.5707,-2.5708,-2.5838,-2.639,-2.6932,-2.7304,-2.7819,-2.8306,-2.8486,-2.851,-2.851,-2.851,-2.851,-2.8669,-2.8961,-2.895,-2.8788,-2.8595,-2.8516,-2.7453,-2.5131,-2.4296,-2.2771,0.0,0.0,0.0,0.0,0.0,0.0,0.0,0.0,0.0,0.0,0.0,0.0,0.0,0.0,0.0,0.0,0.0,0.0,0.0,0.0,0.0,0.0,0.0,0.0,0.0,0.0,-1.171,-1.2223,-1.253,-1.2798,-1.292,-1.3033,-1.322,-1.3598,-1.4321,-1.5094,-1.604,-1.7765,-1.929,-2.056,-2.2408,-2.3772,-2.4557,-2.5003,-2.5381,-2.5784,-2.5784,-2.5913,-2.6169,-2.6169,-2.6325,-2.6573,-2.6298,-2.6384,-2.6783,-2.7112,-2.7074,-2.6774,-2.6754,-2.717,-2.786,-2.8637,-2.9209,-2.9725,-3.0156,-3.0589,-3.0793,-3.036,-2.9817,-2.9319,-2.9155,-2.8971,-2.8893,-2.939,-2.9635,-2.9842,-3.0517,-3.0882,-3.1077,-3.14,-3.1572,-3.1565,-3.1216,-3.1144,-3.0987,-3.0458,-2.9364,-2.8354,-2.7825,-2.7729,-2.7669,-2.7488,-2.7765,-2.7993,-2.7993,-2.8294,-2.851,-2.851,-2.851,-2.851,-2.851,-2.8578,-2.873,-2.9015,-2.9163,-2.9176,-2.9171,-2.9215,-2.8457,-2.6717,-2.5488,-2.3685,-2.1267,0.0,0.0,0.0,0.0,0.0,0.0,0.0,0.0,0.0,0.0,0.0,0.0,0.0,0.0,0.0,0.0,0.0,0.0,0.0,0.0,0.0,0.0,0.0,-1.1309,-1.2416,-1.3598,-1.441,-1.4511,-1.4641,-1.5088,-1.4897,-1.4967,-1.5548,-1.5597,-1.6095,-1.7175,-1.8828,-2.0084,-2.0816,-2.3138,-2.466,-2.5068,-2.566,-2.6277,-2.6582,-2.6582,-2.6582,-2.6582,-2.6582,-2.6582,-2.6582,-2.6582,-2.6899,-2.7539,-2.8368,-2.9059,-2.9646,-2.9305,-2.9423,-2.9992,-3.0782,-3.1191,-3.1479,-3.1766,-3.1849,-3.1838,-3.1838,-3.1826,-3.191,-3.2134,-3.1973,-3.1828,-3.2023,-3.1914,-3.1685,-3.1685,-3.1673,-3.1661,-3.1661,-3.1661,-3.1661,-3.1661,-3.1661,-3.1517,-3.0999,-3.0494,-2.9965,-2.9412,-2.9304,-2.9124,-2.8607,-2.8522,0.0,-2.851,-2.851,-2.851,-2.851,-2.851,-2.851,-2.851,-2.8724,-2.8795,-2.8775,-2.8886,-2.8961,-2.9121,-2.8872,-2.8592,-2.8174,-2.5882,-2.3474,-2.1079,0.0,0.0,0.0,0.0,0.0,0.0,0.0,0.0,0.0,0.0,0.0,0.0,0.0,0.0,0.0,0.0,0.0,0.0,0.0,0.0,0.0,0.0,-1.3697,-1.3556,-1.5226,-1.6519,-1.6853,-1.7251,-1.7399,-1.7432,-1.7622,-1.7707,-1.7421,-1.7757,-1.801,-1.8318,-1.9806,-2.0963,-2.1845,-2.391,-2.5293,-2.6005,-2.6337,-2.6811,-2.7225,-2.7225,-2.7225,-2.7225,-2.7225,-2.7225,-2.7225,-2.7225,-2.7539,-2.8174,-2.9398,-3.0265,-3.0734,-3.0486,-3.0603,-3.1031,-3.1854,-3.2621,-3.3336,-3.3434,-3.3177,-3.2849,-3.2849,-3.2592,-3.23,-3.2394,-3.2488,-3.2557,-3.265,-3.2476,-3.2274,-3.2274,-3.1973,-3.1661,-3.1661,-3.1661,-3.1661,-3.1661,-3.1661,-3.1625,-3.148,-3.1336,-3.0939,-3.0025,-2.9556,-2.9256,-2.91,-2.8751,0.0,-2.851,-2.851,-2.851,-2.851,-2.851,-2.8578,-2.8724,-2.904,-2.9195,-2.9126,-2.8815,-2.8805,-2.9107,-2.8607,-2.8221,-2.7823,-2.682,-2.5317,0.0,0.0,0.0,0.0,0.0,0.0,0.0,0.0,0.0,0.0,0.0,0.0,0.0,0.0,0.0,0.0,0.0,0.0,0.0,0.0,0.0,0.0,-1.3975,-1.5632,-1.644,-1.7392,-1.8143,-1.8442,-1.8852,-1.9034,-1.9011,-1.9257,-1.9368,-1.9047,-1.9163,-1.9426,-1.9694,-2.0822,-2.1927,-2.2868,-2.4648,-2.6012,-2.6605,-2.689,-2.728,-2.7697,-2.7697,-2.7782,-2.7943,-2.7943,-2.7943,-2.7933,-2.7763,-2.8132,-2.8878,-2.9994,-3.0845,0.0,0.0,0.0,0.0,0.0,-3.3781,-3.4359,-3.4359,-3.4145,-3.3969,-3.3969,-3.3671,-3.3422,-3.3422,-3.347,-3.3385,-3.3385,-3.2963,-3.2503,-3.2503,-3.2082,-3.1661,-3.1661,-3.1661,-3.1661,-3.1661,-3.1761,-3.1849,-3.1849,-3.1937,0.0,-3.1211,-3.0483,-2.9881,-2.9665,-2.9364,-2.9172,-2.9172,-2.9172,-2.9088,-2.8871,-2.8847,-2.8819,-2.8907,-2.9341,0.0,0.0,0.0,-2.9443,-2.972,-2.9184,0.0,0.0,0.0,0.0,0.0,0.0,0.0,0.0,-2.3142,-2.3956,0.0,0.0,0.0,0.0,0.0,0.0,0.0,0.0,0.0,0.0,0.0,0.0,0.0,0.0,0.0,0.0,-1.5712,-1.7568,-1.9091,-1.9056,-1.9073,-1.9639,-1.9896,-1.9987,-2.0133,-2.0348,-2.054,-2.049,-2.0392,-2.0583,-2.1162,0.0,0.0,0.0,0.0,-2.6623,-2.6892,-2.7359,-2.7748,-2.8167,-2.8167,-2.8385,-2.8775,-2.8775,-2.8775,-2.8756,-2.8347,-2.8616,-2.9569,-3.0423,-3.1359,-3.242,-3.3047,-3.3446,-3.3744,-3.4237,-3.4531,-3.4823,-3.4823,0.0,0.0,-3.4823,-3.4823,-3.4823,-3.4823,-3.4499,-3.4126,-3.4126,-3.3428,-3.2671,-3.2671,-3.2214,-3.1757,-3.1757,-3.1709,-3.1673,-3.1749,-3.1849,-3.2038,-3.2038,-3.2213,-3.24,-3.24,-3.1588,-3.0809,-3.0338,-3.0218,-3.017,-3.017,-3.017,-2.9989,-2.9518,0.0,0.0,-2.9266,-2.9767,-3.0162,-3.0329,-3.0398,-3.0565,-3.0686,-3.0304,-3.0116,-3.0244,-2.9846,-2.9145,-2.8144,-2.9201,-2.9844,-3.0003,-2.742,-2.7519,0.0,0.0,0.0,0.0,0.0,0.0,0.0,0.0,0.0,0.0,0.0,0.0,0.0,0.0,0.0,-1.4853,-1.6669,-1.8219,-1.9164,-1.9779,-2.0289,-2.0762,-2.1277,-2.1649,-2.1633,-2.2465,-2.2823,-2.2425,-2.2584,-2.2754,-2.3066,-2.3434,-2.4059,-2.5137,-2.6501,-2.7285,-2.7728,-2.7931,-2.829,-2.8707,0.0,0.0,-2.9458,-2.9458,-2.9458,-2.9439,-2.8891,-2.9144,-2.9766,-3.0955,-3.2588,-3.4237,-3.4052,-3.4052,-3.4237,-3.4335,-3.4531,-3.4823,-3.4823,-3.4823,-3.4823,-3.4823,-3.4823,-3.4823,-3.4823,-3.4763,0.0,-3.4679,-3.4222,-3.3741,-3.3741,-3.3044,-3.2346,-3.2346,-3.1985,-3.1749,-3.1937,-3.195,-3.2038,-3.23,-3.2388,-3.24,-3.24,-3.1859,-3.1467,-3.1357,-3.0952,-3.0658,-3.0658,-3.0658,-3.0609,-3.0511,-3.0131,-2.9998,-3.0261,-3.0739,-3.0908,-3.082,-3.1212,-3.1358,-3.1005,-3.1539,-3.1622,-3.1228,-3.182,-3.1892,-3.1383,-3.2377,-3.3165,-3.3624,-3.1413,-3.1303,0.0,0.0,0.0,0.0,0.0,0.0,0.0,0.0,0.0,0.0,0.0,-1.0297,-1.1638,0.0,-1.5065,-1.6316,-1.798,-1.9319,-2.0121,-2.0773,-2.1154,-2.1262,-2.1748,-2.2185,-2.2274,-2.3098,-2.3486,-2.3102,-2.3453,-2.37,-2.3815,-2.4386,-2.4981,-2.582,-2.6997,-2.7757,-2.8067,-2.8184,-2.8613,-2.9248,-2.9248,-2.9692,-3.0443,-3.067,-3.0784,-3.0847,-3.0279,-3.0435,-3.1044,-3.1984,-3.33,-3.4738,-3.4543,-3.4543,-3.4628,-3.4628,-3.4628,-3.4823,-3.4823,-3.4823,-3.4823,-3.4823,-3.4823,-3.4823,-3.4823,-3.492,-3.503,-3.503,-3.4738,-3.4421,-3.4421,-3.3642,-3.2852,-3.2852,-3.2427,-3.2113,-3.2213,-3.2288,-3.2376,-3.255,-3.2649,-3.2736,-3.2736,-3.2512,-3.224,-3.2081,-3.1749,-3.1649,-3.1722,-3.1722,-3.1707,-3.1601,-3.134,-3.1311,-3.1624,-3.2213,-3.2386,-3.1903,-3.2196,-3.2311,-3.2127,-3.2256,-3.237,-3.2611,-3.2878,-3.3028,-3.3051,-3.4166,-3.4981,-3.5334,-3.4779,-3.471,0.0,0.0,0.0,0.0,0.0,0.0,0.0,0.0,-0.9042,-0.9981,-1.1255,-1.2498,-1.3435,-1.524,-1.692,-1.7859,-1.9207,-2.0339,-2.1078,-2.1551,-2.1768,-2.1748,-2.2067,-2.2274,-2.2441,-2.3281,-2.3765,-2.3486,-2.4063,-2.4467,-2.4551,-2.5247,-2.5994,-2.6502,-2.7449,-2.8067,-2.8291,-2.8398,-2.8839,-2.9682,-2.9793,-3.0369,-3.1546,-3.1802,-3.2209,-3.2489,-3.1887,-3.2084,-3.2605,-3.3231,-3.4005,-3.4932,-3.4932,-3.4932,-3.492,-3.4823,-3.4823,-3.4823,-3.4823,-3.4823,-3.4823,-3.4823,-3.4932,-3.4932,-3.4932,-3.5114,-3.5307,-3.532,-3.511,-3.4969,-3.4969,-3.4244,-3.3519,-3.3519,-3.3027,-3.2548,-3.2635,-3.2624,-3.2723,-3.281,-3.2982,-3.3081,-3.3154,-3.3154,-3.2982,-3.2562,-3.2562,-3.2649,-3.2797,-3.297,-3.2965,-3.2789,-3.2791,-3.2881,-3.3158,-3.382,-3.4015,-3.3593,-3.3589,-3.3614,-3.3633,-3.3194,-3.3289,-3.3994,-3.3813,-3.3982,-3.4349,-3.5428,-3.6066,-3.6334,-3.7235,-3.7306,-0.7284,-0.7807,-0.8538,-0.8806,-0.9098,-0.9411,0.0,0.0,-1.0566,-1.2265,-1.3065,-1.3961,-1.574,-1.6887,-1.7877,-1.8796,-1.9882,-2.0661,-2.1116,-2.1551,-2.2054,-2.26,-2.2677,-2.2715,-2.2706,-2.3735,-2.4322,-2.4322,-2.5043,-2.5702,-2.609,-2.6546,-2.7085,-2.7474,-2.8047,-2.8291,-2.8291,-2.8514,-2.9055,-2.9915,-3.0248,-3.1147,-3.2561,-3.2577,-3.2934,-3.3431,-3.3282,-3.3436,-3.386,-3.4139,-3.4799,-3.5524,-3.5524,-3.5524,-3.5416,-3.503,-3.4823,-3.4823,-3.4823,-3.4823,-3.4823,-3.5126,-3.532,-3.5524,-3.5524,-3.5704,-3.5883,-3.5608,-3.5571,-3.5534,-3.5534,-3.508,-3.4637,-3.4637,-3.385,-3.319,-3.3355,-3.3059,-3.281,-3.2982,-3.3081,-3.3154,-3.3313,-3.3398,-3.3326,-3.3081,-3.2995,-3.3068,-3.3313,-3.381,-3.4288,-3.4389,-3.4513,-3.4658,-3.4915,-3.5142,-3.5495,-3.5925,-3.5911,-3.5664,-3.5183,-3.519,-3.5184,-3.4999,-3.5314,-3.5715,-3.6369,-3.6706,-3.7011,-3.737,-3.8081,-3.8017,-0.8614,-0.896,0.0,0.0,-1.0418,-1.104,-1.173,-1.2241,-1.3019,-1.4269,-1.5466,-1.656,-1.7503,-1.8522,-1.9315,0.0,-2.0636,-2.1424,-2.1598,-2.1984,-2.2409,-2.2921,-2.2756,-2.2698,-2.294,-2.3602,-2.415,-2.4394,-2.499,-2.5537,-2.5986,-2.665,-2.7192,-2.7471,-2.8351,-2.8814,-2.9026,-2.9459,-2.9976,-3.0611,-3.1195,-3.2091,-3.329,-3.3898,-3.4392,-3.4804,-3.4889,-3.4757,-3.4507,-3.4702,-3.5114,-3.562,-3.562,-3.562,-3.562,-3.532,-3.5223,-3.5223,-3.5223,-3.5223,-3.532,-3.5596,-3.6048,-3.6402,-3.625,-3.6521,-3.6684,-3.6345,-3.6168,-3.6086,-3.6086,-3.5675,-3.5183,-3.5183,-3.4351,-3.3632,-3.3708,-3.3283,-3.2982,-3.3081,-3.3081,-3.3154,-3.3398,-3.3725,-3.3979,-3.4063,-3.3725,-3.3641,-3.4063,-3.4468,-3.495,-3.5588,-3.5929,-3.5997,-3.5836,-3.6208,-3.6432,-3.6487,-3.6458,-3.6237,-3.5717,-3.5961,-3.5904,-3.5509,-3.6006,-3.6476,-3.6877,-3.7527,-3.796,-3.8096,-3.8776,-3.8934,-0.9705,0.0,0.0,-1.1122,-1.1792,-1.248,-1.3373,-1.4225,-1.5009,-1.5897,-1.722,-1.8226,-1.855,-1.942,-2.0169,-2.0169,-2.115,-2.1885,-2.1885,-2.2344,-2.2793,-2.3105,-2.2871,-2.2803,-2.3202,-2.3624,-2.4055,-2.4477,-2.5012,-2.5454,-2.5907,-2.6743,-2.7409,-2.7693,-2.895,-2.9733,-3.0162,-3.0785,-3.1206,-3.1677,-3.2457,-3.3482,-3.4411,-3.5517,-3.5993,-3.6069,-3.6283,-3.5963,-3.5211,-3.5404,-3.5608,-3.58,-3.58,-3.58,-3.5824,-3.6069,-3.6022,-3.595,-3.6195,-3.6245,-3.6316,-3.6526,-3.7006,-3.7516,-3.7294,-3.7428,-3.7599,-3.7163,-3.6815,-3.6546,-3.6546,-3.6256,-3.5953,-3.5953,-3.5221,-3.4527,-3.4527,-3.3972,-3.348,-3.348,-3.3341,-3.3398,-3.3725,-3.423,-3.4634,-3.5046,-3.4703,-3.4607,-3.5032,-3.544,-3.591,-3.678,-3.712,-3.7181,-3.6849,-3.7224,-3.7346,-3.7298,-3.734,-3.7098,-3.6446,-3.6753,-3.6627,-3.5958,-3.6538,-3.6923,-3.7136,-3.8054,-3.8507,-3.8539,-3.9408,-3.9803,0.0,0.0,-1.1115,-1.2569,-1.3084,-1.3601,-1.5095,-1.5664,-1.6184,-1.7024,-1.7644,-1.8184,-1.8591,-1.922,-1.9715,-1.9856,-2.1035,-2.1885,-2.1885,-2.2598,-2.3125,-2.3135,-2.3125,-2.3212,0.0,-2.389,-2.4316,-2.4762,-2.5385,-2.6023,-2.6476,-2.7331,-2.7995,-2.8576,-2.9937,-3.0938,-3.1575,-3.2364,-3.2904,-3.339,-3.421,-3.5155,-3.6203,-3.7412,-3.7666,-3.7114,-3.7211,-3.6885,-3.6358,-3.6358,-3.6358,-3.6358,-3.6358,-3.6358,-3.6433,-3.726,-3.7161,-3.6835,-3.7764,-3.8051,-3.8061,-3.8178,-3.8538,-3.8886,-3.8591,-3.8419,-3.8328,-3.79,-3.7453,-3.7108,-3.7108,-3.7095,-3.7083,-3.7083,-3.6647,-3.6224,-3.6224,-3.5353,-3.4571,-3.4571,-3.411,-3.3882,-3.4551,-3.4881,-3.5196,-3.5871,-3.6084,-3.6136,-3.599,-3.6716,-3.7443,-3.8052,-3.8127,-3.8202,-3.8173,-3.8323,-3.8634,-3.8972,-3.9175,-3.8862,-3.7864,-3.8035,-3.7686,-3.6677,-3.6862,-3.7121,-3.748,-3.8175,-3.8507,-3.8539,-3.9929,-4.0577,-1.1059,0.0,-1.2242,-1.3395,-1.441,-1.532,-1.635,-1.7501,-1.8488,-1.875,-1.9029,-1.9277,-1.9433,-1.9315,-1.9476,-2.0207,-2.1173,-2.1949,-2.2247,-2.2784,-2.3262,-2.3541,-2.3322,0.0,0.0,0.0,0.0,-2.5027,-2.5319,-2.5815,-2.6733,-2.7805,-2.8676,-2.9349,-3.0972,-3.2083,-3.2689,-3.3476,-3.3953,-3.4041,-3.5438,-3.6549,-3.7503,-3.8398,-3.8689,-3.8278,-3.7902,-3.7412,-3.6872,-3.6685,-3.6855,-3.721,-3.7413,-3.7725,-3.8095,-3.9336,-3.9711,-3.9672,-3.9407,-3.9698,-4.0106,-4.0307,-4.0536,-4.0708,-4.044,-4.017,-3.9812,-3.9285,-3.8854,-3.8509,-3.8509,-3.8509,-3.8509,-3.8509,-3.8056,-3.7718,-3.7718,-3.6724,-3.5898,-3.5898,-3.5405,-3.5074,-3.5507,-3.599,-3.6531,-3.7352,-3.7042,-3.6808,-3.6886,-3.7366,-3.7853,-3.8127,-3.8202,-3.8277,-3.8366,-3.8738,-3.8839,-3.8736,-3.9058,-3.8728,-3.7636,-3.7849,-3.7638,-3.6893,-3.7181,-3.7361,-3.748,-3.8264,-3.8957,-3.9495,-4.0559,-4.1372,-1.1957,-1.2536,-1.3207,-1.4364,-1.5451,-1.6482,-1.7371,-1.8656,-1.9496,-1.9174,-1.9239,-1.9224,-1.8913,-1.8873,-1.9133,-1.9875,-2.0998,-2.193,-2.2462,-2.3046,-2.3529,-2.3897,-2.376,-2.3859,0.0,0.0,0.0,-2.5321,-2.5452,-2.6013,-2.7189,-2.8324,-2.9385,-3.0533,-3.2097,-3.3314,-3.4005,-3.4787,-3.5175,-3.5369,-3.6481,-3.7417,-3.8361,-3.8913,-3.9093,-3.8856,-3.8479,-3.7877,-3.7174,-3.7298,-3.761,-3.8062,-3.8566,-3.9138,-3.9764,-4.0946,-4.1639,-4.1977,-4.1355,-4.1477,-4.1972,-4.215,-4.2286,-4.2382,-4.2097,-4.1716,-4.1308,-4.065,-4.0156,-3.9762,-3.9557,-3.9502,-3.9502,-3.9502,-3.9202,-3.9015,-3.9015,-3.815,-3.7523,-3.7523,-3.6784,-3.6291,-3.664,-3.7013,-3.7505,-3.8202,-3.7901,-3.7519,-3.7596,-3.7839,-3.8066,-3.8202,-3.8277,-3.8339,-3.8326,-3.8661,-3.8877,-3.8682,-3.8923,-3.8762,-3.7825,-3.7982,-3.7793,-3.7197,-3.7421,-3.748,-3.748,-3.8384,-3.9106,-3.9826,-4.1035,-4.1898,-1.2774,-1.339,-1.415,-1.5408,-1.6348,-1.7206,-1.8166,-1.8984,-1.9354,-1.838,-1.8345,-1.8187,0.0,0.0,-1.862,-1.9133,-2.0662,-2.1959,-2.2452,-2.3267,-2.3907,0.0,0.0,0.0,0.0,0.0,0.0,-2.5826,0.0,-2.6574,-2.8038,-2.9026,-3.027,-3.1803,-3.3268,-3.4581,-3.5608,-3.6181,-3.6621,-3.7149,-3.7174,-3.7764,-3.8932,-3.8957,-3.8982,-3.9007,-3.8982,-3.8365,-3.7409,-3.8206,-3.8672,-3.8989,-3.9838,-4.0616,-4.1322,-4.215,-4.2916,-4.3526,-4.3393,-4.3505,-4.3693,-4.3588,-4.3652,-4.3797,-4.3481,-4.3165,-4.2803,-4.1959,-4.1411,-4.0905,-4.0277,-4.011,-4.0083,-4.0083,-4.0083,-4.0083,-4.0083,-3.967,-3.9227,-3.9227,-3.8242,-3.749,-3.7864,-3.7933,-3.8081,-3.8441,-3.8516,-3.8441,-3.8277,-3.8202,-3.8202,-3.8202,-3.8412,-3.8355,-3.8053,-3.8387,-3.8652,-3.8673,-3.8885,-3.8842,-3.8491,-3.8521,-3.8204,-3.7555,-3.7539,-3.7539,-3.7539,-3.8455,-3.9071,-3.9502,-4.1177,-4.2144,-1.3802,-1.4506,-1.5249,-1.6565,-1.7347,-1.7916,-1.8868,-1.9286,-1.9254,-1.8324,-1.7714,-1.7308,0.0,0.0,0.0,-1.9384,-2.0576,0.0,-2.2857,-2.3515,0.0,-2.4829,0.0,-2.5793,-2.6661,-2.7251,0.0,0.0,-2.7908,-2.8011,-2.9073,-3.0386,-3.1677,-3.2571,-3.4328,-3.5377,-3.5908,-3.6275,-3.6433,-3.6571,-3.719,-3.7855,-3.8551,-3.9155,-3.9675,-4.0071,-3.965,-3.9293,-3.9111,-3.9485,-3.9991,-4.0638,-4.1464,-4.2261,-4.3036,-4.3686,-4.4116,-4.4422,-4.4776,-4.5124,-4.5293,-4.5317,-4.4928,-4.4585,-4.4514,-4.4153,-4.3676,-4.3416,-4.2926,-4.2424,-4.2266,-4.1894,-4.1578,-4.1578,-4.1578,-4.1578,-4.1578,-4.1047,-4.0588,-4.0588,-3.957,-3.8552,-3.8217,-3.8243,-3.8441,-3.8885,-3.909,-3.9017,-3.8708,-3.8649,-3.8649,-3.8649,-3.85,-3.8344,-3.8447,-3.8702,-3.8725,-3.8513,-3.8928,-3.8926,-3.847,-3.8438,-3.8357,-3.8164,-3.8164,-3.8164,-3.8164,-3.8594,-3.9273,-4.011,-4.1372,-4.2367,-1.5119,-1.5849,-1.6444,-1.7296,-1.8005,-1.8473,-1.8616,-1.8844,-1.8649,-1.7606,-1.6836,0.0,0.0,0.0,0.0,0.0,0.0,0.0,-2.3082,-2.3932,-2.4762,0.0,-2.6174,0.0,-2.7862,-2.8559,-2.928,0.0,-2.9247,-2.9207,-3.0388,-3.1518,-3.2604,-3.3748,-3.4932,-3.5754,-3.6181,-3.637,-3.6358,-3.637,-3.6957,-3.7687,-3.8524,-3.9382,-4.0233,-4.1064,0.0,-4.0926,-4.0786,-4.1176,-4.1748,-4.2301,-4.3072,-4.3873,-4.4648,-4.4926,-4.5124,-4.5307,-4.5595,-4.579,-4.588,-4.588,-4.5634,-4.5329,-4.5329,-4.5082,-4.4763,-4.4472,-4.3921,-4.3355,-4.3065,-4.2542,-4.2092,-4.2092,-4.2092,-4.2092,-4.2092,-4.1802,-4.1366,-4.0851,-4.0246,-3.9459,-3.8587,-3.8723,-3.9017,-3.9322,-3.9595,-3.9722,-3.958,-3.9349,-3.9173,-3.8889,-3.8742,-3.8553,-3.8233,-3.8474,-3.859,-3.836,-3.8769,-3.895,-3.8766,-3.875,-3.875,-3.875,-3.875,-3.875,-3.875,-3.899,-3.9511,-4.021,-4.1603,-4.2613,-1.6542,-1.7216,-1.7616,-1.7865,-1.8375,-1.8657,-1.8046,-1.7966,-1.7667,-1.6534,0.0,-1.526,-1.5335,-1.571,-1.6546,-1.8012,0.0,-2.1745,-2.3178,-2.4399,-2.5544,-2.6524,-2.7058,-2.7813,-2.8905,-2.9726,-3.0507,-3.1112,-3.0406,-3.0543,-3.1802,-3.2352,-3.3351,-3.4928,-3.5456,-3.5974,-3.6452,-3.6546,-3.6546,-3.6546,-3.6815,-3.7565,-3.8778,-3.9746,-4.0776,-4.1896,-4.263,-4.2603,-4.2249,-4.3053,-4.3429,-4.3765,-4.4514,-4.5216,-4.588,-4.588,-4.588,-4.588,-4.588,-4.588,-4.597,-4.588,-4.588,-4.588,-4.588,-4.588,-4.5764,-4.5184,-4.4516,-4.3863,-4.3282,-4.2615,-4.2092,-4.2092,-4.2092,-4.2092,-4.2092,-4.2092,-4.1782,-4.0695,-4.051,-4.0162,-3.9151,-3.9292,-3.9595,-3.9824,-4.0091,-4.0424,-4.0593,-4.027,-3.9801,-3.9078,-3.9183,-3.8897,-3.795,-3.8243,-3.8451,-3.8439,-3.8717,-3.9061,-3.9312,-3.9312,-3.9365,-3.9348,-3.9401,-3.9401,-3.9401,-3.9746,-4.0054,-4.034,-4.2159,-4.3167,-1.8005,-1.8426,-1.8691,-1.8914,-1.8758,-1.8453,-1.8075,-1.7103,0.0,0.0,-1.4595,-1.4281,-1.4782,-1.5141,-1.6016,-1.8067,0.0,0.0,0.0,0.0,-2.6124,0.0,0.0,0.0,0.0,0.0,0.0,0.0,0.0,-3.2486,-3.2563,-3.3296,-3.449,-3.6075,-3.6395,-3.6633,-3.7015,-3.7214,-3.732,-3.732,-3.7952,-3.8608,-3.9349,-4.0572,-4.162,-4.2488,-4.3121,0.0,-4.3353,-4.3923,-4.427,-4.4542,-4.5158,-4.5595,-4.588,-4.588,-4.588,-4.588,-4.588,-4.6046,-4.6135,-4.597,-4.588,-4.588,-4.588,-4.588,-4.5866,-4.575,-4.4879,-4.3964,-4.3848,-4.2963,-4.2092,-4.2092,-4.2092,-4.2092,-4.2092,-4.2242,-4.2093,-4.1071,-4.1035,-4.083,-3.9847,-3.992,-4.0216,-4.0509,-4.0783,-4.1055,-4.139,-4.0987,-4.0436,-3.9792,-3.9673,-3.9313,-3.8658,-3.8656,-3.8809,-3.9044,-3.9329,-3.9661,-3.9918,-4.007,-4.0154,-4.0203,-4.0285,-4.0383,-4.0497,-4.1343,-4.1816,-4.2025,-4.3732,-4.4611,-1.9037,-1.9578,-1.982,-1.9717,-1.937,-1.8889,-1.7936,0.0,0.0,0.0,-1.4137,-1.3666,-1.4158,0.0,0.0,0.0,0.0,0.0,0.0,0.0,0.0,0.0,0.0,0.0,0.0,0.0,0.0,0.0,0.0,-3.3258,-3.3724,-3.4736,-3.5619,-3.6521,-3.6896,-3.7361,-3.7808,-3.8096,-3.8368,-3.8509,-3.8895,-3.9503,-4.0322,-4.1694,-4.282,-4.3681,-4.4758,-4.5187,-4.5187,-4.5293,-4.537,-4.5461,-4.5685,-4.579,-4.588,-4.588,-4.588,-4.588,-4.6046,-4.6314,-4.6565,-4.655,-4.6388,-4.6239,-4.6239,-4.6005,-4.5742,-4.5742,-4.482,-4.3826,-4.3826,-4.3109,-4.2392,-4.2392,-4.2392,-4.2392,-4.2392,-4.2607,-4.253,-4.1517,-4.1625,-4.1629,-4.0608,-4.0789,-4.1142,-4.144,-4.1704,-4.1948,-4.2093,-4.2077,-4.1534,-4.0324,-4.028,-3.9994,-3.9064,-3.9534,-3.9947,-4.0196,-4.088,-4.1189,-4.1116,-4.1263,-4.125,-4.0972,-4.1586,-4.196,-4.214,-4.3022,-4.3454,-4.358,-4.4774,-4.5368,-1.9861,-2.0472,-2.0757,-2.0278,-1.9862,-1.9125,-1.7754,-1.644,0.0,0.0,-1.3895,-1.3344,-1.3792,0.0,0.0,0.0,0.0,0.0,0.0,0.0,0.0,0.0,0.0,0.0,0.0,0.0,0.0,0.0,0.0,0.0,-3.4843,-3.5827,-3.6607,-3.6989,-3.7546,-3.816,-3.8765,-3.9149,-3.9401,-3.9697,-3.9927,-4.0388,-4.1114,-4.2582,-4.3718,-4.4486,-4.5666,-4.6167,-4.6182,-4.6138,-4.6094,-4.6094,-4.6077,-4.615,-4.6239,-4.6239,-4.6239,-4.6239,-4.6388,-4.6814,-4.7249,-4.7463,-4.7234,-4.6814,-4.6681,-4.628,-4.5836,-4.5702,-4.4828,-4.3938,-4.3938,-4.3434,-4.293,-4.293,-4.293,-4.293,-4.293,-4.3115,-4.2965,-4.2017,-4.2257,-4.2248,-4.148,-4.1722,-4.2126,-4.2396,-4.2632,-4.2818,-4.2818,-4.308,-4.2709,-4.1161,-4.1263,-4.1021,-4.0021,-4.0791,-4.139,-4.1699,-4.2449,-4.277,-4.2427,-4.2666,-4.2601,-4.2159,-4.304,-4.3601,-4.3835,-4.4623,-4.5018,-4.5036,-4.5781,-4.6139,-2.0346,-2.077,-2.0889,-2.0371,-1.9634,-1.871,-1.766,0.0,0.0,-1.4323,-1.3679,-1.3398,-1.4035,-1.4063,0.0,0.0,0.0,0.0,0.0,0.0,0.0,0.0,0.0,0.0,0.0,0.0,0.0,0.0,0.0,0.0,-3.5404,-3.6187,-3.7027,-3.8004,-3.8549,-3.906,-3.9724,-4.0201,-4.0474,-4.0546,-4.117,-4.1408,-4.1324,-4.2716,-4.35,-4.3823,-4.4501,-4.4796,0.0,-4.5373,-4.5767,-4.5969,-4.6592,-4.6931,-4.7135,-4.7135,-4.7135,-4.7207,-4.7422,-4.7749,-4.8141,-4.8407,-4.8157,-4.7628,-4.7023,-4.6796,-4.6615,-4.601,-4.5314,-4.4769,-4.4769,-4.427,-4.3771,-4.3771,-4.3771,-4.3771,-4.3771,-4.3518,-4.3104,-4.2751,-4.2669,-4.2525,-4.2462,-4.2772,-4.308,-4.3333,-4.3393,-4.3393,-4.3393,-4.3722,-4.3712,-4.3115,-4.2992,-4.282,-4.2381,-4.2705,-4.299,-4.3284,-4.3515,-4.3628,-4.3699,-4.3966,-4.4219,-4.4314,-4.4677,-4.4921,-4.5146,-4.592,-4.6318,-4.6318,-4.715,-4.7506,-2.0133,-2.087,-2.1198,-2.0553,-1.9703,-1.8654,-1.7295,0.0,-1.4638,-1.4089,-1.364,-1.3476,-1.3775,-1.4082,-1.4711,0.0,-1.7817,-1.9817,-2.2346,0.0,0.0,0.0,0.0,0.0,0.0,0.0,0.0,0.0,0.0,0.0,-3.6471,-3.721,-3.8,-3.8741,-3.9633,-4.0432,-4.1127,-4.1506,-4.184,-4.2073,-4.2266,-4.2348,-4.2333,-4.3254,-4.3826,-4.4132,-4.4757,-4.504,0.0,-4.5268,-4.5678,-4.6048,-4.6335,-4.6674,-4.7038,-4.7038,-4.7038,-4.7119,-4.7376,-4.7696,-4.8091,-4.8356,-4.845,-4.8481,-4.7849,-4.7068,-4.6343,-4.6066,-4.5434,-4.4849,-4.4849,-4.4649,-4.4434,-4.4586,-4.4737,-4.4688,-4.4433,-4.4341,-4.411,-4.3179,-4.3291,-4.346,-4.3272,-4.3578,-4.3914,-4.4266,-4.4434,-4.4473,-4.4567,-4.4749,-4.4881,-4.4801,-4.4214,-4.3683,-4.3458,-4.4065,-4.4595,-4.4809,-4.5333,-4.5432,-4.4981,-4.5223,-4.5287,-4.5011,-4.5725,-4.6179,-4.6391,-4.7195,-4.7579,-4.7597,-4.7926,-4.805,-1.9394,-2.0172,-2.0632,-2.0145,-1.9421,-1.843,0.0,-1.5946,-1.487,-1.4101,-1.3772,-1.3628,-1.3715,-1.4109,-1.4835,-1.6045,-1.7363,-1.914,-2.1849,0.0,0.0,0.0,0.0,0.0,0.0,0.0,0.0,0.0,0.0,0.0,-3.7475,-3.8321,-3.9047,-3.9648,-4.0517,-4.136,-4.217,-4.2526,-4.2784,-4.3076,-4.309,-4.309,-4.317,-4.3743,-4.4047,-4.4223,-4.4689,-4.4884,0.0,-4.5257,-4.5627,-4.614,-4.6434,-4.6874,-4.7291,-4.7291,-4.7291,-4.7368,-4.7643,-4.7961,-4.8275,-4.8544,-4.878,-4.8858,-4.8461,-4.753,-4.6618,-4.6339,-4.5708,-4.5142,-4.5142,-4.52,-4.5316,-4.5536,-4.5651,-4.5633,-4.533,-4.5185,-4.482,-4.3832,-4.3935,-4.4147,-4.3898,-4.4276,-4.478,-4.5232,-4.5425,-4.5563,-4.5749,-4.5868,-4.5968,-4.6102,-4.5495,-4.5049,-4.4805,-4.5496,-4.6043,-4.6291,-4.6829,-4.69,-4.6309,-4.6506,-4.6422,-4.6099,-4.6843,-4.7348,-4.7518,-4.8106,-4.8382,-4.8363,-4.8382,-4.8511,-1.8068,-1.8526,-1.8769,-1.9059,-1.8543,-1.7863,0.0,-1.6329,-1.5274,-1.4446,-1.4029,-1.3841,-1.3967,-1.4144,-1.4694,-1.5923,-1.6515,-1.7909,-2.0961,0.0,0.0,0.0,0.0,0.0,0.0,0.0,0.0,0.0,0.0,0.0,-3.8142,-3.922,-4.0095,-4.0641,-4.09,-4.1528,-4.2688,-4.309,-4.325,-4.3329,-4.3738,-4.3817,-4.363,-4.391,-4.3988,-4.3988,-4.4003,-4.4003,0.0,-4.5047,-4.5773,-4.6202,-4.7271,-4.7918,-4.8307,-4.8307,-4.8307,-4.8307,-4.8544,-4.878,-4.903,-4.9245,-4.9055,-4.8824,-4.8824,-4.838,-4.7712,-4.6862,-4.6349,-4.604,-4.5807,-4.6048,-4.6356,-4.6673,-4.6598,-4.6502,-4.6789,-4.5924,-4.4983,-4.4803,-4.4457,-4.4243,-4.4446,-4.4998,-4.558,-4.6087,-4.6346,-4.6566,-4.6863,-4.6908,-4.6908,-4.6908,-4.7107,-4.7151,-4.689,-4.7133,-4.7389,-4.7639,-4.7699,-4.7699,-4.7699,-4.7728,-4.7834,-4.7974,-4.8172,-4.8344,-4.8494,-4.8569,-4.8569,-4.8513,-4.8569,-4.9049,-1.7816,-1.8262,-1.8462,-1.8499,-1.7879,-1.7146,-1.6523,-1.5694,-1.4875,-1.4351,-1.4193,-1.4189,-1.4324,-1.4497,-1.5041,-1.6264,-1.6886,0.0,0.0,0.0,0.0,0.0,0.0,0.0,0.0,0.0,0.0,0.0,0.0,0.0,-3.8575,-3.9151,-3.9832,-4.045,-4.1414,-4.2134,-4.2514,-4.3214,-4.3723,-4.4143,-4.4373,-4.4752,-4.5036,-4.5126,-4.5126,-4.5126,-4.5126,-4.5126,-4.5216,-4.5641,-4.6158,-4.6605,-4.7114,-4.7594,-4.8109,-4.8109,-4.8109,-4.8109,-4.8193,-4.8261,-4.8345,-4.853,-4.8613,-4.8754,-4.8899,-4.8512,-4.7867,-4.7267,-4.7082,-4.6945,-4.6615,-4.6876,-4.7206,-4.6996,-4.7212,-4.7315,-4.668,-4.631,-4.5942,-4.5357,-4.5228,-4.525,-4.5354,-4.5784,-4.628,-4.6631,-4.6972,-4.7258,-4.7407,-4.7468,-4.7468,-4.7468,-4.7663,-4.7669,-4.7421,-4.7627,-4.787,-4.809,-4.813,-4.813,-4.813,-4.8151,-4.8172,-4.819,-4.8363,-4.855,-4.8713,-4.8714,-4.8992,-4.9547,-4.9582,-5.0396,0.0,-1.7303,-1.7466,-1.7593,-1.7202,-1.6689,-1.6153,-1.5531,-1.4965,-1.4506,-1.4461,-1.4543,-1.4658,-1.4859,-1.5392,-1.661,-1.7298,0.0,0.0,0.0,0.0,0.0,0.0,0.0,0.0,0.0,0.0,0.0,0.0,0.0,-3.9017,-3.9337,-3.9805,-4.0429,-4.1595,-4.2348,-4.2588,-4.3638,-4.4343,-4.4737,-4.511,-4.5478,-4.5929,-4.5929,-4.5929,-4.5929,-4.5929,-4.5929,0.0,-4.6214,-4.6636,-4.7033,-4.7337,-4.7754,-4.8179,-4.8179,-4.8179,-4.8179,-4.8179,-4.8179,-4.8244,-4.842,-4.8781,-4.909,-4.929,-4.8906,-4.8403,-4.8048,-4.7885,-4.7819,-4.7473,-4.7556,-4.7644,-4.7519,-4.7522,-4.7485,-4.7056,-4.6877,-4.6727,-4.6315,-4.6257,-4.6323,-4.631,-4.6624,-4.7008,-4.723,-4.7585,-4.787,-4.8032,-4.8032,-4.8032,-4.8032,-4.819,-4.8231,-4.8137,-4.8172,-4.8229,-4.8402,-4.8402,-4.8402,-4.8402,-4.8402,-4.8402,-4.8402,-4.8919,-4.9249,-4.9384,-4.9722,-5.0149,-5.0722,-5.0983,-5.1761,0.0,-1.5827,-1.6145,-1.6599,-1.6598,-1.6458,-1.6186,-1.584,0.0,-1.4938,-1.4856,-1.4887,-1.5013,-1.5238,-1.581,-1.7088,-1.7809,0.0,0.0,0.0,0.0,0.0,0.0,0.0,0.0,0.0,0.0,0.0,0.0,0.0,-3.9424,-3.9696,-4.0021,-4.0547,-4.1515,-4.2376,-4.3046,-4.4353,-4.5067,-4.5258,-4.5769,-4.6182,-4.6362,-4.641,-4.641,0.0,-4.641,-4.6426,-4.6442,-4.6807,-4.7218,-4.7538,-4.7919,-4.8244,-4.853,-4.853,-4.853,-4.853,-4.853,-4.853,-4.8593,-4.8917,-4.9265,-4.9664,-4.9786,-4.9529,-4.9239,-4.9023,-4.8832,-4.8562,-4.8404,-4.8068,-4.7785,-4.8087,-4.7622,-4.7206,-4.7677,-4.7563,-4.7371,-4.7446,-4.7428,-4.7428,-4.7281,-4.7488,-4.7715,-4.7919,-4.8153,-4.842,-4.8587,-4.8623,-4.8623,-4.8623,-4.8768,-4.8909,-4.9023,-4.8714,-4.8587,-4.866,-4.866,-4.866,-4.866,-4.8715,-4.8733,-4.8733,-4.9852,-5.0486,-5.0534,-5.1282,-5.1794,-5.2019,-5.2585,-5.3046,-1.4612,0.0,-1.6664,-1.6566,-1.6714,-1.6768,0.0,-1.5874,-1.5474,0.0,0.0,-1.5359,-1.5448,-1.601,-1.6843,-1.8134,-1.8891,0.0,0.0,0.0,0.0,0.0,0.0,0.0,0.0,0.0,0.0,0.0,0.0,-3.9854,-3.9854,-4.0316,-4.0646,-4.0873,-4.2071,-4.2925,-4.3443,-4.4953,-4.5985,-4.6394,-4.6689,-4.6825,-4.675,-4.7325,-4.7275,-4.6766,-4.7341,-4.7571,-4.7638,-4.7836,-4.8065,-4.845,-4.8673,-4.8906,-4.9178,-4.9178,-4.9178,-4.9178,-4.9178,-4.9178,-4.9137,-4.9045,-4.9158,-4.9278,-4.901,-4.9347,-4.9873,-4.9815,-4.9407,-4.8981,-4.8872,-4.8488,-4.8083,-4.7684,-4.7805,-4.7925,-4.7687,-4.7753,-4.7852,-4.7937,-4.7937,-4.7897,-4.7834,-4.7995,-4.8172,-4.821,-4.8458,-4.8697,-4.882,-4.8872,-4.894,-4.8971,-4.9141,-4.9289,-4.9302,-4.909,-4.9005,-4.9113,-4.9145,-4.9145,-4.9145,-4.9781,-5.0118,-5.0118,-5.1242,-5.1835,-5.1843,-5.2035,-5.247,-5.315,-5.3331,-5.3827,-1.4418,-1.5301,-1.6151,-1.6094,-1.6582,-1.6961,-1.6413,0.0,0.0,0.0,0.0,0.0,-1.6491,0.0,0.0,0.0,-2.1034,0.0,0.0,0.0,0.0,0.0,0.0,0.0,0.0,0.0,0.0,0.0,0.0,-4.0168,-4.0168,-4.0868,-4.1409,-4.1722,-4.2815,-4.3375,-4.3357,-4.4713,-4.5617,-4.6007,-4.6273,-4.6404,-4.6504,-4.6919,-4.7068,-4.7178,-4.7578,-4.7944,-4.8244,-4.8483,-4.8719,-4.8951,-4.9229,-4.9453,-4.9598,-4.9598,-4.9598,-4.9656,-4.9698,-4.9913,-5.0077,-4.9604,-4.9627,-4.9661,-4.9091,-4.9341,-4.9837,-4.9732,-4.952,-4.9339,-4.9387,-4.895,-4.8372,-4.8057,-4.8057,-4.8091,-4.7966,-4.8114,-4.8326,-4.8421,-4.8476,-4.8476,-4.8402,-4.8476,-4.8569,-4.8569,-4.8804,-4.9012,-4.9127,-4.922,-4.9296,-4.9412,-4.9569,-4.9655,-4.974,-4.9665,-4.9579,-4.9442,-4.9442,-4.9631,-5.0026,-5.0478,-5.1141,-5.1956,-5.2617,-5.3139,-5.3575,-5.3538,-5.3784,-5.4239,-5.4239,-5.4544,-1.4472,-1.5086,-1.5551,-1.5787,-1.6636,-1.7252,-1.6791,0.0,0.0,0.0,0.0,0.0,0.0,0.0,0.0,0.0,0.0,0.0,0.0,0.0,0.0,0.0,0.0,0.0,0.0,0.0,0.0,0.0,0.0,-4.0324,-4.0324,-4.1246,-4.1965,-4.2486,-4.3355,-4.3667,-4.325,-4.435,-4.4952,-4.5146,-4.545,-4.5698,-4.5907,-4.6024,-4.648,-4.7183,0.0,0.0,-4.8505,-4.8951,-4.9212,-4.9359,-4.9691,-4.9884,-5.0057,-5.0057,-5.0057,-5.008,-5.015,-5.0538,-5.0822,-5.0054,-4.9987,-5.0074,-4.9287,-4.9159,-4.9325,-4.9123,-4.9305,-4.9613,-4.9774,-4.9245,-4.8654,-4.8654,-4.8311,-4.8078,-4.8344,-4.8569,-4.875,-4.8925,-4.8978,-4.8978,-4.8978,-4.8978,-4.8978,-4.8978,-4.9146,-4.934,-4.9476,-4.9588,-4.9712,-4.9857,-4.9955,-5.007,-5.0326,-5.0474,-5.0392,-5.0146,-5.0005,-5.0383,-5.1367,-5.1405,-5.2182,-5.3851,-5.3926,-5.4343,-5.514,-5.5085,-5.5085,-5.514,-5.5085,-5.5113,-1.4327,-1.5452,-1.648,-1.693,-1.7636,-1.8281,0.0,0.0,0.0,0.0,0.0,0.0,0.0,0.0,0.0,0.0,0.0,0.0,0.0,0.0,0.0,0.0,0.0,0.0,0.0,0.0,0.0,0.0,0.0,-4.0003,-4.0003,-4.1,-4.1695,-4.2059,-4.3081,-4.3717,-4.3955,-4.5057,-4.5673,-4.5656,-4.5827,-4.574,-4.5488,-4.6228,-4.6447,-4.6294,0.0,-4.8201,-4.843,-4.9257,-4.975,-4.9988,-5.0211,-5.0471,-5.0764,-5.0764,-5.0764,-5.0714,-5.0466,-5.057,-5.0629,-4.9334,-4.8937,-4.8854,-4.8078,-4.7995,-4.8202,-4.84,-4.8849,-4.9294,-4.9501,-4.8959,-4.8355,-4.8355,-4.8437,-4.855,-4.875,-4.8978,-4.9146,-4.9289,-4.9302,-4.9302,-4.9302,-4.9302,-4.9302,-4.9302,-4.9495,-4.9673,-4.9797,-4.9933,-5.0063,-5.0212,-5.0283,-5.0635,-5.1385,-5.1529,-5.1817,-5.2437,-5.1848,-5.2131,-5.3626,-5.3683,-5.4136,-5.5103,-5.5141,-5.5198,-5.5358,-5.5332,-5.5332,-5.5358,-5.5332,-5.5332,-1.4415,-1.5727,-1.7087,-1.8163,-1.8903,-1.9443,-1.9651,0.0,0.0,0.0,0.0,0.0,0.0,0.0,0.0,0.0,0.0,0.0,0.0,0.0,0.0,0.0,0.0,0.0,0.0,0.0,0.0,0.0,0.0,0.0,-4.0147,-4.1082,-4.1931,-4.2641,-4.318,-4.3833,-4.4558,-4.5048,-4.5169,-4.4863,-4.5068,-4.5118,-4.5026,-4.5609,-4.602,-4.6327,0.0,-4.7713,-4.8165,-4.8844,-4.9201,-4.9451,-5.0189,-5.054,-5.0766,-5.1191,-5.1436,-5.1482,-5.0988,-5.1002,-5.1022,-4.9586,-4.914,-4.8995,-4.8192,-4.8096,-4.8327,-4.855,-4.8753,-4.8934,-4.9122,-4.8882,-4.8642,-4.8642,-4.8785,-4.8959,-4.9127,-4.9302,-4.9457,-4.9598,-4.9627,-4.9627,-4.9627,-4.9627,-4.9627,-4.9627,-4.9759,-4.9895,-5.0051,-5.0212,-5.0371,-5.05,-5.0945,-5.1367,-5.177,-5.2274,-5.2675,-5.2973,-5.3088,-5.3491,-5.4235,-5.4647,-5.502,-5.5396,-5.5409,-5.5403,-5.5403,-5.5403,-5.5403,-5.5403,-5.5403,-5.5632,-1.4735,-1.5993,-1.7371,-1.9144,0.0,-2.041,-2.0901,0.0,0.0,0.0,0.0,0.0,0.0,0.0,0.0,0.0,0.0,0.0,0.0,0.0,0.0,0.0,0.0,0.0,0.0,0.0,0.0,0.0,0.0,0.0,-4.0226,-4.1088,-4.1959,-4.2753,-4.3271,-4.3946,-4.4761,-4.4932,-4.4818,-4.431,-4.4575,-4.478,-4.4927,-4.5213,-4.5752,-4.6428,-4.6813,-4.737,-4.8067,-4.8635,-4.8937,-4.9155,-5.0008,-5.0354,-5.0426,-5.1034,-5.1461,-5.1571,-5.0985,-5.0933,-5.0986,-4.974,-4.9358,-4.9229,-4.8642,-4.8587,-4.8785,-4.8959,-4.894,-4.8853,-4.8993,-4.9027,-4.9027,-4.9027,-4.9179,-4.934,-4.9476,-4.9617,-4.9759,-4.9903,-4.9929,-4.9929,-4.9929,-4.9929,-4.9929,-4.9929,-5.0032,-5.013,-5.0249,-5.0572,-5.0851,-5.0971,-5.1722,-5.2299,-5.2491,-5.3299,-5.3738,-5.3632,-5.4073,-5.4418,-5.4588,-5.5155,-5.5432,-5.5432,-5.5421,-5.5409,-5.5409,-5.5409,-5.5384,-5.5403,-5.5594,-5.6014,-1.5439,-1.6217,-1.7356,-1.959,0.0,0.0,-2.2471,0.0,0.0,0.0,0.0,0.0,0.0,0.0,0.0,0.0,0.0,0.0,0.0,0.0,0.0,0.0,0.0,0.0,0.0,0.0,0.0,0.0,0.0,0.0,-3.9761,-4.0675,-4.1305,-4.1546,-4.3099,-4.4061,-4.4268,-4.5114,-4.5302,-4.4855,-4.5052,-4.5283,-4.5529,-4.5684,-4.5939,-4.6295,-4.728,-4.786,-4.817,-4.912,-4.9639,-4.9803,-4.992,-4.9938,-4.9938,-5.001,-5.0206,-5.0338,-4.9742,-4.9724,-4.9805,-4.9174,-4.8948,-4.8948,-4.8874,-4.9012,-4.9179,-4.9321,-4.9439,-4.951,-4.9396,-4.9365,-4.9365,-4.9365,-4.9525,-4.9692,-4.9843,-4.9959,-5.0089,-5.0255,-5.0259,-5.0259,-5.0259,-5.0259,-5.0259,-5.0259,-5.0325,-5.0412,-5.0459,-5.1195,-5.1738,-5.1798,-5.2587,-5.3433,-5.4241,-5.5049,-5.5511,-5.5511,-5.4876,-5.4776,-5.5481,-5.5577,-5.5551,-5.5504,-5.548,-5.5456,-5.5383,-5.5383,-5.5396,-5.5422,-5.6167,-5.653,-1.5622,-1.6738,-1.8113,-1.9929,0.0,0.0,0.0,0.0,0.0,0.0,0.0,0.0,0.0,0.0,0.0,0.0,0.0,0.0,0.0,0.0,0.0,0.0,0.0,0.0,0.0,0.0,0.0,0.0,0.0,0.0,-4.0137,-4.0559,-4.115,-4.1859,-4.2593,-4.3325,-4.4021,-4.4528,-4.4746,-4.4659,-4.5548,-4.602,-4.6182,-4.6429,-4.659,-4.672,-4.7237,-4.7617,-4.7821,-4.8363,-4.8701,-4.8963,-4.9474,-4.9966,-5.0404,-5.0404,-5.0529,-5.0662,-5.0045,-4.999,-5.0056,-4.9421,-4.9225,-4.9225,-4.9225,-4.9352,-4.9525,-4.9683,-4.9824,-4.9887,-4.9684,-4.9655,-4.9655,-4.9655,-4.9768,-4.9922,-5.0057,-5.0217,-5.0393,-5.0521,-5.0542,-5.0542,-5.0542,-5.0542,-5.0542,-5.0542,-5.0563,-5.0603,-5.0623,-5.1355,-5.1875,-5.1894,-5.3164,-5.4337,-5.5184,-5.553,-5.5703,-5.5703,-5.5415,-5.5376,-5.5662,-5.5618,-5.5596,-5.5551,-5.5527,-5.548,-5.5456,-5.5432,-5.567,-5.6225,-5.648,-5.716,-1.6148,-1.7119,-1.835,0.0,0.0,0.0,0.0,0.0,0.0,0.0,0.0,0.0,0.0,0.0,0.0,0.0,0.0,0.0,0.0,0.0,0.0,0.0,0.0,0.0,0.0,0.0,0.0,0.0,0.0,0.0,0.0,-4.0926,-4.1325,-4.2096,-4.2514,-4.3037,-4.3747,-4.4254,-4.4563,-4.4742,-4.5954,-4.6506,-4.647,-4.6955,-4.7169,-4.7214,-4.7414,-4.7609,-4.7856,-4.8093,-4.8306,-4.855,-4.9121,-4.9674,-5.0153,-5.0153,-5.0267,-5.0379,-5.0001,-5.0,-5.0071,-4.9657,-4.9529,-4.9529,-4.9529,-4.9665,-4.9824,-4.9967,-5.0114,-5.0212,-5.0106,-5.0032,-4.9955,-4.9955,-5.0032,-5.0174,-5.0268,-5.0418,-5.0563,-5.0663,-5.0702,-5.0779,-5.1029,-5.1087,-5.1087,-5.1087,-5.1298,-5.1395,-5.1106,-5.2049,-5.2818,-5.3068,-5.4164,-5.5107,-5.5667,-5.5724,-5.5745,-5.5745,-5.5766,-5.5745,-5.5703,-5.566,-5.5618,-5.5618,-5.5573,-5.5685,-5.593,-5.5883,-5.6299,-5.7111,-5.7308,-5.8028,-1.7097,-1.7308,0.0,0.0,0.0,0.0,0.0,0.0,0.0,0.0,0.0,0.0,0.0,0.0,0.0,0.0,0.0,0.0,0.0,0.0,0.0,0.0,0.0,0.0,0.0,0.0,0.0,0.0,0.0,0.0,0.0,-4.1778,-4.1924,-4.1924,-4.2857,-4.3369,-4.3369,-4.4366,-4.4993,-4.5196,-4.627,-4.6652,-4.645,-4.7228,-4.7591,-4.7632,-4.782,-4.8056,-4.8306,-4.8514,-4.8714,-4.8909,-4.889,-4.889,-4.889,-4.889,-4.9046,-4.9211,-4.9352,-4.9469,-4.9627,-4.9749,-4.9784,-4.9784,-4.9784,-4.991,-5.0038,-5.0159,-5.0355,-5.0521,-5.0663,-5.05,-5.0302,-5.0302,-5.0348,-5.0435,-5.05,-5.0542,-5.0623,-5.0702,-5.0702,-5.0952,-5.176,-5.1914,-5.1914,-5.1914,-5.2664,-5.2895,-5.2029,-5.3433,-5.4799,-5.5607,-5.5703,-5.5724,-5.5787,-5.5787,-5.5826,-5.5905,-5.5905,-5.5846,-5.5703,-5.5703,-5.5703,-5.5703,-5.5703,-5.6104,-5.6883,-5.6902,-5.7297,-5.803,-5.8814,-5.9171,-1.6619,0.0,0.0,0.0,0.0,0.0,0.0,0.0,0.0,0.0,0.0,0.0,0.0,0.0,0.0,0.0,0.0,0.0,0.0,0.0,0.0,0.0,0.0,0.0,0.0,0.0,0.0,0.0,0.0,0.0,0.0,-4.2483,-4.2541,-4.2541,-4.2814,-4.2979,-4.2979,-4.3462,-4.376,-4.3962,-4.5571,-4.6562,-4.6923,-4.7727,-4.8075,-4.8093,-4.8267,-4.8382,-4.855,-4.889,-4.9061,-4.9211,-4.9225,-4.9257,-4.9257,-4.9257,-4.9384,-4.9555,-4.9731,-4.9852,-4.9967,-5.0095,-5.0144,-5.0144,-5.0144,-5.0193,-5.0306,-5.0396,-5.0481,-5.0603,-5.0663,-5.0643,-5.0563,-5.0563,-5.0603,-5.0623,-5.0643,-5.0643,-5.0682,-5.0702,-5.1164,-5.1625,-5.1875,-5.2414,-5.2818,-5.2818,-5.3029,-5.3337,-5.3683,-5.4184,-5.4799,-5.5607,-5.5703,-5.5724,-5.5787,-5.5827,-5.5901,-5.5973,-5.6013,-5.5985,-5.5846,-5.5826,-5.5826,-5.5826,-5.6444,-5.6868,-5.7117,-5.7634,-5.8303,-5.9123,-5.9331,-5.9725,-1.7156,0.0,0.0,0.0,0.0,0.0,0.0,0.0,0.0,0.0,0.0,0.0,0.0,0.0,0.0,0.0,0.0,0.0,0.0,0.0,0.0,0.0,0.0,0.0,0.0,0.0,0.0,0.0,0.0,0.0,-4.3069,-4.3069,-4.3069,-4.3069,-4.3069,-4.3069,-4.3069,-4.3267,-4.3426,-4.3582,-4.5078,-4.5965,-4.643,-4.7868,-4.8532,-4.8532,-4.8624,-4.8732,-4.8855,-4.916,-4.9321,-4.9427,-4.9529,-4.9558,-4.9558,-4.9558,-4.9674,-4.9833,-4.9974,-5.012,-5.0278,-5.0435,-5.0457,-5.0457,-5.0457,-5.0478,-5.0521,-5.0563,-5.0603,-5.0643,-5.0683,-5.0702,-5.0702,-5.0702,-5.0702,-5.0702,-5.0702,-5.0952,-5.1183,-5.1183,-5.1856,-5.2529,-5.2876,-5.3376,-5.3722,-5.3722,-5.3723,-5.4032,-5.4938,-5.5054,-5.5246,-5.5728,-5.5785,-5.5826,-5.5904,-5.5973,-5.6017,-5.6112,-5.6155,-5.6142,-5.6056,-5.6007,-5.5971,-5.5971,-5.6839,-5.7439,-5.7807,-5.8584,-5.9398,-6.0191,-6.0152,-6.0403,0.0,0.0,0.0,0.0,0.0,0.0,0.0,0.0,0.0,0.0,0.0,0.0,0.0,0.0,0.0,0.0,0.0,0.0,0.0,0.0,0.0,0.0,0.0,0.0,0.0,0.0,0.0,0.0,0.0,-4.312,-4.3311,-4.3345,-4.3345,-4.3345,-4.3401,-4.3456,-4.3456,-4.356,-4.3682,-4.3837,-4.4698,-4.5185,-4.5379,-4.772,-4.8869,-4.8943,-4.8925,-4.9079,-4.9244,-4.9384,-4.9499,-4.9655,-4.9776,-4.9857,-4.9857,-4.9857,-4.9936,-5.0038,-5.0183,-5.0355,-5.0521,-5.0663,-5.0702,-5.0702,-5.0702,-5.0702,-5.0702,-5.0702,-5.0702,-5.0702,-5.0702,-5.0702,-5.0702,-5.0702,-5.0702,-5.0702,-5.0702,-5.1337,-5.1914,-5.1914,-5.2683,-5.3568,-5.4357,-5.4549,-5.4607,-5.4607,-5.4611,-5.494,-5.5789,-5.5904,-5.5923,-5.5923,-5.5923,-5.5979,-5.6114,-5.6102,-5.6174,-5.6294,-5.6319,-5.6329,-5.6329,-5.6185,-5.6168,-5.6246,-5.7081,-5.7956,-5.883,-5.9704,-6.0468,-6.1123,-6.1123,-6.1089,0.0,0.0,0.0,0.0,0.0,0.0,0.0,0.0,0.0,0.0,0.0,0.0,0.0,0.0,0.0,0.0,0.0,0.0,0.0,0.0,0.0,0.0,0.0,0.0,0.0,0.0,0.0,0.0,-4.1603,-4.1783,-4.1989,-4.202,-4.202,-4.202,-4.2631,-4.2965,-4.2965,-4.3577,-4.3942,-4.3961,-4.4846,-4.5287,-4.5361,-4.7192,-4.8464,-4.9244,-4.9257,-4.9415,-4.9604,-4.9759,-4.9879,-5.0012,-5.0139,-5.0169,-5.0169,-5.0169,-5.0236,-5.0348,-5.0416,-5.05,-5.0603,-5.0663,-5.0702,-5.0702,-5.0702,-5.0702,-5.0702,-5.0702,-5.0702,-5.0702,-5.0702,-5.0702,-5.0702,-5.0702,-5.0702,-5.0702,-5.0702,-5.1337,-5.1914,-5.1914,-5.3164,-5.428,-5.4472,-5.5011,-5.5455,-5.5516,-5.5576,-5.5687,-5.5952,-5.6029,-5.6068,-5.6068,-5.6068,-5.6082,-5.6175,-5.6239,-5.63,-5.6375,-5.6478,-5.6542,-5.6542,-5.6368,-5.6578,-5.727,-5.8126,-5.8982,-5.9799,-6.0662,-6.1187,-6.1331,-6.1331,-6.1331,0.0,0.0,0.0,0.0,0.0,0.0,0.0,0.0,0.0,0.0,0.0,0.0,0.0,0.0,0.0,0.0,0.0,0.0,0.0,0.0,0.0,0.0,0.0,0.0,0.0,0.0,0.0,-4.1117,-4.1298,-4.144,-4.159,-4.159,-4.159,-4.159,-4.2028,-4.2448,-4.288,-4.3338,-4.3778,-4.4218,-4.4685,-4.5156,-4.5656,-4.7205,-4.829,-4.8912,-4.9389,-4.9703,-4.986,-4.9974,-5.0144,-5.0302,-5.0438,-5.05,-5.05,-5.05,-5.0521,-5.0542,-5.0584,-5.0623,-5.0643,-5.0702,-5.0702,-5.0702,-5.0702,-5.0702,-5.0702,-5.0702,-5.0702,-5.0702,-5.0702,-5.0702,-5.0702,-5.0702,-5.0702,-5.0702,-5.0702,-5.1664,-5.2529,-5.2529,-5.3895,-5.5068,-5.5068,-5.5415,-5.5724,-5.5826,-5.5901,-5.5985,-5.6067,-5.6142,-5.6205,-5.6205,-5.6205,-5.6228,-5.629,-5.6338,-5.6379,-5.6446,-5.6533,-5.6762,-5.7153,-5.707,-5.7237,-5.7685,-5.8952,-5.9829,-6.0258,-6.1108,-6.1537,-6.1537,-6.1537,-6.1537,0.0,0.0,0.0,0.0,0.0,0.0,0.0,0.0,0.0,0.0,0.0,0.0,0.0,0.0,0.0,0.0,0.0,0.0,0.0,0.0,0.0,0.0,0.0,0.0,0.0,0.0,-4.0154,-4.088,-4.1014,-4.1123,-4.1163,-4.1163,-4.1163,-4.1163,-4.1398,-4.1857,-4.2604,-4.296,-4.3548,-4.4325,-4.4476,-4.4952,-4.581,-4.7193,-4.806,-4.8512,-4.9311,-4.9803,-5.0081,-5.0202,-5.0355,-5.0521,-5.0643,-5.0702,-5.0702,-5.0702,-5.0702,-5.0702,-5.0702,-5.0702,-5.0702,-5.0702,-5.0702,-5.0702,-5.0702,-5.0702,-5.0702,-5.0702,-5.0702,-5.0702,-5.0702,-5.0702,-5.0702,-5.0702,-5.0702,-5.0702,-5.0683,-5.201,-5.3203,-5.3203,-5.4549,-5.5703,-5.5703,-5.5703,-5.5745,-5.5885,-5.5973,-5.6063,-5.6193,-5.6286,-5.6349,-5.6349,-5.6349,-5.6368,-5.643,-5.6425,-5.6465,-5.6509,-5.6699,-5.7113,-5.7777,-5.8089,-5.8246,-5.8246,-5.9671,-6.0471,-6.0627,-6.1349,-6.1701,-6.1701,-6.1701,-6.1701,0.0,0.0,0.0,0.0,0.0,0.0,0.0,0.0,0.0,0.0,0.0,0.0,0.0,0.0,0.0,0.0,0.0,0.0,0.0,0.0,0.0,0.0,0.0,0.0,0.0,0.0,-3.9277,-3.9389,-3.9407,-3.9435,-3.9435,-3.9435,-3.9435,-3.9435,-4.03,-4.0828,-4.1016,-4.2566,-4.3448,-4.3629,-4.4386,-4.4876,-4.5171,-4.6214,-4.7472,-4.8764,-4.9001,-4.9572,-5.0348,-5.0438,-5.0521,-5.0603,-5.0663,-5.0702,-5.0702,-5.0702,-5.0702,-5.0702,-5.0702,-5.0702,-5.0702,-5.0702,-5.0702,-5.0702,-5.0702,-5.0702,-5.0702,-5.0702,-5.0702,-5.0702,-5.0702,-5.0702,-5.0702,-5.0702,-5.0702,-5.0702,-5.0702,-5.201,-5.3203,-5.3203,-5.4549,-5.5703,-5.5703,-5.5703,-5.5745,-5.5885,-5.6017,-5.6136,-5.6267,-5.6457,-5.6553,-5.6553,-5.6553,-5.6553,-5.6577,-5.6577,-5.6577,-5.6582,-5.725,-5.7699,-5.7797,-5.9241,-6.0041,-6.0041,-6.0276,-6.0764,-6.1525,-6.1642,-6.1701,-6.1701,-6.1701,-6.1701,-1.9119,-2.2643,0.0,0.0,0.0,0.0,0.0,0.0,0.0,0.0,0.0,0.0,0.0,0.0,0.0,0.0,0.0,0.0,0.0,0.0,0.0,0.0,0.0,0.0,0.0,0.0,-3.9272,-3.9324,-3.9324,-3.9324,-3.9324,-3.9324,-3.9324,-3.9324,-3.9827,-4.0371,-4.0901,-4.1798,-4.2746,-4.377,-4.4668,-4.5132,-4.5237,-4.5684,-4.6506,-4.7687,-4.8752,-4.9447,-4.9891,-5.0392,-5.0623,-5.0643,-5.0702,-5.0702,-5.0702,-5.0702,-5.0702,-5.0702,-5.0702,-5.0702,-5.0702,-5.0702,-5.0702,-5.0702,-5.0702,-5.0702,-5.0702,-5.0702,-5.0702,-5.0702,-5.0702,-5.0702,-5.0702,-5.0702,-5.1068,-5.1433,-5.1485,-5.2414,-5.3552,-5.4515,-5.5305,-5.5806,-5.5806,-5.5806,-5.5866,-5.5979,-5.6093,-5.6197,-5.6349,-5.6504,-5.6606,-5.6606,-5.6606,-5.6606,-5.6606,-5.6606,-5.6782,-5.7231,-5.7601,-5.8246,-5.9222,-5.9983,-6.0627,-6.1115,-6.1134,-6.133,-6.1701,-6.1701,-6.1701,-6.1701,-6.1701,-6.1954,-1.9499,-2.2154,-2.4312,0.0,0.0,0.0,0.0,0.0,0.0,0.0,0.0,0.0,0.0,0.0,0.0,0.0,0.0,0.0,0.0,0.0,0.0,0.0,0.0,0.0,0.0,-3.9314,-3.9483,-3.9561,-3.9561,-3.9561,-3.9561,-3.9561,-3.9561,-3.9561,-3.9721,-4.0135,-4.087,-4.1242,-4.2221,-4.379,-4.4632,-4.5073,-4.5132,-4.5343,-4.5803,-4.6513,-4.8068,-4.9009,-4.9452,-5.0087,-5.0491,-5.0702,-5.0702,-5.0702,-5.0702,-5.0702,-5.0702,-5.0702,-5.0702,-5.0702,-5.0702,-5.0702,-5.0702,-5.0702,-5.0702,-5.0721,-5.0721,-5.0721,-5.0721,-5.0721,-5.0721,-5.0721,-5.0779,-5.0991,-5.1567,-5.2178,-5.2647,-5.3265,-5.4141,-5.5668,-5.5958,-5.5958,-5.5958,-5.5958,-5.5993,-5.6106,-5.6188,-5.6271,-5.6386,-5.6517,-5.6606,-5.6606,-5.6782,-5.6899,-5.6899,-5.7113,-5.7484,-5.8089,-5.8343,-5.9046,-6.0354,-6.0607,-6.1037,-6.1701,-6.1701,-6.1701,-6.1701,-6.1701,-6.1701,-6.1701,-6.1701,-6.2169,-1.6941,-1.9225,0.0,0.0,0.0,0.0,0.0,0.0,0.0,0.0,0.0,0.0,0.0,0.0,0.0,0.0,0.0,0.0,0.0,0.0,0.0,0.0,0.0,0.0,0.0,-3.9171,-3.9721,-3.9775,-3.9775,-3.9775,-3.9775,-3.9775,-3.9775,-3.9775,-3.9922,-4.0061,-4.0253,-4.1274,-4.2242,-4.3165,-4.3972,-4.4338,-4.4393,-4.522,-4.5605,-4.572,-4.6624,-4.7932,-4.9394,-4.9452,-4.9952,-5.0702,-5.0702,-5.0702,-5.0702,-5.0702,-5.0702,-5.0702,-5.0702,-5.0702,-5.0702,-5.0702,-5.0702,-5.0701,-5.0701,-5.0738,-5.0793,-5.0793,-5.0793,-5.0793,-5.0793,-5.0793,-5.1005,-5.1834,-5.2111,-5.2632,-5.422,-5.4696,-5.5074,-5.5929,-5.6084,-5.6084,-5.6084,-5.6084,-5.6117,-5.6173,-5.6251,-5.6316,-5.6391,-5.6523,-5.6606,-5.6606,-5.7289,-5.7738,-5.7738,-5.8499,-5.8987,-5.9026,-5.9807,-6.0315,-6.0393,-6.1193,-6.1642,-6.1701,-6.1701,-6.1701,-6.1701,-6.1701,-6.1701,-6.1701,-6.1701,-6.2169,-1.5974,0.0,0.0,0.0,0.0,0.0,0.0,0.0,0.0,0.0,0.0,0.0,0.0,0.0,0.0,0.0,0.0,0.0,0.0,0.0,0.0,0.0,0.0,0.0,0.0,-3.8866,-3.9369,-4.0023,-4.0061,-4.0061,-4.0061,-4.0061,-4.0061,-4.0061,-4.0158,-4.0252,-4.0396,-4.1325,-4.197,-4.2277,-4.3643,-4.4297,-4.4335,-4.5201,-4.5586,-4.5605,-4.5932,-4.6721,-4.7836,-4.8355,-4.8759,-4.9029,-4.9029,-4.9029,-4.9029,-4.9029,-4.9029,-4.9029,-4.9029,-4.9394,-4.9875,-4.9875,-5.024,-5.072,-5.0789,-5.0855,-5.0863,-5.0918,-5.0932,-5.0932,-5.0932,-5.1353,-5.2142,-5.3624,-5.4012,-5.4382,-5.553,-5.5792,-5.5866,-5.6158,-5.6236,-5.6236,-5.6236,-5.6236,-5.6258,-5.632,-5.6347,-5.6398,-5.6465,-5.6533,-5.6801,-5.7328,-5.7621,-5.8031,-5.8597,-5.8929,-5.9339,-5.9905,-6.0237,-6.0646,-6.1213,-6.1525,-6.1701,-6.1701,-6.1701,-6.1701,-6.1701,-6.1701,-6.1701,-6.1701,-6.1701,-6.2462,-1.5273,0.0,0.0,0.0,0.0,0.0,0.0,0.0,0.0,0.0,0.0,0.0,0.0,0.0,0.0,0.0,0.0,0.0,0.0,0.0,0.0,0.0,0.0,0.0,0.0,-3.8233,-3.8745,-3.9407,-3.9463,0.0,-3.9463,-3.975,-4.0018,-4.0286,-4.0341,-4.0411,-4.0515,-4.1069,-4.1354,-4.1373,-4.2797,-4.3605,-4.3932,-4.4778,-4.5316,-4.5586,-4.5586,-4.6086,-4.6951,-4.749,-4.7855,-4.8124,-4.8124,-4.8161,-4.8161,-4.8161,-4.8161,-4.8161,-4.8161,-4.8719,-4.9431,-4.9431,-5.0063,-5.0825,-5.0902,-5.0976,-5.1005,-5.1058,-5.107,-5.1128,-5.1431,-5.2344,-5.3533,-5.4732,-5.5297,-5.5708,-5.6296,-5.641,-5.6405,-5.6405,-5.6405,-5.6405,-5.6405,-5.6405,-5.6511,-5.6815,-5.6868,-5.6998,-5.7333,-5.7402,-5.7641,-5.8187,-5.8499,-5.8909,-5.9495,-5.9807,-6.0217,-6.0803,-6.0842,-6.1095,-6.1681,-6.1701,-6.1701,-6.1701,-6.1701,-6.1701,-6.1701,-6.1701,-6.1701,-6.1701,-6.1701,-6.2637,0.0,0.0,0.0,0.0,0.0,0.0,0.0,0.0,0.0,0.0,0.0,0.0,0.0,0.0,0.0,0.0,0.0,0.0,0.0,0.0,0.0,0.0,0.0,0.0,0.0,-3.7223,-3.784,-3.7988,-3.8007,-3.8007,-3.8007,-3.8834,-3.9662,-4.0431,-4.0489,-4.0489,-4.0489,-4.0489,-4.0489,-4.0523,-4.1393,-4.2258,-4.3085,-4.3893,-4.4739,-4.5565,-4.5565,-4.6047,-4.6855,-4.6855,-4.7354,-4.8139,-4.8139,-4.8174,-4.8227,-4.8227,-4.8227,-4.8227,-4.8227,-4.8767,-4.9461,-4.9461,-5.0178,-5.1,-5.1023,-5.1101,-5.12,-5.1211,-5.122,-5.1454,-5.2349,-5.3799,-5.5035,-5.5119,-5.5786,-5.6413,-5.6484,-5.6558,-5.6606,-5.6606,-5.6626,-5.6645,-5.6645,-5.6665,-5.6938,-5.7719,-5.7836,-5.8148,-5.8987,-5.9104,-5.9104,-5.9143,-5.9905,-6.0412,-6.0432,-6.1213,-6.1701,-6.1701,-6.1701,-6.1701,-6.1701,-6.1701,-6.1701,-6.1701,-6.1701,-6.1701,-6.1701,-6.1701,-6.1701,-6.1701,-6.1759,-6.2676,-1.4811,0.0,0.0,0.0,0.0,0.0,0.0,0.0,0.0,0.0,0.0,0.0,0.0,0.0,0.0,0.0,0.0,0.0,0.0,0.0,0.0,0.0,0.0,0.0,0.0,-3.6826,-3.7275,0.0,-3.8007,-3.8007,-3.8007,-3.8834,-3.9392,-3.9623,-4.02,-4.0489,-4.0489,-4.0489,-4.0523,-4.0573,-4.1459,-4.2013,-4.226,-4.3108,-4.3936,-4.4726,-4.4726,-4.5244,-4.6034,-4.5986,-4.614,-4.6403,-4.6445,-4.6467,-4.6491,-4.6552,-4.6557,-4.6557,-4.6557,-4.7546,-4.8787,-4.8787,-4.9814,-5.1078,-5.1123,-5.1189,-5.1269,-5.1336,-5.179,-5.2635,-5.4137,-5.4878,-5.5385,-5.6035,-5.6372,-5.6553,-5.6577,-5.6582,-5.6606,-5.6606,-5.7074,-5.7465,-5.7465,-5.7992,-5.848,-5.8714,-5.8734,-5.8831,-5.9065,-5.9104,-5.9339,-5.9963,-6.0256,-6.0666,-6.1291,-6.1564,-6.1701,-6.1701,-6.1701,-6.1701,-6.1701,-6.1701,-6.1701,-6.1701,-6.1701,-6.1701,-6.1701,-6.1701,-6.1701,-6.174,-6.2989,-6.3848,-1.6019,0.0,0.0,0.0,0.0,0.0,0.0,-2.203,0.0,0.0,0.0,0.0,0.0,0.0,0.0,0.0,0.0,0.0,0.0,0.0,0.0,0.0,0.0,0.0,-3.6089,-3.6195,-3.6402,-3.693,-3.6969,-3.7103,-3.745,-3.795,-3.8373,-3.8738,-3.92,-3.9623,-3.9988,-3.9988,-4.0211,-4.0607,-4.1133,-4.1581,-4.1956,-4.2512,-4.3202,-4.3995,-4.4343,-4.4769,-4.5272,-4.5592,-4.5757,-4.58,-4.5833,-4.5873,-4.5894,-4.5949,-4.5979,-4.5979,-4.5979,-4.7096,-4.8535,-4.8535,-4.9732,-5.1191,-5.1222,-5.1297,-5.1341,-5.1386,-5.2292,-5.3561,-5.4947,-5.5571,-5.5962,-5.6489,-5.6606,-5.6606,-5.6606,-5.6606,-5.6704,-5.7035,-5.7484,-5.7914,-5.8285,-5.8753,-5.9222,-5.9592,-5.9631,-5.9768,-6.0139,-6.0178,-6.0373,-6.0881,-6.0939,-6.1154,-6.1661,-6.1701,-6.1701,-6.1701,-6.1701,-6.1701,-6.1701,-6.1701,-6.1701,-6.1701,-6.1701,-6.1701,-6.1701,-6.1701,-6.1701,-6.174,-6.3496,-6.4297,-1.8053,-1.7999,0.0,0.0,-1.8973,0.0,-2.0661,-2.1139,-2.1664,0.0,0.0,0.0,0.0,0.0,0.0,0.0,0.0,0.0,0.0,0.0,0.0,0.0,0.0,0.0,-3.5218,-3.5315,-3.5372,-3.5372,-3.5449,-3.5815,-3.654,-3.6675,-3.7079,-3.7849,-3.7964,-3.8426,-3.9292,-3.9311,-3.9764,-4.0617,-4.0675,-4.1117,-4.1877,-4.1946,-4.2442,-4.3306,-4.4132,-4.454,-4.4695,-4.556,-4.5925,-4.5899,-4.5929,-4.5958,-4.6017,-4.6111,-4.6119,-4.6119,-4.6119,-4.7228,-4.8621,-4.8621,-4.9843,-5.1316,-5.1317,-5.1341,-5.1421,-5.1527,-5.2722,-5.4205,-5.5064,-5.5942,-5.6606,-5.6606,-5.6606,-5.6606,-5.6606,-5.6606,-5.684,-5.7641,-5.7875,-5.8187,-5.8968,-5.9261,-5.9651,-6.0432,-6.0549,-6.0822,-6.1603,-6.1701,-6.1701,-6.1701,-6.1701,-6.1701,-6.1701,-6.1701,-6.1701,-6.1701,-6.1701,-6.1701,-6.1701,-6.1701,-6.1701,-6.1701,-6.1701,-6.1701,-6.1701,-6.1701,-6.1701,-6.174,-6.3496,-6.4297,-2.0548,-1.9777,-1.895,-1.9815,0.0,0.0,-1.852,-1.9511,-2.0414,0.0,0.0,0.0,0.0,0.0,0.0,0.0,0.0,0.0,0.0,0.0,0.0,0.0,0.0,0.0,-3.341,-3.4045,-3.4449,-3.4449,-3.5091,-3.5579,-3.581,-3.6434,-3.6858,-3.7032,-3.7706,-3.8497,-3.9364,-3.9383,-3.9863,-4.0764,-4.0773,-4.0906,-4.1111,-4.1127,-4.1621,-4.2469,-4.3333,-4.4111,-4.4831,-4.5686,-4.6027,-4.5998,-4.6044,-4.6103,-4.617,-4.6231,-4.6264,-4.6264,-4.6264,-4.7352,-4.8757,-4.8757,-4.9952,-5.1381,-5.1386,-5.1386,-5.1546,-5.2253,-5.319,-5.4205,-5.5064,-5.5942,-5.6606,-5.6606,-5.6606,-5.6606,-5.6606,-5.6606,-5.684,-5.7641,-5.8363,-5.8909,-5.9065,-6.0256,-6.1252,-6.1427,-6.1447,-6.1505,-6.1681,-6.1701,-6.1701,-6.1701,-6.1701,-6.1701,-6.1701,-6.1701,-6.1701,-6.1701,-6.1701,-6.1701,-6.1701,-6.1701,-6.1701,-6.1701,-6.1701,-6.1701,-6.1701,-6.1701,-6.1701,-6.174,-6.3496,-6.4297,-2.2006,-2.1543,-2.0908,-2.0908,0.0,0.0,0.0,-1.9677,-2.0177,-1.9735,0.0,0.0,0.0,0.0,0.0,0.0,0.0,0.0,0.0,0.0,0.0,0.0,0.0,0.0,-3.2891,-3.3295,-3.3731,-3.4167,-3.4634,-3.5106,-3.5566,-3.6005,-3.6258,-3.6258,-3.6684,-3.7536,-3.8844,-3.8864,-3.9506,-4.0849,-4.0878,-4.0929,-4.0948,-4.0986,-4.1231,-4.1713,-4.3025,-4.3844,-4.4351,-4.5657,-4.6177,-4.6151,-4.6151,-4.6189,-4.625,-4.6292,-4.63,-4.63,-4.63,-4.7393,-4.8798,-4.8798,-4.9989,-5.1394,-5.1394,-5.1394,-5.159,-5.2448,-5.3327,-5.4205,-5.5064,-5.5942,-5.6606,-5.6606,-5.6606,-5.6606,-5.6606,-5.6606,-5.6723,-5.7113,-5.7875,-5.8597,-5.9026,-5.9827,-6.0549,-6.0998,-6.1056,-6.1213,-6.1642,-6.1701,-6.1701,-6.1701,-6.1701,-6.1701,-6.1701,-6.1701,-6.1701,-6.1701,-6.1701,-6.1701,-6.1701,-6.1701,-6.1701,-6.1701,-6.1701,-6.1701,-6.1701,-6.2149,-6.2345,-6.2384,-6.414,-6.4941,0.0,-2.3408,-2.3081,0.0,0.0,-2.1254,0.0,0.0,0.0,-1.9831,0.0,0.0,0.0,0.0,0.0,0.0,0.0,0.0,0.0,0.0,0.0,0.0,0.0,-3.1999,-3.2172,-3.2326,-3.2793,-3.367,-3.3807,-3.4284,-3.5321,-3.5443,-3.5554,-3.571,-3.571,-3.6487,-3.805,-3.8244,-3.9108,-4.0676,-4.0896,-4.1006,-4.1028,-4.1078,-4.1108,-4.1205,-4.2942,-4.3704,-4.384,-4.5578,-4.63,-4.63,-4.6231,-4.625,-4.6308,-4.6296,-4.63,-4.63,-4.63,-4.7393,-4.8798,-4.8798,-4.9989,-5.1394,-5.1394,-5.1394,-5.155,-5.2253,-5.3073,-5.3951,-5.481,-5.5708,-5.6391,-5.6567,-5.6606,-5.6606,-5.6606,-5.6606,-5.6606,-5.6606,-5.7113,-5.7836,-5.8695,-5.8987,-5.9397,-6.0276,-6.0393,-6.0705,-6.1583,-6.1701,-6.1701,-6.1701,-6.1701,-6.1701,-6.1701,-6.1701,-6.1701,-6.1701,-6.1701,-6.1701,-6.1701,-6.1701,-6.1701,-6.1701,-6.1857,-6.1954,-6.1954,-6.2989,-6.3321,-6.3047,-6.4785,-6.5604,0.0,0.0,0.0,0.0,-2.2639,0.0,0.0,0.0,-1.8919,-1.8157,0.0,0.0,0.0,0.0,0.0,0.0,0.0,0.0,0.0,0.0,0.0,0.0,0.0,-2.8771,-2.9539,-3.0271,-3.1077,-3.2,-3.2125,-3.2887,-3.4544,-3.4625,-3.4989,-3.5755,-3.5794,-3.6241,-3.7233,-3.8011,-3.8882,-3.9851,-4.0635,-4.1028,-4.109,-4.1104,-4.1108,-4.1205,-4.2942,-4.3704,-4.384,-4.5578,-4.63,-4.63,-4.6296,-4.6296,-4.63,-4.63,-4.63,-4.63,-4.63,-4.7393,-4.8798,-4.8798,-4.9989,-5.1394,-5.1394,-5.1394,-5.1414,-5.1511,-5.2175,-5.3053,-5.3912,-5.4791,-5.563,-5.6411,-5.6606,-5.6606,-5.6606,-5.6606,-5.6606,-5.6606,-5.6665,-5.6996,-5.7816,-5.8597,-5.9397,-6.0276,-6.0393,-6.0705,-6.1583,-6.1701,-6.1701,-6.1701,-6.1701,-6.1701,-6.1701,-6.1701,-6.1701,-6.1701,-6.1701,-6.1701,-6.1701,-6.1701,-6.1701,-6.1701,-6.2462,-6.2852,-6.2852,-6.4492,-6.4511,-6.3047,-6.4785,-6.5604,0.0,0.0,0.0,0.0,0.0,0.0,-2.0131,0.0,-1.9785,0.0,0.0,0.0,0.0,0.0,0.0,0.0,-1.9664,0.0,0.0,0.0,0.0,0.0,0.0,0.0,-2.7721,-2.8049,-2.8627,-2.9539,-3.0139,-3.1222,-3.3017,-3.4067,-3.4788,-3.5158,-3.5646,-3.6328,-3.7206,-3.7576,-3.8439,-3.9754,-4.0129,-4.0586,-4.1104,-4.1108,-4.1108,-4.1166,-4.2415,-4.3235,-4.3801,-4.5031,-4.5831,-4.63,-4.63,-4.63,-4.63,-4.63,-4.63,-4.63,-4.63,-4.7081,-4.8252,-4.9247,-5.0399,-5.1394,-5.1394,-5.1394,-5.1394,-5.1394,-5.2038,-5.2897,-5.3776,-5.4654,-5.5513,-5.6391,-5.6606,-5.6606,-5.6606,-5.6606,-5.6606,-5.6606,-5.6606,-5.6704,-5.7055,-5.7406,-5.8109,-5.9436,-5.9651,-6.0139,-6.1525,-6.1701,-6.1701,-6.1701,-6.1701,-6.1701,-6.1701,-6.1701,-6.1701,-6.1701,-6.1701,-6.1701,-6.1701,-6.1701,-6.1701,-6.1701,-6.2559,-6.3008,-6.3008,-6.4746,-6.5214,-6.4531,-6.5741,-6.6307,-2.8217,0.0,0.0,0.0,0.0,0.0,0.0,0.0,0.0,0.0,0.0,0.0,0.0,0.0,0.0,0.0,0.0,-1.877,0.0,0.0,0.0,0.0,0.0,0.0,0.0,-2.6102,-2.6629,-2.7284,-2.8198,-2.9604,-3.1644,-3.3406,-3.4452,-3.4686,-3.5545,-3.6306,-3.6931,-3.7184,-3.8024,-3.9468,-3.9683,-4.0268,-4.1108,-4.1108,-4.1108,-4.1147,-4.2025,-4.2884,-4.3762,-4.4641,-4.5519,-4.63,-4.63,-4.63,-4.63,-4.63,-4.63,-4.63,-4.63,-4.6866,-4.7881,-4.956,-5.0535,-5.1082,-5.1336,-5.1394,-5.1394,-5.1394,-5.1863,-5.2605,-5.3717,-5.4478,-5.522,-5.6333,-5.6606,-5.6606,-5.6606,-5.6606,-5.6606,-5.6606,-5.6606,-5.6606,-5.6606,-5.6606,-5.7172,-5.8851,-5.9104,-5.9729,-6.1486,-6.1701,-6.1701,-6.1701,-6.1701,-6.1701,-6.1701,-6.1701,-6.1701,-6.1701,-6.1701,-6.1701,-6.1701,-6.1701,-6.1701,-6.1701,-6.2794,-6.336,-6.336,-6.5097,-6.5936,-6.5936,-6.6522,-6.6795,0.0,0.0,0.0,-2.5697,0.0,0.0,0.0,0.0,-2.1466,0.0,0.0,0.0,0.0,0.0,0.0,0.0,0.0,0.0,0.0,0.0,0.0,0.0,0.0,0.0,0.0,-2.4581,-2.557,0.0,-2.6482,-2.8103,-3.0693,-3.2494,-3.3827,-3.4666,-3.5545,-3.601,-3.603,-3.6872,-3.775,-3.8651,-3.9429,-4.0268,-4.1108,-4.1108,-4.1108,-4.1147,-4.2025,-4.2884,-4.3762,-4.4641,-4.5519,-4.63,-4.63,-4.63,-4.63,-4.63,-4.63,-4.63,-4.63,-4.6866,-4.7881,-4.956,-5.0126,-5.0301,-5.1141,-5.1394,-5.1394,-5.1394,-5.1414,-5.1843,-5.3541,-5.4029,-5.4478,-5.6196,-5.6606,-5.6606,-5.6606,-5.6606,-5.6606,-5.6606,-5.6606,-5.6606,-5.6606,-5.6606,-5.7172,-5.8851,-5.9104,-5.9729,-6.1486,-6.1701,-6.1701,-6.1701,-6.1701,-6.1701,-6.1701,-6.1701,-6.1701,-6.1701,-6.1701,-6.1701,-6.1701,-6.1701,-6.1701,-6.1701,-6.3379,-6.4258,-6.4258,-6.5936,-6.6756,-6.6756,-6.6795,-6.6795,0.0,0.0,-2.8294,-2.6582,0.0,0.0,0.0,0.0,0.0,0.0,0.0,0.0,0.0,0.0,0.0,0.0,0.0,0.0,0.0,0.0,0.0,0.0,0.0,0.0,0.0,0.0,0.0,0.0,-2.4751,0.0,-2.9003,-3.076,-3.2343,-3.3788,-3.4686,-3.5428,-3.5991,-3.6286,-3.7165,-3.8593,-3.8882,-3.9741,-4.1108,-4.1108,-4.1108,-4.1127,-4.14,-4.2357,-4.3723,-4.4016,-4.4992,-4.63,-4.63,-4.63,-4.63,-4.63,-4.63,-4.63,-4.63,-4.7217,-4.8486,-4.9052,-5.0028,-5.1023,-5.1316,-5.1394,-5.1394,-5.1394,-5.1394,-5.1804,-5.3541,-5.401,-5.4439,-5.6196,-5.6606,-5.6606,-5.6606,-5.6606,-5.6606,-5.6606,-5.6606,-5.6606,-5.6606,-5.6606,-5.7172,-5.8851,-5.9104,-5.9729,-6.1486,-6.1701,-6.1701,-6.1701,-6.1701,-6.1701,-6.1701,-6.1701,-6.1701,-6.1701,-6.1701,-6.1701,-6.1701,-6.1701,-6.1701,-6.1701,-6.3418,-6.4297,-6.4297,-6.5975,-6.6795,-6.6795,-6.6795,-6.6795,-3.0906,-3.0483,0.0,-2.8336,-2.7123,0.0,-2.41,0.0,-2.4499,0.0,0.0,0.0,0.0,0.0,0.0,0.0,0.0,0.0,0.0,-1.8482,0.0,0.0,0.0,0.0,0.0,0.0,-2.202,-2.2606,-2.373,0.0,0.0,-2.9552,-3.1465,-3.289,-3.4081,-3.5115,-3.5991,-3.5991,-3.6872,-3.8593,-3.8593,-3.949,-4.1108,-4.1108,-4.1108,-4.1108,-4.1108,-4.2084,-4.3704,-4.3704,-4.4738,-4.63,-4.63,-4.63,-4.63,-4.63,-4.63,-4.6339,-4.6651,-4.7471,-4.8466,-4.9072,-5.0028,-5.1004,-5.1316,-5.1394,-5.1394,-5.1394,-5.1394,-5.1804,-5.3541,-5.401,-5.4439,-5.6196,-5.6606,-5.6606,-5.6606,-5.6606,-5.6606,-5.6606,-5.6606,-5.6606,-5.6606,-5.6606,-5.7172,-5.8851,-5.9104,-5.9729,-6.1486,-6.1701,-6.1701,-6.1701,-6.1701,-6.1701,-6.1701,-6.1701,-6.1701,-6.1701,-6.1701,-6.1701,-6.1701,-6.1701,-6.1701,-6.1701,-6.3418,-6.4297,-6.4297,-6.5975,-6.6795,-6.6795,-6.6795,-6.6795]}]]